GFSGL_850_rhum_000.txt.gz
RH
50 48 47 50 58 60 60 61 60 57 56 58 60 60 58 52 47 47 51 65 81 89 92 94 93 96 99 100 100 99 100 100 100 97 98 98 94 90 88 90 87 89 88
49 44 45 50 53 52 50 46 40 38 35 34 37 44 50 56 65 64 58 54 60 65 74 88 89 87 90 95 98 100 99 99 100 100 99 98 97 97 95 96 94 95 95
48 57 60 61 59 58 54 48 44 42 40 37 34 35 40 51 61 60 65 64 66 73 82 84 78 84 92 91 92 98 100 100 99 99 99 100 99 99 99 100 99 100 100
68 59 54 55 54 47 44 42 40 42 46 46 42 38 38 44 55 66 71 72 76 77 77 73 68 66 74 89 99 99 95 98 100 97 100 100 100 98 100 100 90 100 100
66 63 61 66 60 53 48 45 44 45 49 52 50 51 60 66 60 72 70 72 80 82 81 80 75 68 70 75 93 97 98 100 96 100 99 100 100 100 91 97 96 100 99
73 68 68 71 68 63 60 60 64 66 63 57 60 67 62 69 69 53 75 84 83 85 82 78 77 74 65 70 85 81 97 98 100 97 100 98 100 93 81 99 100 100 100
68 62 68 63 58 58 61 62 64 62 60 65 67 73 74 63 67 76 81 82 87 89 87 87 81 94 95 86 76 81 87 93 94 99 99 100 100 97 78 94 99 100 93
56 59 55 51 53 53 56 58 57 56 62 61 60 67 71 71 72 73 74 74 72 67 78 90 95 97 98 100 93 76 92 94 92 95 91 99 97 100 92 96 94 100 100
53 45 36 37 37 38 41 46 43 46 54 48 51 54 66 66 62 57 56 42 36 46 96 100 100 95 83 94 100 97 78 96 97 90 95 87 96 98 98 100 99 100 100
26 23 23 23 25 29 31 34 37 44 38 48 43 44 50 57 49 42 23 52 58 58 33 30 57 72 83 91 100 100 88 88 99 99 99 98 99 100 100 100 96 99 99
23 21 20 20 26 26 31 33 41 34 42 36 43 42 43 47 45 32 19 30 74 56 25 30 49 73 80 86 91 95 94 91 99 100 100 91 98 100 100 100 100 100 91
16 14 14 18 22 26 36 40 37 35 38 44 43 42 46 48 35 26 22 40 61 26 19 29 74 92 83 84 89 91 99 100 99 100 100 100 100 100 100 99 100 98 88
21 22 25 28 31 37 40 37 39 41 39 44 45 48 48 37 33 30 47 60 54 36 20 37 88 99 99 95 97 100 100 100 100 100 100 100 100 100 99 100 99 73 47
30 31 31 32 36 33 37 46 44 46 48 49 51 55 63 66 58 70 84 84 60 34 35 67 100 100 100 99 98 98 100 100 100 100 100 100 100 100 100 88 75 97 93
32 28 28 32 33 35 41 50 57 54 54 60 68 71 73 74 74 77 88 81 88 60 91 100 100 98 94 98 98 100 100 100 100 100 100 100 100 100 97 94 98 97 96
36 33 33 40 43 44 56 61 55 68 73 76 75 77 74 76 68 88 78 86 55 88 98 99 100 100 100 99 99 99 100 100 100 99 99 99 99 98 99 99 98 98 48
42 42 46 54 55 64 72 79 84 66 82 84 83 80 79 82 84 80 92 89 95 94 100 100 100 100 99 99 99 99 99 99 99 99 98 98 98 97 98 98 98 58 28
53 53 53 57 70 80 86 92 92 92 92 88 84 86 88 90 86 94 95 86 98 100 100 100 100 100 99 98 98 98 98 98 98 98 98 97 97 97 97 98 80 30 29
58 57 62 77 84 90 91 92 95 96 94 91 88 80 82 88 91 95 97 96 99 100 100 100 100 100 98 98 98 98 98 98 98 98 97 98 98 97 98 80 32 30 33
59 57 80 89 91 92 93 97 95 88 95 95 90 85 77 90 93 84 85 94 99 100 100 100 100 100 98 98 97 97 97 97 97 97 98 99 98 98 89 35 29 32 25
58 78 90 88 94 97 95 95 96 96 91 86 84 82 91 86 85 78 87 93 99 100 100 99 100 100 98 97 97 97 97 97 97 97 97 97 98 97 42 31 34 24 19
84 88 96 96 96 96 96 98 95 91 90 92 93 86 84 82 81 79 81 93 99 100 100 100 99 98 99 97 97 97 96 97 97 97 97 97 98 49 32 31 24 20 20
92 94 96 95 99 97 92 93 95 95 95 94 90 91 90 89 84 81 83 89 98 100 100 93 93 98 98 97 96 97 97 97 96 97 97 97 84 32 30 24 21 20 12
94 96 100 99 100 97 95 87 91 91 92 92 91 96 89 84 84 78 82 86 93 100 100 79 92 98 98 97 96 97 96 96 96 97 97 96 33 29 26 23 20 10 18
96 96 100 100 100 100 100 99 98 95 96 87 91 95 89 86 84 77 85 86 98 100 86 73 97 98 97 97 96 96 96 96 97 97 97 61 28 27 25 20 10 23 45
98 99 100 100 100 100 99 96 92 92 90 87 83 86 81 76 74 77 88 92 100 99 77 76 98 99 97 98 96 96 96 96 96 97 86 30 27 25 20 11 24 49 67

GFSGL_850_rhum_003.txt.gz
RH
31 34 41 44 45 50 54 55 52 46 40 37 35 34 33 32 31 36 47 57 60 60 59 64 65 65 76 81 76 87 100 100 100 89 88 91 98 95 89 86 84 83 82
41 47 53 53 49 51 50 48 47 44 40 38 40 43 45 43 42 42 48 48 72 78 82 82 83 82 80 77 80 84 96 98 100 100 100 98 96 91 86 84 85 84 88
50 55 60 60 56 56 56 53 48 42 39 40 47 58 56 55 61 60 54 71 74 65 66 75 78 79 77 73 74 75 72 76 97 98 96 99 98 89 91 96 87 89 88
63 61 72 70 64 62 58 49 43 40 39 40 44 48 54 69 66 67 73 67 61 75 81 82 82 82 86 85 90 90 88 84 87 95 99 98 100 98 96 95 97 96 96
61 66 65 61 55 51 43 38 38 39 45 50 50 53 59 57 76 65 55 68 76 80 80 79 79 77 80 81 84 91 95 95 94 99 100 98 99 100 99 99 99 93 97
62 52 47 46 40 25 16 14 19 29 38 41 57 64 62 71 63 56 67 76 70 68 63 38 44 62 82 94 92 92 98 100 100 100 100 100 99 96 96 99 99 100 100
40 33 27 16 5 5 7 9 13 18 20 28 53 47 55 48 53 61 73 63 57 40 35 35 48 86 64 73 85 91 90 89 98 100 100 99 99 98 100 99 97 99 100
12 7 6 6 8 9 11 14 17 22 27 42 38 40 52 26 44 64 55 51 28 18 16 24 24 17 29 54 99 97 99 99 95 98 100 95 97 99 100 99 99 100 100
5 9 10 10 10 12 14 16 20 25 28 24 32 39 35 38 53 56 48 44 22 20 52 68 28 16 21 44 100 99 98 95 86 84 90 83 74 88 100 100 98 100 100
11 12 12 14 16 18 20 22 24 26 25 29 25 29 39 48 49 46 43 18 54 51 84 63 35 28 23 47 100 100 99 99 99 97 90 88 82 80 81 100 100 100 100
15 16 16 18 20 20 22 24 30 35 36 36 34 42 45 44 41 22 27 68 68 88 91 92 62 29 28 82 100 100 100 100 99 100 98 98 92 99 96 100 100 100 100
19 18 19 20 21 21 27 29 34 40 45 40 48 50 50 54 44 49 72 79 82 94 99 96 68 35 82 100 99 100 99 100 100 100 100 99 100 100 100 100 100 100 100
20 21 21 22 23 24 30 32 40 42 46 57 60 62 69 71 62 67 81 82 89 96 95 92 76 96 98 99 99 98 99 99 100 99 100 100 100 100 100 100 100 100 100
24 24 25 28 28 29 33 39 43 48 62 70 78 85 86 83 82 86 86 90 94 91 91 83 100 99 98 100 100 100 96 99 99 99 100 99 100 100 99 100 99 99 99
27 29 29 30 32 33 34 38 46 53 80 90 92 93 94 94 89 87 91 94 94 95 94 99 98 99 100 99 100 99 96 99 100 99 99 99 100 100 99 99 98 99 98
30 31 36 43 43 46 50 49 47 59 86 94 94 94 92 88 90 92 94 90 92 94 95 99 99 100 100 100 100 99 95 98 100 99 98 99 99 100 98 98 98 98 98
40 43 46 52 52 56 65 80 90 67 73 92 94 90 92 93 90 93 91 97 93 98 94 99 100 100 99 100 100 99 98 97 98 98 98 98 98 97 97 98 98 97 95
45 50 60 60 62 73 84 94 96 99 99 88 77 92 88 87 91 94 94 87 80 91 100 97 93 98 94 100 99 98 96 96 97 97 97 97 97 97 97 97 97 97 48
60 67 63 66 77 90 93 95 98 97 96 94 84 84 73 73 96 98 89 78 92 94 98 95 93 91 100 99 99 97 97 96 96 96 97 97 97 96 97 97 96 46 44
59 57 70 84 93 94 94 98 98 99 97 95 94 92 87 92 97 89 77 80 89 94 98 93 90 91 99 99 99 96 96 96 96 96 96 96 96 97 97 94 44 38 35
61 58 76 87 92 98 100 99 96 100 98 98 87 80 90 93 90 79 79 84 89 95 98 93 96 88 87 97 98 96 96 96 96 96 96 96 96 97 94 44 40 33 24
67 78 88 93 96 99 99 98 95 87 88 95 87 81 89 86 87 84 88 86 87 88 92 95 94 74 97 97 97 96 96 96 96 96 96 96 97 90 46 38 31 22 20
84 90 93 92 92 100 93 92 98 98 95 97 98 98 92 86 93 95 88 79 81 87 90 97 84 79 97 97 96 97 96 96 96 96 96 97 96 47 37 29 22 19 10
94 96 97 98 96 96 97 97 94 99 99 97 96 92 86 94 90 82 77 81 85 93 96 92 77 92 98 97 96 96 96 96 96 95 97 97 55 35 30 22 18 11 35
92 93 98 100 100 100 100 98 98 98 93 90 89 93 91 90 85 84 79 84 90 100 96 81 74 97 98 96 96 96 96 96 96 97 98 86 36 30 22 16 17 44 73
99 100 99 100 100 99 100 99 96 93 91 93 91 91 93 92 90 84 94 92 89 92 81 77 77 98 95 95 96 96 96 96 97 98 99 42 30 22 13 26 60 76 91

GFSGL_850_rhum_006.txt.gz
RH
25 31 37 40 45 50 50 51 52 52 48 43 40 40 44 47 48 51 56 56 59 71 81 73 68 68 71 75 78 79 80 89 99 88 95 88 88 88 95 96 94 92 84
34 40 40 37 38 46 50 51 52 46 39 34 33 36 40 44 54 66 61 71 79 68 63 65 77 83 85 82 80 82 86 86 94 100 96 99 92 87 94 92 83 84 86
41 42 44 48 52 52 47 40 32 24 18 17 20 26 30 44 52 55 80 84 61 68 73 84 84 80 76 66 71 85 86 85 88 100 100 100 100 96 92 91 95 98 100
43 45 47 44 40 34 22 10 4 2 2 3 4 6 16 38 39 50 55 54 67 74 70 68 60 50 39 43 82 88 90 98 100 100 100 99 99 99 99 99 99 98 89
49 44 36 27 13 3 3 3 4 4 4 5 5 7 14 23 22 38 36 45 64 71 54 44 38 29 26 75 44 43 67 98 93 100 100 100 100 94 98 99 98 98 89
41 26 10 3 3 4 4 4 5 5 6 6 6 7 7 10 25 21 29 61 73 55 48 40 27 19 37 27 14 28 42 96 98 100 100 100 100 100 100 98 99 100 100
18 4 4 6 5 6 7 8 10 11 11 12 13 13 13 13 19 37 64 68 50 48 48 39 21 29 85 48 21 22 28 72 98 99 99 100 100 100 100 98 99 99 98
4 6 6 6 8 10 11 12 13 15 16 16 17 18 20 19 27 52 64 49 38 27 39 23 21 90 80 53 47 55 44 89 100 99 99 100 100 100 100 100 100 100 98
6 6 8 10 12 13 14 14 16 19 20 23 26 26 26 38 48 48 40 26 29 48 60 54 81 93 93 97 94 88 93 97 98 99 100 99 100 100 100 100 99 100 99
7 9 11 14 16 17 18 19 21 23 26 28 30 31 37 48 50 53 70 74 83 86 86 89 95 97 98 95 99 97 100 100 98 97 96 86 98 99 100 100 100 100 100
12 13 15 18 20 21 22 23 24 28 33 36 40 40 56 64 67 79 85 90 90 97 97 95 88 78 92 92 100 100 100 99 99 100 99 99 99 100 100 100 100 100 100
15 16 17 20 22 23 25 26 28 31 39 47 61 73 79 85 84 90 92 92 93 93 96 91 91 90 86 100 100 99 98 98 99 97 100 99 98 98 99 99 100 100 100
16 17 19 20 23 25 32 32 34 42 55 68 85 93 94 84 76 88 92 91 98 95 96 100 93 97 97 100 99 100 98 98 99 100 100 99 97 99 99 99 99 99 100
18 19 20 24 29 33 33 37 45 54 75 92 99 100 100 93 96 90 98 92 93 92 95 88 92 95 96 100 95 94 99 98 98 98 99 95 97 99 98 98 98 98 99
21 21 23 30 36 38 36 43 56 67 96 97 95 96 97 97 92 96 92 94 98 95 88 88 83 84 88 89 85 97 100 100 100 100 97 97 98 97 97 97 98 98 98
22 24 31 40 42 48 50 46 46 63 91 96 95 93 93 90 95 88 91 97 97 90 91 90 92 93 100 98 100 100 99 100 97 97 97 97 97 97 97 97 97 97 97
28 32 37 47 55 54 59 76 91 66 82 89 96 94 93 93 90 91 97 97 90 91 82 94 95 97 98 100 100 100 99 97 97 97 97 96 96 96 97 97 96 97 97
33 40 52 55 55 65 82 95 98 97 98 88 72 95 93 91 92 95 97 96 78 84 95 90 95 98 100 100 100 98 94 96 96 96 96 96 96 96 96 96 96 97 94
45 53 58 69 75 86 89 88 94 98 99 89 93 88 88 90 94 100 94 88 88 91 97 92 96 100 100 100 91 96 96 97 97 96 96 96 96 96 96 96 96 94 50
50 59 75 76 83 85 86 96 97 98 97 94 100 99 84 93 99 94 78 84 90 88 82 86 90 97 100 90 98 96 95 96 96 96 96 96 96 96 96 97 87 53 53
56 60 77 78 82 85 97 100 98 99 99 96 86 87 94 96 94 70 88 97 86 83 77 92 92 99 98 90 98 96 96 96 96 96 96 96 96 96 98 74 57 47 31
68 78 84 89 87 93 99 97 97 92 95 95 96 92 100 93 84 86 98 89 84 80 80 93 97 100 84 97 97 96 95 96 96 96 96 96 97 98 58 43 39 25 17
78 88 89 92 98 100 92 94 95 96 96 96 99 98 98 95 94 90 87 87 84 77 90 89 91 84 81 100 96 96 96 96 96 96 96 96 98 53 41 35 25 12 32
95 98 100 100 100 96 97 95 94 96 100 96 96 97 99 96 96 93 94 90 87 92 85 85 83 79 95 98 96 96 96 96 96 96 97 100 51 39 31 20 12 37 62
97 98 99 99 100 98 96 98 97 96 95 94 96 98 96 95 95 92 93 90 84 89 82 79 76 82 100 96 96 96 96 96 96 97 98 60 37 27 18 22 56 84 88
94 96 89 85 87 91 99 100 95 95 96 94 94 95 96 93 91 96 90 86 92 90 84 74 76 96 98 95 95 96 96 96 99 96 53 35 27 14 34 73 89 94 95

GFSGL_850_rhum_009.txt.gz
RH
33 36 40 41 41 43 43 42 38 32 24 15 8 5 5 6 11 23 33 46 85 86 66 62 66 83 92 82 75 73 66 73 99 84 95 96 96 97 97 93 82 79 74
40 44 45 46 44 41 34 26 15 5 2 2 3 3 3 4 6 13 19 47 65 42 49 66 76 76 50 40 39 46 43 67 98 100 88 96 100 98 93 93 95 94 89
49 50 49 44 36 25 11 3 2 3 3 3 3 4 4 5 5 7 13 32 35 33 48 73 79 49 40 33 26 80 80 32 36 72 93 90 90 98 97 92 93 93 84
58 54 44 30 14 4 4 4 4 4 5 5 6 6 6 6 7 9 12 24 32 45 64 81 63 54 46 28 62 100 71 34 63 88 86 94 93 93 98 100 97 100 98
60 44 26 8 4 5 5 5 6 6 7 7 7 7 7 7 8 10 14 35 75 76 63 52 44 44 38 40 82 80 80 70 90 94 96 98 98 95 99 99 98 99 99
46 23 7 5 5 6 6 7 7 8 8 9 9 9 9 11 12 15 33 65 79 57 47 41 35 31 30 56 67 65 87 100 97 98 94 100 97 100 100 100 100 100 99
20 8 6 6 7 8 8 9 10 10 11 11 11 12 13 15 18 26 49 69 56 46 49 51 43 53 64 84 84 91 98 100 91 98 99 95 99 100 100 100 100 100 100
9 8 7 8 9 10 11 12 12 13 13 14 14 17 19 20 25 43 65 66 70 73 75 69 82 91 87 91 89 92 97 82 54 82 100 100 98 96 100 100 99 100 99
8 8 9 10 11 12 13 14 15 16 16 17 21 23 25 28 41 61 85 88 84 80 79 91 95 92 92 90 85 90 88 87 90 95 99 96 97 98 100 100 100 100 99
8 9 12 13 14 15 16 17 19 21 21 24 26 31 36 46 60 90 91 90 92 98 96 94 85 93 91 92 90 93 98 96 99 95 93 98 100 99 100 100 100 100 100
11 12 13 15 17 17 19 22 22 23 28 30 34 32 40 66 78 93 92 92 96 98 94 92 91 95 98 88 93 97 97 97 87 94 100 87 91 100 100 99 100 99 99
13 14 16 18 19 21 24 24 23 25 30 35 40 47 68 83 83 93 93 91 94 96 95 96 95 91 91 88 88 88 95 98 94 97 100 99 99 100 100 98 98 98 98
16 17 18 19 20 22 25 26 27 34 49 56 79 93 97 86 80 87 94 100 91 91 96 100 92 91 94 93 96 98 100 96 97 99 99 96 96 100 98 96 97 97 98
18 19 20 21 22 25 29 31 40 45 56 82 97 100 97 90 91 82 97 94 90 85 97 97 79 82 99 98 98 100 100 100 99 97 97 94 97 98 97 97 97 97 97
21 21 22 22 26 30 29 33 43 50 88 97 95 97 98 96 92 96 96 91 91 97 94 85 71 95 100 100 98 99 97 100 100 94 97 97 97 95 95 97 96 97 97
23 23 26 30 34 36 34 32 35 60 93 96 96 96 91 93 92 93 91 91 98 92 91 91 90 100 100 100 95 99 100 98 95 95 97 97 97 96 96 96 96 97 97
26 28 32 37 38 39 41 59 84 83 96 67 97 96 96 91 91 90 92 94 97 84 93 92 100 100 100 97 98 100 100 95 96 96 97 96 96 96 96 96 96 96 96
31 35 40 40 41 48 69 90 94 98 100 95 73 95 97 94 92 92 97 90 67 88 100 100 100 100 100 100 100 100 96 96 96 96 97 96 96 96 96 96 96 96 96
38 41 41 46 56 81 83 82 87 99 100 96 94 93 95 96 97 100 94 68 84 98 98 96 100 100 100 96 100 100 98 96 96 96 96 96 95 96 96 96 96 96 84
39 39 43 59 75 79 79 91 100 98 98 100 100 99 88 95 98 91 74 76 95 100 89 92 100 100 98 100 100 98 96 95 96 96 96 96 96 96 96 96 94 81 58
37 40 50 71 77 84 94 98 96 98 99 99 92 88 96 96 93 81 86 89 93 95 90 100 95 90 93 93 98 97 96 96 96 97 96 96 96 97 95 80 52 43 27
42 57 79 85 87 95 100 97 98 95 94 100 94 95 100 92 92 92 92 95 95 92 95 95 91 83 86 95 97 96 96 96 96 96 96 97 95 76 66 49 30 20 31
59 83 87 89 96 100 96 98 98 96 99 98 99 98 92 94 94 92 96 96 90 93 91 86 88 79 84 99 97 96 96 96 96 96 97 98 69 52 38 21 17 48 81
94 98 98 93 98 100 93 95 97 96 100 99 97 96 98 96 92 96 95 91 90 92 82 86 80 78 97 98 96 96 96 96 96 98 97 62 42 27 18 27 54 85 95
96 94 89 88 84 82 84 90 96 96 96 94 95 99 96 96 92 94 94 89 94 87 81 82 74 90 99 96 96 96 96 96 98 90 48 40 25 23 73 92 94 94 94
82 78 74 75 78 81 90 97 95 95 97 97 97 98 96 91 95 97 93 97 94 86 79 72 75 98 97 96 96 96 96 98 80 42 38 22 41 83 93 92 89 91 88

GFSGL_850_rhum_012.txt.gz
RH
41 43 48 51 51 44 33 21 9 4 3 4 4 4 5 5 5 5 6 6 9 15 19 26 47 78 93 77 52 52 32 53 99 75 59 34 27 41 74 84 85 85 86
48 55 58 54 45 31 16 6 4 4 4 5 5 6 6 7 7 7 8 10 14 18 32 55 71 76 67 60 54 49 43 96 100 94 60 41 29 22 26 51 86 81 78
58 62 59 46 27 12 6 5 5 5 6 6 7 7 8 8 8 8 9 11 20 36 71 71 63 57 51 48 46 43 82 100 98 87 61 49 39 31 54 58 45 56 82
68 61 46 28 13 7 6 6 6 7 7 8 8 8 9 9 9 9 10 13 22 51 66 56 48 48 50 62 69 78 97 96 96 100 99 99 89 66 81 78 69 72 79
66 45 28 15 8 6 7 7 7 8 9 9 10 10 10 10 10 12 15 25 39 54 49 41 40 42 64 84 92 90 91 96 97 98 98 100 98 98 99 97 96 85 98
57 40 19 10 7 7 8 8 9 10 11 11 12 12 11 11 11 15 48 69 68 64 60 59 60 70 85 94 92 90 88 84 81 90 98 99 98 100 99 98 100 100 99
58 35 13 8 8 8 9 10 11 12 13 13 13 12 12 14 19 28 77 85 82 76 74 75 75 93 95 90 89 89 90 89 87 86 94 98 99 88 99 96 100 100 100
36 24 8 8 9 11 12 13 14 14 15 15 15 16 18 22 29 54 91 89 86 81 82 80 99 89 81 92 96 97 96 74 76 100 100 98 98 98 99 96 100 100 99
24 11 9 11 12 13 14 15 16 18 18 17 19 21 25 23 39 88 93 91 86 87 79 90 100 92 92 96 96 96 90 87 79 87 100 100 99 98 100 100 98 99 99
11 10 11 14 14 15 17 18 20 22 22 19 20 24 28 37 50 95 93 91 95 88 93 91 90 92 90 93 89 96 98 84 87 95 91 84 86 99 100 99 97 98 99
11 12 14 15 17 18 20 22 24 25 24 22 21 22 32 66 81 95 93 90 94 98 93 88 83 97 98 87 86 96 94 89 95 91 87 90 92 97 96 96 96 98 98
13 14 16 18 20 22 24 24 25 25 25 24 26 34 67 94 91 95 93 91 93 95 88 80 92 98 93 87 93 97 96 97 94 93 96 98 99 100 98 96 96 97 97
14 17 20 23 25 25 25 26 27 26 29 35 67 93 100 97 88 84 93 100 98 89 82 96 97 98 85 80 97 98 98 97 98 97 100 100 99 96 97 93 91 94 97
19 22 25 27 27 27 27 28 29 33 49 81 100 100 97 96 93 84 97 94 95 89 95 97 95 76 67 94 92 86 88 100 100 97 98 100 92 97 100 94 97 97 97
24 27 29 29 29 29 29 33 37 51 89 99 97 97 96 96 94 95 95 93 94 97 92 90 78 83 95 99 98 100 91 99 98 97 100 97 94 99 96 96 97 97 97
29 32 32 31 31 32 34 34 46 70 96 94 96 97 92 94 95 96 93 93 99 84 80 87 96 100 100 100 100 100 96 99 100 100 96 96 98 98 96 96 96 96 96
34 34 32 33 34 38 39 56 76 68 72 70 94 98 96 93 91 92 96 97 90 83 76 96 96 100 100 100 100 100 100 100 97 96 96 96 97 97 96 96 96 96 96
35 34 34 35 35 40 58 85 83 89 91 83 81 100 99 96 95 92 99 93 74 73 91 99 100 100 100 100 100 100 97 97 96 96 96 96 97 97 96 96 96 96 96
35 35 35 37 44 65 76 75 83 98 100 98 100 98 97 97 100 99 93 78 89 98 97 98 100 100 100 100 98 98 99 96 97 96 96 97 96 96 96 96 96 97 94
35 34 35 42 59 71 73 88 98 99 100 100 100 100 95 96 97 83 80 94 100 100 100 100 100 100 96 93 97 97 96 95 96 96 96 97 96 96 96 96 94 87 57
32 33 40 58 64 73 84 98 100 100 100 100 95 94 99 97 89 89 98 97 98 99 100 100 100 88 83 88 97 96 96 96 96 96 96 96 97 92 93 83 52 27 23
33 41 60 68 72 80 100 100 92 96 99 100 100 93 100 95 95 98 95 95 98 94 91 98 87 80 80 97 96 96 96 96 96 96 99 97 85 74 49 29 27 63 95
40 59 68 74 88 96 85 97 88 86 100 100 100 96 98 98 96 96 99 96 93 91 90 86 80 77 89 96 96 96 96 96 96 99 100 67 53 38 25 29 63 94 96
67 81 84 83 74 96 78 76 85 89 100 99 99 100 100 100 98 99 98 95 92 90 85 78 77 76 96 96 96 96 96 96 99 93 52 46 28 46 92 96 96 97 98
77 72 71 72 72 73 77 83 90 93 94 94 100 100 99 98 99 96 96 97 95 91 78 72 67 94 96 96 96 96 96 100 80 47 31 33 92 96 96 97 96 92 89
63 63 66 70 73 78 85 90 90 93 96 99 100 100 100 100 100 100 100 98 93 83 71 64 84 96 96 96 96 97 100 68 42 25 51 95 97 97 96 90 86 87 96

GFSGL_850_rhum_015.txt.gz
RH
46 53 60 57 53 46 37 25 12 6 6 6 7 7 8 8 9 10 10 10 10 12 16 34 65 78 49 39 49 60 61 59 67 53 75 93 90 74 68 73 47 36 39
57 65 63 56 48 36 24 12 7 6 7 8 8 9 10 11 12 12 11 11 16 25 47 79 71 59 53 58 57 68 77 85 81 88 98 90 80 86 93 86 79 82 62
72 66 58 51 42 27 14 8 7 7 8 9 10 12 13 14 13 12 12 14 22 36 63 68 55 62 66 72 85 87 91 89 90 91 96 93 90 93 88 89 95 73 74
67 63 58 52 31 15 8 7 8 9 10 12 14 15 16 15 14 13 14 22 32 48 63 64 73 78 81 88 88 90 92 91 90 90 90 85 85 84 88 84 88 88 82
66 58 55 38 17 8 8 9 10 11 13 16 17 18 16 15 14 16 32 40 47 55 57 70 80 86 93 93 92 89 94 89 91 91 90 93 91 83 87 90 97 96 91
57 48 34 34 12 8 9 10 12 15 18 20 20 18 17 16 15 17 23 65 86 88 80 79 87 88 91 95 93 90 92 95 94 99 96 92 91 91 94 100 99 99 99
47 31 23 18 9 10 11 13 17 20 22 22 20 19 18 17 18 21 81 92 93 91 91 90 84 94 99 90 90 94 95 96 85 91 97 97 97 81 100 99 98 99 99
47 27 14 10 10 12 14 18 22 24 24 22 22 20 19 20 24 48 95 92 90 90 92 91 97 99 89 89 91 97 77 62 87 99 96 94 95 90 93 96 98 98 96
29 17 11 11 13 15 20 24 26 25 25 24 24 22 22 23 38 75 96 90 85 89 90 95 100 86 86 93 97 93 83 86 85 95 93 95 98 99 100 97 95 100 99
18 12 12 14 17 21 25 27 27 26 26 25 24 24 27 33 46 97 93 89 93 94 97 100 89 85 91 98 97 92 90 85 98 95 85 77 83 84 100 98 96 98 98
12 13 16 18 22 27 29 29 28 28 27 25 24 30 38 57 86 96 93 89 94 96 95 92 88 87 97 94 86 86 93 92 94 85 85 95 97 94 93 95 96 96 98
14 17 19 22 27 31 31 30 29 28 28 28 30 40 58 84 96 96 93 92 93 96 96 84 92 97 90 87 85 93 93 94 88 100 100 99 100 95 98 96 95 96 97
17 20 22 26 33 34 31 30 29 29 33 36 54 82 91 85 93 96 98 100 97 92 88 100 98 79 77 89 91 93 98 99 100 96 99 98 98 98 96 98 92 98 98
20 22 28 36 36 32 30 30 31 33 40 66 92 98 94 85 88 85 98 95 94 95 97 91 78 79 93 98 89 95 100 100 100 96 96 96 98 100 100 98 99 96 96
23 32 38 37 33 31 31 33 35 42 73 97 96 97 95 94 90 95 94 94 95 97 84 84 78 98 97 90 94 100 100 100 100 100 97 97 97 100 97 97 96 96 96
37 40 37 34 32 32 31 28 38 52 86 91 99 96 94 94 95 93 91 94 98 88 90 92 93 99 98 100 100 100 100 100 99 97 97 99 99 98 96 96 97 97 96
40 37 35 34 32 29 30 43 56 61 67 76 100 100 99 93 94 93 94 98 91 91 97 95 100 99 100 100 100 100 100 99 97 97 98 97 96 96 97 96 97 96 96
38 36 34 31 27 34 52 72 71 76 89 96 86 100 100 98 96 93 97 93 84 95 100 100 100 100 100 100 100 100 97 96 96 97 96 96 96 97 96 97 96 96 96
37 34 30 28 37 59 70 63 70 94 99 100 94 94 97 100 100 100 96 91 98 100 100 99 100 100 100 99 94 97 97 96 97 96 96 96 96 96 96 96 96 97 86
35 31 31 38 54 64 61 69 84 99 99 96 96 98 96 96 97 87 90 96 96 97 96 100 100 100 94 86 96 96 96 96 96 96 96 98 99 93 87 79 57 46 36
32 30 35 54 58 63 66 84 100 99 95 99 96 90 100 97 94 96 97 97 98 99 100 100 100 92 77 92 96 96 96 96 96 97 100 100 84 67 46 33 36 71 89
30 36 53 61 66 69 92 95 76 91 91 96 95 90 100 100 98 97 99 97 99 100 100 100 89 76 87 96 96 96 95 96 97 99 100 79 54 38 29 44 94 96 97
34 47 55 58 67 82 68 76 74 81 96 98 100 98 100 100 99 100 98 99 100 100 92 85 76 78 96 96 96 96 97 98 100 100 66 42 57 88 94 96 97 97 96
43 58 61 62 63 73 69 70 79 86 100 100 92 98 100 100 100 100 98 99 100 92 83 75 72 96 96 96 96 98 98 99 93 50 46 94 95 96 96 98 96 95 95
54 55 56 61 64 68 70 74 83 92 94 93 93 100 100 100 94 99 100 100 97 86 75 66 95 96 96 96 97 100 100 64 41 56 97 99 99 99 98 96 96 96 96
48 52 58 62 67 71 76 84 89 94 95 94 100 96 95 98 99 100 100 97 88 81 69 87 96 96 96 98 100 93 48 36 78 97 97 95 94 97 96 97 97 98 98

GFSGL_850_rhum_018.txt.gz
RH
51 58 62 58 53 48 42 33 19 11 7 7 8 9 12 15 17 20 24 30 40 44 48 52 56 64 59 54 54 55 57 60 67 71 69 66 63 65 67 64 66 68 72
62 65 60 56 52 46 33 25 12 7 8 9 11 14 18 19 18 19 28 37 46 50 52 55 57 56 60 59 58 61 67 68 73 92 75 73 69 68 71 72 69 69 68
67 63 57 54 51 42 22 8 8 8 10 13 17 20 20 20 20 24 38 47 52 54 57 60 63 65 64 64 68 71 71 77 81 80 83 82 79 77 73 73 78 72 66
66 59 53 48 42 26 10 8 10 12 14 20 22 22 22 22 22 34 33 54 58 61 65 69 69 69 70 74 76 73 86 88 80 84 92 90 86 76 76 75 73 71 81
63 53 46 42 37 18 9 10 12 16 22 24 25 24 24 24 31 20 28 64 70 70 71 69 70 76 85 85 88 92 96 83 88 95 96 82 72 72 78 79 90 80 77
60 52 48 37 24 10 11 13 17 24 26 27 27 27 27 29 22 20 30 82 79 74 70 70 69 72 73 84 88 84 85 96 93 98 93 82 81 84 86 82 83 94 95
61 54 39 26 11 12 14 18 25 28 29 30 33 31 28 29 26 26 84 90 82 73 71 69 69 68 82 91 79 80 88 91 96 93 90 83 92 88 92 98 99 100 96
58 44 28 12 12 14 19 25 29 31 33 37 41 34 36 44 48 81 94 88 77 73 72 72 71 80 91 86 80 91 98 89 79 79 82 92 94 96 98 99 97 92 82
54 30 13 12 15 18 23 28 32 32 34 39 41 50 50 52 69 86 94 84 77 74 73 75 88 88 80 81 94 96 95 87 73 82 91 93 90 93 98 96 95 100 97
34 15 13 15 19 22 28 33 33 34 40 42 47 51 57 60 76 93 93 86 80 80 80 90 85 84 82 97 97 83 96 82 90 94 91 89 98 99 100 96 96 98 99
19 13 16 19 22 29 35 34 36 39 40 47 50 53 65 73 81 89 94 89 87 91 92 93 82 86 94 85 80 85 92 88 92 91 90 96 96 95 92 95 95 96 96
14 16 19 22 31 37 35 33 37 45 47 48 52 64 71 75 81 87 92 90 94 97 92 91 90 97 82 80 82 88 85 88 88 93 95 96 98 95 91 92 96 96 97
16 19 23 34 38 36 37 37 45 49 52 58 65 72 72 79 80 86 88 93 93 93 91 94 97 81 82 83 89 87 90 90 94 95 100 98 93 92 94 92 94 92 96
20 24 37 39 35 36 36 42 44 53 62 70 77 77 83 84 84 85 89 90 90 86 96 97 82 80 82 88 86 86 90 97 97 96 97 94 93 94 96 94 96 95 97
27 38 39 38 38 38 38 45 51 56 68 92 91 92 94 91 87 92 95 94 94 97 97 83 81 82 88 90 91 91 92 98 96 96 97 95 94 96 94 96 97 97 96
38 40 38 36 40 35 43 53 67 82 94 95 94 99 95 95 93 92 92 95 98 94 89 85 88 95 96 95 95 92 92 98 96 96 95 96 96 96 97 95 96 96 96
40 40 38 39 43 54 60 70 73 70 82 90 95 96 97 94 92 93 95 100 93 88 88 92 98 98 97 96 95 95 98 96 96 96 96 97 96 96 96 96 96 97 97
41 39 36 38 48 65 74 76 76 79 80 79 84 92 93 94 95 94 97 93 88 90 93 98 98 97 95 96 96 96 96 96 97 97 96 96 96 96 97 97 97 96 93
41 38 34 34 54 64 80 81 84 84 84 82 82 83 88 94 96 96 96 95 95 95 96 96 96 96 96 97 97 97 97 96 97 96 96 99 100 100 89 66 50 64 53
40 36 31 32 64 80 86 85 86 86 83 84 86 86 89 95 94 95 97 96 94 92 95 95 96 97 100 96 96 97 96 96 95 98 100 100 100 94 75 45 66 93 94
38 33 32 53 84 87 90 89 88 86 88 86 87 92 100 97 96 97 95 93 93 96 97 97 97 100 96 96 96 96 96 97 98 100 100 89 93 79 77 90 96 96 96
35 36 54 83 92 91 90 92 92 88 91 91 93 97 100 99 95 98 98 96 99 100 100 100 100 95 96 96 96 96 98 99 100 93 70 81 97 97 97 97 97 97 96
35 53 90 91 90 90 89 88 89 91 94 97 99 100 100 100 99 100 99 100 100 100 100 91 91 95 96 96 97 98 98 100 100 88 86 96 98 98 99 97 97 97 97
67 91 90 84 84 87 85 87 92 97 100 100 100 100 100 97 100 100 100 100 100 100 82 79 96 96 96 97 99 100 100 100 92 90 98 98 99 98 97 97 98 98 97
80 85 76 78 79 83 88 93 96 100 100 100 100 100 100 100 100 100 100 100 100 84 68 95 96 97 97 100 98 66 64 85 96 98 99 97 97 97 97 97 98 99 97
46 43 47 57 70 77 80 89 98 100 100 100 100 100 100 100 100 100 100 97 89 78 76 95 97 98 99 92 51 46 82 97 98 97 90 96 98 98 98 100 100 100 96

GFSGL_850_rhum_021.txt.gz
RH
52 58 59 58 55 52 47 41 31 15 9 8 9 10 15 19 22 25 28 32 34 39 43 47 49 51 54 54 58 60 60 62 64 66 67 75 77 69 71 74 72 76 70
59 61 60 57 54 48 41 30 14 9 8 9 12 17 22 24 27 31 34 36 38 44 48 51 53 56 59 63 63 64 66 69 70 76 83 79 72 76 82 82 75 73 68
64 62 58 54 49 45 40 21 10 9 10 13 20 25 27 29 33 37 38 39 47 53 55 57 61 64 66 65 67 73 73 78 89 90 87 78 80 89 85 73 61 58 69
64 61 56 52 48 42 29 14 10 11 14 22 27 30 33 37 39 39 38 44 56 63 66 66 67 66 65 69 72 80 91 95 86 92 84 89 91 89 82 74 69 75 82
66 62 58 52 44 29 13 10 11 16 23 29 34 39 40 39 37 41 48 64 70 76 74 70 65 64 67 72 74 85 94 94 92 89 99 98 91 85 80 77 75 82 82
68 64 57 46 32 14 11 12 16 23 30 37 41 42 41 40 44 56 69 79 85 83 78 70 67 65 64 68 79 80 91 95 91 100 99 98 94 82 76 84 89 96 92
66 59 49 36 19 11 12 16 24 32 38 41 42 42 42 42 50 60 75 89 91 81 74 69 68 68 71 76 79 87 87 84 96 92 96 98 83 79 92 100 100 100 95
59 50 39 26 12 12 16 24 31 38 42 42 41 42 46 46 52 64 83 91 85 80 75 73 73 77 75 88 92 96 87 91 84 78 84 90 90 95 98 98 97 97 99
54 42 29 14 13 16 21 28 36 40 39 39 41 44 46 46 54 70 86 88 86 83 81 80 84 94 86 89 95 96 93 85 77 82 89 85 85 87 90 95 95 100 97
48 40 18 13 17 21 28 36 38 38 39 42 46 45 44 50 61 76 83 88 89 89 90 90 85 83 88 96 95 92 95 84 97 93 89 86 89 88 97 94 96 98 100
47 29 14 17 21 31 37 38 35 39 45 46 44 44 51 58 66 74 82 87 92 95 94 94 92 83 95 94 78 90 86 95 95 92 87 88 94 98 97 95 96 97 98
38 15 17 20 32 37 37 38 42 47 46 43 46 52 61 64 70 77 82 85 86 97 96 96 89 98 90 77 81 81 87 88 83 92 98 99 100 100 94 94 90 92 96
16 18 20 30 36 38 39 46 48 46 46 48 56 66 73 80 82 82 85 86 90 92 94 91 97 87 78 81 83 86 88 90 97 98 99 100 94 95 94 95 93 91 93
18 20 29 36 39 41 49 48 47 46 54 64 72 85 91 91 91 88 91 96 96 89 96 97 82 80 81 84 87 89 92 96 97 96 96 93 94 96 96 96 96 96 96
20 27 37 41 45 51 49 47 49 56 69 83 90 94 96 94 90 89 92 94 94 97 95 92 86 86 90 91 93 94 96 98 96 96 96 96 96 96 94 95 96 97 97
25 37 43 45 50 49 47 49 52 64 71 76 84 89 89 90 90 90 91 93 97 91 94 91 90 96 96 97 98 98 98 99 96 97 96 96 96 96 95 95 96 97 96
36 43 45 46 52 53 57 59 63 58 69 72 76 80 84 86 88 90 91 96 93 88 92 94 98 96 97 98 100 98 98 96 96 96 96 96 97 97 97 95 88 91 93
44 45 48 53 47 52 58 66 72 72 73 74 74 77 81 83 87 91 95 94 84 84 95 97 98 97 96 99 96 97 96 95 95 95 97 100 100 100 100 92 88 96 94
47 47 48 42 42 59 67 71 74 76 77 77 77 77 79 83 91 95 95 92 96 97 96 96 93 93 95 97 98 96 96 96 98 99 99 96 95 96 96 95 95 96 96
48 45 46 48 50 65 74 76 78 79 81 83 83 83 85 94 92 87 92 94 96 96 93 92 95 96 96 97 96 96 96 97 98 98 96 95 96 97 96 96 95 96 96
44 42 46 56 72 78 80 81 81 84 84 83 86 87 90 94 92 94 92 94 95 95 96 97 99 96 96 96 96 98 97 98 100 96 96 97 97 95 97 97 97 96 97
40 41 54 69 80 82 81 84 82 82 84 86 90 92 95 94 94 96 95 97 99 100 100 100 96 96 96 97 97 97 99 100 96 96 98 98 97 96 97 97 98 97 96
38 48 78 82 80 77 76 77 77 80 87 91 95 96 94 96 96 98 100 98 99 100 95 88 96 96 97 98 99 100 100 96 96 97 96 96 98 96 97 96 96 96 96
46 82 83 79 74 75 73 75 81 86 92 97 98 98 98 99 100 100 100 100 100 92 80 94 97 98 98 100 99 87 96 96 97 97 98 97 97 97 97 97 97 98 97
65 76 70 67 68 72 77 81 86 91 100 100 100 100 100 100 100 100 100 100 92 86 74 95 97 98 99 72 67 96 96 98 98 98 97 97 98 98 97 98 100 96 93
60 52 53 62 69 74 80 82 89 96 100 100 100 100 100 100 100 100 98 93 91 78 81 97 99 100 68 60 96 96 97 98 97 97 98 97 97 100 95 94 93 98 100

GFSGL_850_rhum_024.txt.gz
RH
50 52 56 58 57 55 52 50 43 28 15 11 10 10 14 19 23 24 22 23 28 35 28 31 46 50 56 59 61 66 68 69 73 76 71 70 84 76 62 78 79 84 83
53 57 59 59 57 54 53 46 35 20 12 10 11 15 20 24 25 24 27 31 37 33 29 37 49 62 64 66 69 68 70 71 73 78 84 91 82 69 80 80 93 88 98
58 60 60 59 57 55 49 38 22 13 10 11 16 20 25 26 26 29 33 38 37 36 37 47 58 65 72 70 67 68 71 79 94 99 95 78 89 85 84 90 95 90 80
61 62 62 61 59 52 41 23 12 10 13 16 21 26 28 29 34 34 40 44 54 59 53 54 70 77 73 70 70 72 82 95 98 94 99 96 93 86 95 97 90 82 74
64 65 64 62 54 45 27 13 11 14 17 23 28 30 32 36 39 46 54 61 66 70 61 72 83 78 75 73 73 81 88 86 95 98 100 99 96 95 98 90 84 77 81
67 67 64 57 49 33 15 12 14 17 24 29 31 33 36 37 38 55 62 66 73 74 77 86 83 78 75 78 80 80 85 97 96 97 98 95 79 80 89 97 98 97 96
68 65 59 53 40 18 12 15 18 26 30 30 30 31 34 32 39 57 62 70 80 80 90 85 84 82 80 80 84 93 96 96 97 91 87 86 87 95 97 97 100 100 99
66 59 55 46 23 13 14 18 27 32 31 30 28 29 31 34 48 55 66 75 80 85 85 88 90 89 88 90 96 96 91 82 94 94 84 91 97 98 98 98 98 96 96
60 56 45 27 14 14 18 28 32 32 30 27 28 28 35 41 44 61 71 76 80 86 92 96 95 92 92 91 96 95 95 95 74 86 99 98 88 90 93 95 96 100 98
55 50 34 15 15 18 29 33 34 34 29 28 29 34 38 44 49 67 74 80 86 92 96 96 98 93 85 94 96 97 98 82 96 97 87 71 72 86 100 97 96 97 98
53 40 16 15 18 29 35 37 36 31 30 31 32 35 41 52 66 76 85 86 94 96 96 91 93 88 96 94 86 92 85 95 97 80 75 91 99 98 93 95 96 97 98
46 17 15 18 28 37 39 37 30 32 34 36 40 40 52 66 84 92 89 88 92 96 96 92 84 98 88 88 86 85 89 89 78 91 100 100 100 98 95 95 96 96 97
17 15 18 27 38 40 38 34 35 36 42 44 51 64 73 85 83 90 95 92 93 93 91 96 100 91 87 86 90 91 93 84 97 97 99 96 97 95 94 95 91 93 93
15 18 26 38 41 39 35 34 37 42 49 57 72 78 82 85 87 86 97 93 98 94 93 98 96 88 87 92 90 85 88 98 98 96 97 96 95 95 95 96 96 93 97
18 24 36 41 42 39 34 36 42 46 58 72 75 78 83 87 85 83 88 89 94 97 95 94 78 91 97 99 97 92 99 97 96 96 96 96 96 96 93 94 96 94 96
23 31 40 44 42 37 36 36 38 43 56 74 78 80 81 82 83 86 86 90 93 92 93 86 98 100 100 100 99 96 96 98 96 96 96 97 97 96 94 94 95 96 95
27 34 43 46 42 40 40 44 41 32 56 68 77 80 81 83 85 87 91 94 98 94 92 97 100 100 100 98 98 98 97 96 96 96 96 96 96 94 97 95 96 96 94
28 40 48 46 42 42 44 53 61 68 65 61 69 82 85 86 88 92 94 96 86 89 95 100 100 100 97 97 97 97 96 96 95 96 96 95 96 98 96 96 96 96 96
35 49 47 44 46 50 50 55 64 66 76 80 79 80 82 89 93 100 98 96 98 97 98 96 100 98 96 97 97 96 98 97 99 96 95 96 100 99 96 96 96 96 96
48 50 43 48 54 47 52 60 67 79 79 82 85 83 88 95 99 86 94 94 98 98 99 100 97 96 96 97 98 98 97 96 94 95 96 97 96 98 97 96 97 97 96
53 42 41 42 45 50 60 73 79 77 78 81 82 84 93 98 92 99 96 96 98 98 100 100 93 95 97 97 98 99 99 91 96 97 96 96 97 96 96 94 97 97 97
43 41 36 44 52 63 70 75 62 70 73 80 85 86 100 94 100 100 97 96 96 98 98 94 95 97 97 98 100 100 92 95 95 95 94 97 97 96 95 96 97 97 97
40 29 37 57 61 55 56 61 63 73 80 89 91 95 99 100 100 98 96 96 96 95 88 89 96 96 99 98 84 95 96 96 97 96 96 98 97 96 96 97 97 96 97
25 32 46 49 44 49 54 64 72 75 88 89 93 99 100 100 96 96 97 96 95 88 77 95 97 99 94 81 96 96 96 97 96 97 98 98 97 94 98 97 96 95 98
26 31 36 40 47 56 64 68 75 78 84 90 100 100 100 97 96 98 94 95 91 84 84 97 98 97 86 96 96 97 96 96 97 97 97 98 95 96 97 98 97 94 96
28 35 42 49 56 63 71 79 83 88 94 100 100 100 100 95 97 93 92 91 88 78 95 97 99 91 96 96 96 97 96 97 97 97 97 96 93 95 98 97 94 98 97

GFSGL_850_rhum_027.txt.gz
RH
47 50 53 55 57 57 57 57 50 38 25 16 11 11 15 20 24 24 22 21 22 24 29 35 35 30 36 51 59 72 73 74 75 71 72 71 73 71 75 74 93 84 84
51 54 56 58 59 60 60 53 39 26 14 10 12 15 22 24 23 22 22 22 28 38 42 45 45 38 53 68 76 75 75 73 78 83 79 83 82 73 88 87 94 93 91
53 57 59 60 62 62 54 42 28 14 11 12 17 24 26 23 21 19 23 39 46 52 60 60 56 59 70 81 82 82 80 86 96 98 94 85 87 96 89 98 91 82 88
56 59 61 64 64 57 48 32 16 11 13 19 26 26 23 20 20 23 39 48 58 61 61 64 63 67 88 89 83 84 95 91 88 87 91 97 89 99 93 85 74 76 87
59 62 65 66 60 53 40 19 12 14 20 27 28 24 20 19 22 38 53 63 63 64 67 72 71 84 88 84 84 86 88 93 97 98 100 96 97 84 83 84 89 92 98
62 66 66 60 57 46 22 12 14 21 28 28 25 21 21 23 25 41 64 64 65 71 75 78 79 87 88 85 86 87 90 97 95 98 98 98 89 90 94 92 98 98 94
66 68 61 58 49 25 13 14 23 30 30 26 22 23 25 22 21 52 63 68 72 74 78 81 87 89 92 93 87 92 91 97 98 96 96 98 100 93 94 97 97 100 99
68 62 58 53 34 14 14 24 32 32 29 24 24 26 24 23 32 58 68 74 76 79 82 90 95 95 93 94 96 98 96 92 90 96 94 96 97 97 97 98 98 100 100
64 58 55 41 15 15 25 33 34 32 25 25 26 24 28 33 43 69 81 84 78 85 80 89 100 94 91 89 94 97 95 89 71 88 100 98 92 92 95 96 96 100 97
58 55 44 16 15 26 35 36 34 30 27 27 26 29 35 44 51 87 92 88 90 80 85 83 94 89 85 97 97 97 96 76 96 97 86 70 68 82 100 98 96 98 100
56 47 17 16 26 36 38 37 32 28 28 29 30 30 42 54 60 90 93 91 93 96 89 92 84 92 98 88 89 89 90 96 96 81 77 87 95 98 94 94 96 97 97
52 20 16 25 36 40 40 36 29 31 32 29 31 42 59 70 73 75 92 90 96 96 97 86 90 98 89 89 91 94 93 96 84 94 100 100 99 92 93 95 95 96 96
23 15 23 33 40 42 40 34 31 32 31 31 50 67 74 76 77 74 88 93 90 90 91 100 100 93 92 89 97 100 99 90 94 98 100 98 96 95 94 94 92 95 93
16 22 28 36 40 44 40 33 33 31 30 55 73 77 80 81 83 82 91 89 92 95 94 95 85 88 94 92 85 88 95 97 97 96 97 94 94 95 95 97 96 93 95
20 24 30 37 45 45 36 34 34 29 47 70 78 83 84 84 83 86 88 91 95 95 94 87 80 96 91 88 91 94 97 99 97 97 96 95 95 96 95 95 95 95 100
22 25 31 42 48 41 36 31 21 28 40 58 78 86 86 87 89 89 89 94 95 95 96 95 100 99 100 100 100 97 93 96 96 96 95 97 97 97 96 95 96 96 96
24 27 38 49 45 37 35 28 33 35 43 42 61 86 92 90 91 91 94 94 99 100 97 98 100 100 100 100 99 98 97 94 96 95 97 96 97 97 100 97 96 96 95
27 37 49 49 38 38 33 38 45 48 47 42 48 66 88 92 93 94 97 98 82 94 100 100 99 98 98 98 97 98 95 93 93 96 96 96 97 99 97 97 96 96 97
33 48 52 40 37 32 38 42 46 55 60 56 51 55 73 96 98 90 86 93 100 100 94 93 94 98 97 97 97 98 97 96 98 97 96 97 99 98 96 98 97 96 97
46 54 42 37 26 32 40 43 52 62 57 58 61 70 87 97 90 79 88 100 100 94 92 95 91 97 97 97 99 99 95 95 95 95 97 97 97 97 97 97 97 97 98
56 43 36 22 28 40 46 47 56 55 59 64 67 77 99 100 86 96 100 96 93 93 95 93 93 96 97 100 100 97 98 97 97 97 98 97 98 96 97 97 96 97 97
43 35 21 26 36 42 45 50 51 56 61 69 77 75 94 85 98 100 96 92 91 92 90 92 97 98 100 99 97 97 96 95 95 98 94 93 96 97 97 97 96 97 97
31 20 23 29 37 40 43 48 54 61 72 78 81 81 87 97 100 93 92 90 91 88 81 96 97 97 97 97 98 98 96 96 97 97 95 95 96 97 98 97 95 97 97
21 23 27 34 40 46 50 54 60 67 78 84 86 90 97 96 91 90 90 90 89 80 88 97 99 98 96 97 97 97 97 97 96 96 98 98 97 97 96 98 95 98 95
23 26 34 41 45 50 55 60 68 79 84 89 92 99 92 88 87 87 88 89 88 77 94 98 97 96 97 96 97 96 96 96 98 98 97 97 95 97 97 94 96 97 98
27 33 38 44 49 55 63 74 80 86 91 88 89 89 88 86 86 85 88 89 81 82 96 96 97 97 97 96 96 96 97 97 97 96 96 95 93 91 92 97 97 97 99

GFSGL_850_rhum_030.txt.gz
RH
44 46 49 52 55 57 58 59 54 41 29 18 12 12 15 22 23 20 19 19 22 28 32 37 47 51 45 42 48 63 76 82 92 80 74 77 85 81 84 93 97 95 95
46 50 53 56 58 60 62 56 44 30 17 12 13 17 24 22 19 18 20 22 28 33 42 54 58 58 57 52 59 76 81 81 92 98 81 84 83 73 89 92 98 97 95
49 53 56 58 61 63 58 49 35 18 12 13 20 25 23 20 18 18 20 25 29 47 57 62 64 68 65 63 84 86 86 95 96 92 90 75 81 84 88 100 95 76 78
52 56 58 62 65 60 54 39 19 13 14 22 26 25 22 20 19 18 20 30 45 56 62 65 70 75 72 89 91 92 98 96 96 99 97 99 91 91 96 87 84 81 78
54 57 61 66 62 57 43 22 14 14 24 28 27 23 20 20 18 18 41 60 59 58 66 72 78 76 90 88 91 95 95 96 96 97 98 96 97 90 89 88 89 89 93
55 60 65 63 58 47 26 14 14 25 29 28 24 22 21 20 19 30 64 66 62 72 75 78 73 79 91 92 92 91 92 96 86 97 97 100 94 94 93 91 98 98 99
59 64 65 58 52 33 16 15 27 31 30 26 23 24 22 20 21 32 56 63 72 76 78 75 76 91 87 84 89 90 86 96 97 94 93 93 99 90 98 98 100 100 100
62 66 58 54 43 18 15 28 34 32 29 25 25 25 23 22 25 26 35 63 71 71 74 77 96 87 88 89 95 94 96 76 78 86 93 97 98 97 98 98 98 98 96
65 61 57 50 21 15 28 36 36 32 27 26 27 25 24 23 28 33 87 82 80 78 74 96 96 94 90 94 97 94 96 85 67 85 100 98 95 96 99 96 95 100 98
65 58 53 26 15 28 37 39 38 31 28 29 24 21 24 28 34 50 92 89 90 79 94 89 96 93 92 99 94 98 94 73 98 99 83 68 69 78 100 98 96 98 100
58 56 31 15 26 37 40 41 37 31 29 25 19 19 22 34 48 74 92 91 91 98 90 96 85 95 98 88 90 93 93 96 94 80 74 80 86 90 92 95 97 97 97
57 36 16 24 36 40 42 42 35 31 27 20 20 21 29 39 59 68 92 89 95 91 97 84 92 98 93 95 96 100 100 99 84 87 96 99 96 94 94 95 95 95 96
43 16 22 31 38 43 45 40 32 29 20 20 28 40 49 58 68 77 96 91 89 93 88 97 100 98 88 70 87 100 100 91 95 98 100 94 95 93 92 94 90 95 93
17 20 26 33 40 46 46 36 32 23 21 29 41 57 66 72 80 92 97 83 97 95 98 95 82 74 66 81 78 82 88 100 99 97 96 91 92 92 93 97 96 94 95
18 24 28 35 44 48 42 35 28 22 28 49 59 76 83 87 92 92 89 92 94 96 94 87 70 74 73 81 83 89 93 98 98 95 94 95 92 95 93 92 95 95 97
22 26 30 39 49 47 37 30 21 24 25 28 33 63 76 92 94 94 92 95 95 100 98 81 84 89 93 96 99 99 94 94 95 94 93 94 96 98 97 94 93 97 96
25 27 34 47 50 40 34 26 28 21 24 26 34 44 77 92 97 95 96 98 86 98 85 88 93 94 97 98 100 100 96 91 95 93 96 96 97 95 98 94 94 97 92
27 31 44 52 42 36 27 30 31 33 33 33 42 50 57 77 98 99 100 94 70 72 88 93 93 92 97 100 99 98 94 92 92 93 96 98 96 98 96 95 96 97 96
31 42 53 45 36 26 31 30 30 33 36 42 45 47 57 77 100 88 75 81 89 89 91 90 88 95 98 99 98 96 96 95 96 96 95 97 97 97 96 94 97 97 98
39 54 46 35 22 25 27 29 32 38 45 48 50 59 76 99 88 72 75 84 90 92 92 88 88 96 99 99 96 96 94 94 95 95 96 96 97 97 98 96 97 97 97
57 46 34 22 24 27 30 32 40 48 52 55 58 64 100 100 81 81 84 86 91 91 90 86 95 98 98 96 96 96 96 95 97 97 98 98 98 96 96 98 97 98 97
45 32 20 21 23 26 31 40 46 52 56 64 66 68 79 78 79 83 84 86 87 88 84 95 97 97 97 97 96 95 94 96 96 97 98 99 98 97 96 98 95 98 97
27 20 20 22 26 31 37 44 51 58 67 72 76 79 79 80 81 81 83 84 86 82 79 96 97 95 96 96 96 97 96 97 97 97 98 96 96 97 98 98 95 98 92
20 21 22 25 30 39 47 53 60 66 74 77 79 82 82 82 81 79 80 84 84 74 85 96 97 97 96 96 96 97 97 97 95 95 98 98 98 96 97 98 97 98 98
21 22 24 29 37 47 54 60 68 73 74 79 82 82 82 82 79 78 80 83 80 74 91 95 96 96 96 96 96 97 96 96 98 98 97 96 95 95 96 100 95 96 97
22 24 28 36 45 55 64 71 73 76 80 81 80 81 83 83 81 76 80 81 74 88 92 94 96 97 97 96 96 96 97 99 97 96 98 93 91 94 96 97 97 96 96

GFSGL_850_rhum_033.txt.gz
RH
47 45 45 48 52 54 57 60 58 49 36 24 15 13 14 20 22 18 16 15 15 16 18 33 41 51 54 62 63 59 72 81 96 76 66 70 68 72 74 82 89 95 91
46 46 49 52 55 57 61 60 52 41 26 16 14 15 22 22 18 17 16 15 15 20 30 44 51 59 68 72 71 78 81 81 99 96 82 70 69 64 74 97 100 96 95
46 49 52 55 58 62 61 56 46 28 16 14 17 24 23 20 17 17 16 16 21 32 45 52 63 72 75 76 83 84 92 99 100 100 98 94 90 95 92 99 89 83 77
48 51 55 58 62 63 59 50 32 18 14 19 26 25 22 18 18 17 17 24 33 44 50 62 69 74 73 89 90 94 98 96 90 97 100 100 100 97 88 83 80 81 78
50 54 58 61 64 60 53 37 20 15 20 28 27 23 20 19 18 18 22 35 49 52 64 61 60 64 83 90 91 88 92 95 98 100 98 98 97 83 83 85 95 96 97
52 56 60 64 61 55 42 27 15 22 30 29 26 22 20 19 17 16 23 47 50 51 50 52 60 67 79 91 93 93 93 93 97 97 91 90 86 90 87 100 100 98 97
53 57 63 62 58 49 32 17 23 32 32 29 25 23 21 19 17 20 33 67 47 52 59 65 70 84 82 84 88 94 97 96 95 96 91 90 97 93 98 96 100 100 100
55 60 64 59 54 40 18 23 34 35 34 29 25 24 21 17 20 25 46 42 54 64 69 76 93 85 89 94 95 98 81 79 75 83 96 96 98 97 98 100 99 99 99
58 63 61 56 48 21 22 34 37 38 35 30 27 24 18 18 26 26 29 62 77 79 81 97 97 95 94 96 96 96 95 78 70 90 100 99 91 95 100 96 94 100 100
62 63 58 52 25 19 33 38 40 40 36 30 26 19 20 23 24 26 80 86 87 83 99 93 96 95 93 99 96 97 96 77 97 97 78 71 70 76 95 97 96 98 100
64 58 54 32 18 31 37 40 43 40 34 29 19 17 18 20 24 34 89 91 86 99 84 88 81 94 97 92 93 95 93 96 94 83 77 78 85 84 82 88 96 97 96
60 56 36 18 28 35 38 44 44 38 31 21 17 15 15 21 32 44 94 93 91 86 96 87 91 98 95 96 91 100 100 100 83 89 91 94 86 85 84 87 89 94 96
57 39 18 24 32 36 42 46 43 34 24 19 20 22 26 30 42 61 92 96 90 93 95 96 98 97 79 58 72 100 100 89 100 97 96 89 90 88 86 90 87 89 88
46 18 22 29 33 39 46 46 38 29 21 20 24 33 35 43 58 88 97 87 97 98 97 94 82 69 61 70 76 78 86 99 100 99 97 90 91 88 88 94 95 92 93
18 21 26 28 34 44 48 42 34 24 24 30 37 45 59 71 87 96 94 95 95 95 98 87 69 67 66 80 82 86 90 94 98 95 95 94 92 93 90 92 96 95 97
20 24 26 31 42 49 45 37 26 23 22 24 28 38 54 67 95 97 95 96 98 100 95 77 75 75 86 92 94 94 91 93 95 96 93 96 98 98 94 92 94 98 98
23 25 29 39 50 47 38 25 21 15 17 21 29 38 42 46 91 99 99 100 86 84 78 79 80 83 93 96 98 100 96 93 97 95 97 96 98 95 95 94 96 95 95
26 29 36 50 49 38 25 23 26 26 29 28 33 42 46 50 93 100 100 87 66 69 79 84 82 89 95 99 99 99 94 92 94 92 97 98 97 99 95 95 98 97 97
29 35 50 50 38 24 22 24 25 29 32 36 40 44 53 60 98 79 71 74 81 79 83 83 83 94 98 99 98 96 96 96 97 97 96 97 97 98 94 94 98 95 100
35 52 52 38 22 20 21 24 28 32 37 43 48 58 67 95 82 71 70 78 81 82 86 83 87 96 98 99 96 95 93 94 96 96 96 96 96 97 97 96 99 98 98
56 52 36 20 19 21 24 28 34 40 45 50 58 65 94 100 81 75 77 78 80 83 86 83 94 98 98 96 97 94 95 96 98 97 96 96 97 96 96 97 98 98 98
52 33 20 19 21 23 27 34 38 44 51 61 67 66 69 73 76 79 79 76 78 83 83 90 98 97 97 97 97 97 96 98 97 97 97 98 98 95 96 96 97 98 97
29 19 20 21 24 27 31 37 45 54 64 70 72 70 72 77 79 80 76 74 78 79 79 98 96 93 96 97 97 97 96 97 97 96 97 96 96 96 97 98 98 97 99
20 20 21 23 26 32 41 48 57 66 72 73 72 73 76 77 79 77 74 76 78 72 93 96 96 97 97 96 97 97 97 96 95 95 98 98 98 99 98 97 98 98 98
21 22 23 26 34 44 53 59 65 71 71 71 69 70 74 76 78 76 75 76 74 81 94 96 97 96 97 96 97 97 96 97 99 97 97 98 97 100 100 99 96 96 95
23 23 27 36 45 53 62 67 70 72 69 65 68 72 78 80 79 77 74 75 72 92 95 96 96 97 96 96 96 96 96 98 96 96 97 97 95 95 98 97 94 89 86

GFSGL_850_rhum_036.txt.gz
RH
56 47 43 44 46 51 53 56 59 57 50 42 31 19 15 18 22 20 16 16 14 14 16 22 26 36 43 56 70 78 77 85 90 64 73 64 69 73 65 77 96 100 92
54 46 45 46 51 54 57 60 59 54 48 35 20 16 20 23 20 18 16 15 14 16 21 27 32 43 56 66 72 74 85 84 100 94 83 81 75 59 83 100 96 75 66
50 46 48 51 54 58 61 61 58 51 37 22 17 21 24 22 19 17 17 16 17 21 29 35 42 53 57 58 81 88 92 98 98 99 96 91 78 100 97 79 74 74 74
48 47 50 54 57 61 62 60 53 41 25 17 22 26 25 22 19 18 17 16 17 22 27 35 42 51 58 86 96 96 98 87 86 95 100 97 97 82 82 77 82 82 87
48 50 54 57 61 62 61 55 42 28 19 24 29 28 25 22 21 18 16 19 25 28 35 44 58 63 72 96 96 94 94 93 96 98 97 98 95 87 83 83 99 95 97
49 53 56 60 63 62 57 45 29 20 25 31 32 30 26 24 20 16 17 26 28 44 52 61 64 71 76 92 94 97 95 97 97 94 95 100 89 91 86 100 99 100 97
51 55 58 62 62 58 48 32 21 26 32 34 34 31 28 23 17 14 14 22 47 58 64 68 74 82 76 81 84 100 98 96 92 94 92 90 99 92 99 97 98 100 100
52 55 60 62 59 52 38 24 25 33 36 38 36 31 26 18 15 14 18 31 60 65 68 77 89 82 87 95 96 98 86 78 74 81 96 96 97 97 99 100 98 98 98
53 57 61 60 54 42 25 24 33 37 40 40 35 30 20 15 15 16 21 62 67 75 78 94 94 94 94 98 97 97 93 77 70 91 100 100 89 86 99 96 91 100 100
55 60 60 53 43 29 23 32 37 40 42 39 34 22 16 16 18 21 55 82 90 84 95 88 88 99 96 100 95 97 94 75 97 99 82 73 70 72 80 94 100 97 100
57 59 54 48 34 22 31 36 39 42 42 37 27 17 15 17 20 27 41 94 93 97 90 89 90 97 97 95 96 94 92 96 94 86 74 74 78 81 82 86 94 97 96
58 55 51 38 22 30 34 37 42 44 40 30 19 15 14 17 25 32 57 96 94 92 95 92 93 98 98 98 88 98 100 100 83 81 84 87 87 84 84 85 88 92 96
58 54 40 22 27 31 34 40 44 43 34 21 17 16 19 22 28 36 66 96 93 93 95 99 100 97 69 59 68 98 92 84 91 92 95 89 90 88 84 87 85 90 87
56 43 22 24 28 31 37 43 45 38 23 20 21 26 27 29 34 66 96 90 94 97 98 94 75 67 62 68 75 76 82 89 100 100 99 91 92 88 87 91 94 94 93
44 21 23 26 28 33 42 46 42 26 24 27 30 36 45 44 66 96 95 93 96 93 99 77 67 64 63 79 79 82 87 91 98 97 96 94 92 91 89 91 95 95 97
19 22 25 26 30 38 47 45 28 22 21 22 28 34 37 42 80 98 99 98 100 100 85 72 70 70 80 88 90 89 88 92 96 97 93 95 96 96 98 93 93 98 98
21 24 25 27 36 49 43 26 18 16 19 23 28 32 36 40 50 99 100 100 75 67 70 74 77 76 88 91 94 96 95 92 97 96 96 96 96 98 98 97 96 97 92
22 24 27 38 51 43 25 21 23 25 25 22 25 35 41 46 52 100 100 77 61 64 75 81 78 81 92 94 96 99 95 92 95 93 95 97 97 98 98 98 97 98 97
25 28 40 53 43 24 20 22 24 26 28 34 37 40 50 54 68 77 72 70 72 74 79 79 76 87 94 97 97 97 97 96 96 97 96 96 97 98 97 97 98 96 99
31 43 55 41 22 20 21 23 25 28 37 42 47 55 59 81 80 68 67 71 76 77 81 76 79 94 97 98 97 97 95 96 96 96 96 97 98 99 98 97 98 98 97
49 56 36 20 20 21 23 25 31 40 47 51 55 60 78 100 76 71 73 76 76 77 80 76 92 96 97 98 97 97 96 96 98 99 98 96 97 96 97 98 99 98 99
53 31 20 19 21 22 25 32 41 48 54 58 60 62 64 64 67 73 77 74 72 77 77 93 95 96 97 97 97 98 97 99 98 98 96 94 98 98 98 97 98 99 98
27 20 20 22 23 26 30 39 48 55 60 63 66 62 61 65 69 77 77 71 72 72 82 96 96 94 97 99 99 100 97 97 97 96 93 95 97 96 100 99 99 99 98
20 21 22 23 26 31 40 49 55 62 66 65 62 60 62 74 79 78 73 70 71 70 95 95 97 99 98 96 99 97 97 97 97 95 98 98 98 98 95 98 99 94 99
21 22 23 26 31 42 50 55 62 67 66 63 62 59 73 83 80 74 71 72 69 86 92 97 98 97 96 96 98 96 96 96 98 96 97 97 98 100 100 98 98 86 88
23 24 27 32 43 53 60 65 68 69 65 66 67 68 85 84 78 72 72 71 74 92 97 97 97 98 97 98 95 96 97 94 96 94 96 97 97 97 94 99 97 90 88

GFSGL_850_rhum_039.txt.gz
RH
87 90 78 57 44 44 48 52 54 57 56 53 44 30 20 18 21 21 19 17 16 15 16 18 20 26 29 34 40 46 55 75 90 60 87 84 91 88 90 96 100 100 94
85 70 53 44 44 49 52 56 58 58 56 47 33 22 19 23 23 21 19 18 17 16 16 18 22 28 28 33 38 47 66 89 95 93 90 91 80 93 98 100 94 85 89
61 50 45 45 49 53 56 59 58 56 48 38 24 20 25 26 24 22 20 18 16 16 19 25 30 35 38 43 57 86 93 100 100 99 92 68 99 100 98 85 82 82 88
50 46 46 49 53 57 59 60 56 49 42 27 22 27 29 28 26 24 21 17 15 17 21 31 36 45 54 67 98 100 100 97 92 98 93 97 98 84 80 88 89 88 94
48 47 49 53 57 60 60 57 50 42 31 24 29 31 31 30 28 24 17 15 16 20 27 33 42 54 68 97 97 96 94 96 91 96 97 94 88 90 90 92 99 98 96
48 49 53 56 59 60 58 52 41 31 26 30 33 34 34 32 27 19 14 16 20 31 34 36 53 70 76 99 97 100 97 94 97 100 93 98 88 92 91 100 100 100 98
49 52 56 59 60 59 53 44 34 27 30 34 37 38 35 30 21 15 14 19 24 28 33 56 76 81 80 87 88 100 98 98 96 97 93 93 98 91 99 97 96 99 100
51 55 58 60 60 55 47 37 28 30 34 38 39 38 34 23 16 14 15 17 23 34 54 73 83 83 92 97 95 95 94 81 97 97 98 97 97 97 98 100 96 96 94
53 56 58 58 56 49 39 32 29 34 38 40 39 36 27 17 14 15 16 22 39 62 73 83 89 97 99 92 95 95 98 97 71 91 99 100 87 83 93 98 98 100 100
54 56 58 56 50 43 34 28 34 37 39 40 39 29 18 15 15 16 22 60 93 96 95 98 96 100 96 99 96 96 98 82 96 100 86 73 73 73 78 98 100 96 100
54 57 57 53 47 42 27 32 35 38 41 41 35 20 15 16 16 19 26 93 99 99 95 94 98 98 99 96 96 98 94 97 99 83 77 75 77 83 84 86 93 97 96
56 58 56 54 41 26 30 32 37 41 43 37 22 15 14 14 18 24 38 97 97 95 97 98 94 100 97 98 85 84 100 100 86 84 84 83 88 85 84 85 86 88 92
57 58 54 41 25 28 30 34 40 44 38 23 17 15 15 16 20 29 60 95 96 98 96 97 100 96 64 58 64 82 82 84 90 96 99 91 90 88 85 86 84 86 79
59 55 42 24 26 28 31 38 45 40 24 18 17 19 19 22 30 60 95 90 91 95 94 95 73 63 61 60 74 78 84 90 100 100 99 95 93 92 88 91 91 89 87
55 41 22 24 26 30 38 46 42 25 20 20 22 24 33 41 60 98 98 94 96 95 100 78 63 62 59 76 80 83 86 91 94 95 96 95 92 92 85 88 94 94 95
38 21 23 26 29 37 47 44 25 18 18 20 22 27 32 40 74 99 100 100 100 100 88 67 66 68 74 88 90 89 88 91 94 96 94 96 96 94 93 91 95 97 95
20 23 26 29 37 48 45 23 16 16 18 19 23 30 37 42 51 98 100 100 83 65 64 65 70 73 84 92 95 95 94 95 97 96 96 94 96 96 96 94 95 97 93
24 26 29 36 50 42 21 18 19 20 20 19 23 34 38 42 45 98 99 71 59 60 64 70 72 77 92 95 95 98 96 95 96 94 95 97 97 97 95 95 96 98 95
25 28 39 53 39 20 18 20 21 23 26 31 34 36 46 49 50 60 66 69 67 63 67 71 73 91 96 99 100 98 98 96 96 96 95 96 97 98 94 96 97 96 100
30 42 55 34 19 19 20 21 23 27 33 38 45 53 54 68 61 57 61 69 69 67 72 72 85 94 98 98 96 96 96 95 96 96 96 96 96 97 96 96 97 98 98
49 54 28 18 19 20 21 25 30 36 43 48 54 56 60 83 62 62 68 71 70 70 74 78 93 95 98 98 99 98 96 96 97 97 96 96 97 97 98 98 98 98 98
46 25 18 19 21 22 25 30 36 44 52 57 58 54 54 55 65 72 74 70 68 73 76 96 95 97 98 98 97 96 95 96 97 98 96 96 97 97 98 96 97 97 98
22 19 20 22 22 24 26 36 44 52 59 62 60 58 57 63 75 78 73 68 70 69 92 98 97 96 98 98 98 97 97 98 98 99 99 95 95 97 97 98 97 93 96
20 21 22 22 23 27 37 44 53 62 66 64 62 66 63 76 81 78 72 70 68 82 96 96 98 99 98 98 97 97 98 98 96 96 98 98 97 97 95 98 96 92 92
22 22 22 22 28 38 45 53 61 66 69 68 70 69 71 84 84 77 74 70 76 92 92 97 99 98 98 97 97 98 94 91 99 98 97 96 96 97 96 97 94 94 90
22 20 21 29 40 48 56 62 66 71 72 73 72 72 82 88 84 78 76 83 95 92 96 97 96 98 97 96 94 93 95 98 96 96 95 96 96 96 95 96 93 92 91

GFSGL_850_rhum_042.txt.gz
RH
82 84 93 91 80 82 60 47 48 52 54 53 50 40 29 21 21 22 22 21 20 19 18 18 18 23 36 53 60 63 66 65 65 62 67 71 77 74 69 77 82 83 76
89 93 89 87 83 56 46 49 53 55 54 51 43 31 23 23 25 25 24 23 22 19 18 18 24 38 30 50 63 66 69 76 78 81 80 84 76 76 84 88 79 67 70
86 90 91 69 46 45 50 54 55 55 53 47 36 25 25 27 28 28 27 24 21 18 20 21 22 30 51 64 72 79 82 81 88 93 89 79 81 88 87 80 77 74 74
89 82 60 46 46 50 54 56 56 53 48 40 29 27 29 30 31 31 27 22 20 21 20 20 31 48 71 76 82 81 80 85 80 83 88 85 98 89 80 75 72 76 84
74 53 46 47 51 55 56 56 54 48 41 32 28 30 32 34 33 30 22 26 30 31 29 39 59 62 48 84 95 91 89 89 90 87 98 99 88 80 70 76 87 89 90
50 46 47 51 55 57 56 54 48 41 34 29 31 34 36 35 32 25 18 16 35 37 50 60 70 80 86 95 95 95 97 100 96 100 100 93 76 72 82 89 95 99 99
48 48 52 55 57 56 54 48 42 36 31 31 34 36 36 35 29 20 14 14 31 45 62 71 76 80 91 90 92 94 96 96 100 94 93 77 80 85 90 93 98 95 100
49 52 55 56 57 54 49 42 37 32 31 34 37 37 37 32 21 15 13 17 47 72 77 82 87 88 87 90 91 94 95 92 84 86 85 90 95 94 98 97 96 96 94
52 54 56 57 56 51 45 38 34 31 34 37 38 38 34 22 15 14 14 30 71 78 82 83 88 87 90 93 96 94 88 82 81 86 98 100 100 100 100 97 94 100 99
54 56 56 55 52 46 40 42 31 34 36 38 39 36 23 16 14 14 16 38 78 79 81 82 82 90 93 95 98 92 91 81 87 93 96 90 94 98 100 100 96 98 100
55 56 56 52 48 55 33 30 32 35 37 40 38 25 16 15 15 16 19 60 88 87 83 79 83 91 94 95 96 95 93 99 99 99 94 97 100 100 100 100 100 100 100
55 57 55 50 42 34 29 30 32 36 41 40 26 16 18 19 22 20 25 71 97 92 87 90 92 96 95 97 93 92 100 100 100 99 100 100 100 90 87 86 83 84 89
56 55 50 46 35 27 29 31 36 42 41 24 16 17 24 25 33 39 49 95 92 93 92 95 97 96 78 55 72 87 85 100 100 100 100 100 95 92 86 84 80 84 84
55 51 48 35 26 28 29 33 42 42 24 18 32 44 40 51 63 73 88 91 91 95 96 96 96 81 83 77 84 93 100 100 100 100 100 100 100 100 91 93 96 91 92
54 50 34 25 26 28 32 43 42 24 18 19 23 22 42 66 74 94 97 97 97 97 98 94 87 84 92 95 99 100 100 100 100 100 100 98 96 97 88 90 96 100 98
52 30 24 26 27 31 44 42 22 18 18 19 18 22 26 36 62 99 100 99 100 99 95 90 90 98 99 100 100 98 94 95 98 98 95 97 97 95 96 93 93 96 99
24 22 24 26 32 48 38 20 17 19 18 16 19 23 31 40 46 85 100 100 80 56 86 99 100 100 100 100 99 96 93 93 97 96 96 94 96 96 94 94 96 98 95
22 23 26 37 50 33 19 18 18 18 16 15 18 31 38 42 43 96 92 48 60 81 100 100 100 98 99 98 96 95 92 92 95 95 95 97 96 97 96 96 97 98 98
24 29 44 50 30 18 18 19 19 19 20 26 34 40 44 41 40 46 50 61 76 100 92 89 88 91 94 96 96 96 96 96 96 96 95 96 96 97 95 95 95 94 100
33 51 48 26 18 19 20 19 19 20 28 40 51 57 54 65 60 53 62 78 96 80 75 72 84 93 98 99 98 98 97 96 96 96 96 96 96 97 96 96 96 99 97
54 44 23 18 19 20 19 19 22 33 43 48 51 52 54 59 60 73 78 90 80 70 69 81 93 96 99 98 97 98 98 96 96 96 96 96 96 96 97 97 98 100 100
36 22 19 20 20 19 19 24 36 43 49 54 54 52 56 58 69 76 77 74 71 71 80 96 95 97 97 96 97 97 96 96 96 97 96 96 96 97 98 96 96 100 100
20 20 21 21 19 18 25 37 44 50 54 58 60 60 62 64 76 80 79 74 70 78 96 98 97 96 97 98 98 97 97 96 97 97 97 98 94 96 97 98 100 100 96
20 22 21 18 18 26 36 43 49 55 59 62 64 66 68 71 82 83 80 76 86 96 97 98 98 98 97 97 97 97 97 98 98 95 97 98 98 98 97 98 99 95 92
22 21 18 19 27 36 42 49 55 59 63 68 69 70 68 77 85 85 86 96 97 97 96 98 98 97 98 97 97 97 98 96 98 98 97 96 96 96 99 100 97 91 93
21 18 19 27 37 44 51 56 60 63 67 72 73 75 70 82 87 87 92 96 98 97 96 96 98 98 98 97 96 98 98 99 97 94 93 93 94 96 96 94 93 94 94

GFSGL_850_rhum_045.txt.gz
RH
82 78 78 92 93 94 87 70 62 60 48 50 50 50 45 37 27 22 23 24 24 24 25 26 24 27 33 41 48 53 58 62 65 65 71 74 76 78 79 74 79 74 77
72 74 84 96 92 85 62 70 60 49 51 50 49 46 38 30 25 24 26 27 27 27 26 27 30 41 42 46 53 59 63 67 74 76 78 82 83 80 80 84 83 89 69
74 83 91 87 77 66 76 67 52 52 52 49 47 41 33 26 26 28 30 30 28 30 32 36 36 42 50 57 61 69 73 78 78 79 82 81 81 85 91 95 78 75 72
78 83 77 68 74 76 52 51 52 52 51 49 43 35 29 27 30 32 31 30 30 32 39 44 46 50 57 67 69 83 87 84 88 90 83 84 96 99 89 79 73 75 82
81 77 75 73 56 49 50 52 52 52 49 45 38 30 28 32 33 33 30 25 22 29 33 43 54 60 63 81 91 91 92 90 88 84 99 99 99 88 84 75 80 90 80
80 76 59 50 48 51 53 54 52 48 45 41 32 29 32 34 34 33 28 20 15 21 42 40 52 62 69 79 89 89 88 93 96 98 94 100 96 84 81 87 88 100 98
70 58 56 50 52 53 54 52 48 47 43 34 30 32 35 35 34 29 20 14 14 30 41 58 68 72 80 84 85 85 89 90 93 92 97 90 88 86 84 87 99 99 100
55 57 52 53 54 54 53 49 47 44 35 30 33 35 36 36 31 19 15 14 18 38 62 72 77 78 82 84 87 91 86 87 92 87 87 88 85 90 97 98 98 90 87
56 57 54 54 55 53 50 46 54 48 30 32 34 36 37 30 21 15 14 14 26 51 70 73 76 82 79 87 93 92 94 89 83 84 90 96 100 97 95 94 86 97 96
69 54 54 54 55 51 47 86 45 30 32 33 35 38 33 20 18 16 15 17 36 69 72 79 78 79 86 92 95 98 92 91 88 86 90 90 92 87 98 97 96 97 95
54 54 55 54 50 67 82 35 29 30 32 34 39 32 25 24 24 23 20 22 69 88 87 86 85 90 92 92 94 94 95 96 94 94 93 92 89 96 100 100 100 100 97
55 56 56 69 94 53 35 28 29 30 35 40 34 22 32 46 47 48 40 70 94 95 91 89 89 96 95 94 96 97 99 100 94 95 95 97 100 100 98 94 90 92 99
61 74 76 61 45 35 27 28 29 34 41 32 22 28 34 38 47 60 73 88 93 93 91 94 95 95 95 88 90 99 100 95 96 95 97 98 97 93 89 86 87 92 95
61 54 51 47 34 26 26 28 36 43 29 19 23 26 25 34 51 65 57 79 89 90 92 92 97 92 82 86 88 88 91 95 100 97 94 92 94 93 89 92 99 93 100
56 54 48 32 24 25 27 38 43 29 18 18 18 17 22 30 46 63 87 94 97 96 99 87 75 79 82 85 89 89 90 94 96 96 97 97 96 96 88 90 94 99 100
56 46 29 24 25 30 41 43 28 18 18 18 17 19 23 30 42 51 87 100 100 100 88 81 86 88 90 92 95 92 92 95 99 99 98 99 100 98 95 93 96 100 100
43 25 23 25 30 44 42 22 18 21 22 25 27 22 29 35 39 48 99 95 56 86 87 92 92 93 95 98 97 96 95 93 98 97 97 96 96 96 97 94 97 100 100
22 23 25 33 46 39 20 18 19 20 20 22 34 42 43 38 41 96 98 62 66 73 91 92 89 86 93 95 97 97 95 94 96 94 94 96 96 97 96 96 99 100 100
23 27 38 48 32 19 19 20 19 19 19 29 36 39 45 41 44 78 80 77 82 85 88 78 80 91 94 97 98 98 98 96 96 96 95 95 96 97 94 95 98 99 100
29 44 47 26 19 20 20 19 18 19 29 37 43 54 59 54 52 53 63 72 80 80 77 76 89 95 98 98 97 98 95 94 95 96 95 96 96 98 97 97 100 99 96
50 41 24 19 20 20 18 17 20 29 35 39 49 58 75 75 62 67 71 78 79 74 75 93 94 97 99 99 98 98 96 94 97 97 96 96 96 96 96 98 99 94 99
35 23 20 21 20 18 17 20 29 36 44 55 58 57 58 59 64 71 77 77 76 86 99 98 97 99 98 98 97 97 95 96 97 97 96 96 96 96 98 97 96 98 99
22 20 22 21 18 16 20 30 38 46 52 56 61 63 62 64 65 76 80 80 94 98 98 98 98 97 97 98 97 98 97 98 98 96 96 97 97 95 97 97 99 99 100
21 22 21 18 16 20 29 37 44 53 59 61 64 66 66 64 67 80 80 90 97 98 98 99 99 98 97 97 96 97 97 97 96 95 97 97 97 96 97 98 96 100 100
23 21 19 18 21 29 36 44 52 56 59 62 67 68 68 65 73 82 82 93 96 97 98 99 97 96 97 98 95 98 97 97 98 97 96 96 96 96 99 97 100 98 98
22 19 18 20 27 36 44 50 55 60 63 68 71 72 72 68 79 85 90 96 98 96 96 97 97 98 98 96 93 97 96 97 99 92 89 91 95 95 100 100 96 95 92

GFSGL_850_rhum_048.txt.gz
RH
88 89 93 94 92 90 98 100 99 84 66 53 54 54 48 47 43 35 26 23 24 26 27 27 26 26 26 24 28 35 42 54 64 60 63 77 80 81 75 80 68 80 86
88 91 94 90 88 97 98 94 77 62 57 53 48 49 45 44 38 29 25 25 27 28 28 28 27 28 25 28 38 47 58 62 70 79 84 85 88 76 71 77 82 76 71
88 89 84 82 95 92 87 73 63 62 54 55 50 47 46 39 30 26 27 29 29 29 29 28 28 30 29 38 48 55 59 63 75 87 85 81 74 77 85 85 76 74 80
82 76 78 86 84 82 64 63 66 60 59 55 45 46 41 33 28 28 30 30 30 27 24 28 30 37 47 57 62 70 85 90 91 86 91 91 97 98 92 95 87 84 76
71 75 74 70 67 63 63 63 68 56 49 45 48 44 35 28 29 30 32 31 27 20 17 19 31 42 50 69 80 82 89 92 90 97 100 100 100 100 99 92 92 84 73
70 64 60 59 62 67 66 56 50 52 51 50 47 36 29 29 32 32 32 28 19 16 16 21 31 41 51 76 84 88 87 89 92 88 97 100 98 94 95 95 84 82 100
58 56 59 63 58 52 53 54 50 49 51 49 39 30 30 31 33 33 27 18 16 15 18 30 46 58 66 75 82 86 87 93 93 96 94 91 95 94 94 89 89 100 100
59 54 53 53 60 55 49 49 50 54 54 38 30 30 32 33 34 27 18 16 15 15 20 38 67 73 77 84 83 91 96 86 83 94 96 95 95 93 97 98 98 99 81
52 57 66 70 58 48 48 54 56 61 44 36 31 32 34 36 29 19 17 16 14 16 25 45 58 77 83 86 91 86 87 86 86 83 96 100 100 100 100 98 91 96 90
79 80 76 76 70 64 52 72 73 55 30 30 31 36 36 27 22 23 19 18 19 23 31 51 70 90 91 92 91 97 99 88 85 94 86 76 73 78 81 89 99 97 98
90 90 93 72 47 63 93 81 51 28 28 30 36 36 25 27 27 28 32 35 47 74 90 86 87 94 94 92 92 94 94 95 96 90 81 77 78 80 83 86 95 100 99
72 52 47 55 92 97 57 30 27 27 30 38 36 23 23 30 34 34 63 78 87 91 92 94 89 95 95 94 95 93 97 99 90 87 90 87 89 87 87 86 85 87 90
58 80 91 97 58 39 28 25 26 31 40 33 20 20 21 21 23 31 33 42 43 91 88 95 98 98 94 89 79 96 99 86 90 93 91 88 89 87 87 85 82 85 87
76 74 61 49 37 26 25 27 32 41 31 18 18 18 16 15 17 23 30 42 55 77 90 96 86 72 78 81 67 76 82 87 94 97 95 90 90 90 87 89 92 92 95
60 54 51 36 25 23 26 34 42 28 19 19 19 16 14 14 24 42 72 87 99 98 99 80 60 63 62 64 74 81 84 86 89 91 94 95 91 92 89 90 91 97 100
59 51 34 23 22 24 35 42 26 20 20 19 17 13 18 33 40 55 71 99 98 98 89 72 66 68 71 77 84 86 86 89 92 96 97 96 97 99 98 93 94 97 100
55 34 22 21 25 38 41 22 19 20 20 20 18 28 43 67 56 69 99 97 58 82 66 64 68 69 78 88 93 95 93 90 94 96 97 97 99 98 98 92 94 99 94
30 21 22 28 44 37 21 19 20 18 15 16 29 39 47 44 44 55 92 68 54 57 66 70 68 80 92 96 96 96 91 90 94 93 94 97 98 98 95 96 99 98 96
20 23 34 46 31 20 20 20 18 17 19 27 32 35 40 43 46 49 53 66 68 66 69 69 85 93 95 96 97 96 95 96 98 97 96 96 96 97 96 98 100 97 100
27 41 45 26 20 20 20 18 16 18 25 32 38 46 51 57 49 47 55 68 70 73 78 92 93 95 97 98 97 96 95 96 96 96 95 96 97 98 98 98 100 100 98
47 40 24 20 21 20 18 16 19 27 33 38 45 51 64 81 60 59 64 72 77 88 95 93 93 95 97 96 98 97 97 96 97 97 98 96 96 96 99 100 100 99 99
34 24 21 22 21 18 16 20 28 34 41 47 50 52 59 60 60 60 69 76 86 96 98 97 96 97 97 98 97 96 95 96 98 97 96 94 97 98 98 97 97 97 99
23 21 22 21 18 17 22 29 35 41 48 54 59 62 64 65 62 61 77 80 89 93 96 96 97 95 97 98 98 98 97 98 98 98 96 95 96 96 97 98 98 100 99
22 23 22 19 17 20 26 32 41 51 58 60 63 67 70 68 63 71 83 87 92 92 95 96 97 98 97 98 95 96 98 98 97 97 98 97 96 97 96 96 98 96 98
23 23 20 18 19 24 31 41 50 57 61 65 67 71 70 68 66 76 86 95 95 94 94 96 97 97 98 98 93 99 99 95 99 98 98 97 98 95 98 100 97 96 96
24 21 18 18 23 32 40 49 56 60 63 66 69 70 71 70 71 78 92 95 96 96 96 96 97 98 98 92 92 97 99 97 100 99 100 99 96 92 95 93 90 94 96

GFSGL_850_rhum_054.txt.gz
RH
33 34 32 37 67 65 60 63 74 86 99 100 100 98 83 70 64 54 56 45 30 29 37 44 29 27 28 28 26 27 30 35 44 41 41 47 48 42 38 41 41 46 44
34 36 38 77 90 76 66 74 100 100 100 100 96 81 70 66 69 56 41 50 78 54 29 28 28 29 28 26 26 30 32 35 43 53 64 65 72 68 67 64 54 45 46
48 50 66 94 97 89 79 96 100 100 100 91 80 73 76 58 49 61 57 34 31 42 57 34 29 26 22 23 29 32 34 44 60 75 80 82 84 75 75 64 68 57 57
74 74 84 90 95 92 97 97 97 99 88 78 68 60 62 48 40 44 57 74 78 52 31 27 22 20 21 28 30 35 54 70 72 78 87 93 86 81 77 86 79 67 66
98 94 98 98 97 93 90 98 96 84 78 77 79 59 41 55 88 89 84 70 52 32 23 18 18 20 22 28 45 66 76 77 85 93 96 91 92 84 81 74 85 80 80
96 96 95 92 90 90 91 90 84 72 66 65 77 93 94 92 78 50 36 31 29 21 18 17 16 15 18 28 42 54 86 93 94 95 93 94 89 82 77 90 94 95 100
86 83 88 85 88 89 87 78 79 81 87 91 96 82 62 67 68 36 34 28 20 18 17 15 13 17 24 29 38 56 83 90 93 95 97 88 84 76 94 98 98 100 98
87 87 78 82 84 78 77 86 94 91 96 86 88 92 86 42 36 34 28 21 21 18 16 17 21 22 23 35 77 94 92 90 91 86 84 90 98 95 97 100 98 94 91
80 68 61 71 73 84 99 99 95 97 98 96 98 64 38 35 33 26 21 20 18 17 18 20 24 26 36 93 96 100 100 92 84 81 83 97 97 89 85 91 84 97 91
62 62 83 99 100 100 97 99 98 100 100 92 41 36 35 31 25 27 26 21 21 15 14 23 29 42 87 97 96 98 97 85 86 95 82 76 71 72 75 84 91 100 100
100 100 100 100 97 99 100 100 100 84 38 38 37 35 27 26 26 26 23 23 26 26 24 28 35 62 100 100 98 96 87 96 98 88 74 72 71 73 75 79 84 94 99
100 100 98 100 100 100 100 64 36 39 40 39 34 24 22 22 20 15 14 18 24 32 41 55 77 99 99 73 56 53 98 98 77 78 79 77 80 80 79 82 86 89 92
99 100 100 100 92 50 36 33 33 36 38 29 20 20 19 17 14 14 20 28 36 63 72 92 83 69 49 44 49 62 75 80 82 82 83 83 86 86 83 86 85 84 86
100 99 92 47 36 33 31 32 38 37 24 20 20 18 15 14 19 26 32 42 60 74 76 60 58 52 50 57 71 77 80 84 89 92 90 88 86 90 88 89 89 92 93
98 64 42 36 32 30 33 40 34 23 20 19 18 16 18 23 40 74 75 82 92 81 73 47 43 44 56 74 77 78 80 84 86 88 91 91 92 92 88 86 88 91 95
52 43 35 28 28 32 40 32 22 20 20 18 16 21 44 52 69 48 42 53 47 59 52 53 51 66 81 83 82 82 84 85 88 92 92 94 94 93 92 88 95 97 97
51 37 25 24 31 41 26 21 21 21 20 20 23 29 34 37 42 42 41 41 46 53 55 57 76 88 88 88 88 89 86 87 90 92 94 95 96 96 97 93 95 97 96
34 24 25 38 39 24 21 21 20 19 17 18 23 27 33 40 46 50 52 47 45 54 61 80 88 90 92 91 91 92 92 90 92 93 97 98 98 98 95 97 98 100 98
24 28 42 34 23 21 21 20 19 18 18 21 27 35 40 41 52 58 55 52 57 60 74 87 90 93 92 92 94 94 95 91 96 99 96 97 97 98 95 98 99 98 100
32 43 31 23 22 22 20 19 17 17 22 29 35 40 42 42 49 51 52 53 66 69 86 87 89 92 94 95 94 95 93 92 95 97 97 92 95 97 99 100 99 100 97
44 30 23 22 22 21 19 16 17 24 29 35 41 48 62 68 60 56 50 59 67 81 89 89 90 92 95 96 96 95 92 92 95 98 97 90 94 97 100 99 98 96 96
30 24 22 22 22 19 15 18 24 29 35 40 45 52 56 59 58 55 55 67 79 92 95 93 91 94 98 99 98 97 91 95 95 98 95 95 98 98 98 100 99 96 97
25 22 23 23 19 14 18 23 29 35 42 50 51 52 55 56 56 54 63 70 87 91 94 95 94 93 96 99 100 96 97 97 99 100 94 96 95 97 97 99 100 100 97
23 23 23 20 14 16 21 28 35 41 46 49 51 54 56 55 55 61 65 83 88 91 95 95 95 96 98 98 95 92 99 98 96 96 99 98 98 96 97 100 100 100 98
24 24 22 14 15 19 27 33 38 42 46 47 50 52 55 53 55 60 78 85 89 91 91 94 96 96 98 98 94 94 97 98 95 95 96 94 97 97 98 98 97 98 93
25 24 14 14 17 24 29 35 39 43 44 46 50 52 51 50 51 63 83 86 89 90 92 93 95 97 99 99 95 96 97 91 93 94 94 98 96 95 96 98 98 100 97

GFSGL_850_rhum_057.txt.gz
RH
27 26 25 24 32 32 34 42 71 58 58 62 72 94 100 99 91 83 76 62 56 43 45 61 50 62 37 28 28 28 28 31 42 36 32 29 33 29 24 30 32 35 29
28 27 37 37 38 38 48 73 83 90 85 90 100 100 100 90 80 74 57 52 60 69 70 68 50 42 45 42 31 25 26 33 40 40 44 47 55 48 53 54 50 38 31
37 46 59 57 55 59 91 100 100 100 100 100 100 99 80 81 65 56 63 71 69 70 51 74 78 48 36 25 22 24 29 33 36 54 64 66 75 74 71 65 58 46 42
74 79 85 84 90 100 100 100 100 100 100 100 98 94 87 66 65 66 70 61 57 84 82 79 67 46 26 19 20 27 31 35 55 63 72 91 94 81 79 77 75 56 63
98 100 100 100 100 100 100 100 100 100 100 98 88 66 68 65 59 53 62 94 98 84 39 30 22 19 18 18 21 27 57 75 71 87 98 94 87 83 85 80 76 80 80
98 100 100 100 100 100 99 99 95 93 83 69 71 74 77 79 93 100 97 97 72 29 23 21 18 17 16 17 23 34 51 86 97 98 96 96 93 92 83 80 90 94 100
92 95 92 91 92 85 83 79 73 72 75 83 84 84 92 98 97 98 98 74 40 30 21 18 17 16 20 23 26 33 56 74 96 97 96 93 90 81 92 95 98 99 100
87 85 83 82 89 90 82 84 84 93 92 95 100 100 100 99 90 49 35 27 23 21 19 20 24 24 22 25 42 78 86 90 91 87 85 89 96 95 96 100 100 93 88
92 96 98 96 93 93 94 96 100 100 100 100 100 99 90 44 36 32 25 24 25 24 28 31 31 25 27 36 88 98 99 90 80 79 77 84 84 86 83 84 81 91 89
96 79 80 86 96 100 100 100 99 100 100 97 90 44 38 35 32 24 40 42 33 31 20 23 30 34 47 100 98 96 93 71 80 79 65 67 68 71 74 82 88 96 99
75 80 93 100 100 100 99 100 100 99 83 37 39 37 33 29 33 36 38 26 22 17 20 23 31 52 100 100 99 83 61 97 95 76 72 71 70 72 74 78 81 90 95
99 99 100 100 100 100 99 90 42 35 36 38 37 28 24 24 24 20 17 16 21 26 29 40 56 90 77 50 42 44 79 85 76 77 77 74 76 76 76 80 83 87 90
100 100 99 100 96 53 33 30 31 37 39 31 23 22 21 20 17 15 19 30 34 48 61 78 65 46 40 38 47 66 75 78 80 79 79 79 85 86 83 81 80 81 81
99 100 90 43 32 32 32 37 42 36 25 21 21 20 17 16 21 31 33 32 48 62 60 50 46 44 47 59 76 78 80 82 86 89 86 86 87 87 85 89 87 88 90
86 48 38 33 32 30 33 39 34 24 21 20 19 18 22 26 28 32 66 71 81 46 51 40 40 44 64 76 78 78 81 83 85 88 90 91 91 92 91 91 92 94 98
48 40 32 28 28 34 40 30 22 21 20 19 17 17 21 31 49 44 47 53 41 40 40 46 50 73 82 84 83 81 82 86 86 88 91 95 97 96 94 92 99 99 96
47 34 27 28 36 41 27 22 21 21 20 19 21 24 30 36 40 40 38 40 42 41 48 57 79 86 86 87 88 88 85 87 87 91 92 96 97 96 99 95 95 96 93
38 26 26 33 41 27 22 21 21 20 19 20 23 27 32 39 45 46 43 41 40 46 54 71 84 86 89 92 91 89 87 86 88 90 95 100 98 99 95 95 95 98 95
27 24 33 40 26 22 22 21 20 18 17 21 26 32 35 41 47 52 52 48 44 55 63 82 85 88 91 93 92 91 90 88 92 99 99 98 93 100 96 95 96 96 97
24 34 39 25 22 22 21 20 17 18 22 26 32 36 39 43 48 50 51 47 56 66 81 86 87 89 92 94 92 92 89 88 94 99 100 99 100 100 98 98 99 99 96
34 40 26 22 22 22 20 16 17 21 26 33 40 45 50 51 52 52 49 52 64 80 89 90 90 92 94 93 93 92 89 89 97 100 98 98 98 98 96 97 97 95 97
42 27 23 23 23 21 15 16 20 26 33 39 43 47 52 54 53 49 46 57 71 90 95 94 93 95 97 97 96 93 87 94 99 100 96 94 94 96 97 97 97 96 98
29 23 23 23 22 15 15 19 26 33 38 39 42 46 48 48 47 47 52 58 82 90 96 97 95 94 96 96 96 95 92 97 100 96 98 96 98 100 98 97 96 95 99
25 23 24 24 16 14 17 24 30 34 37 41 43 45 46 45 47 50 51 74 85 91 96 97 97 96 97 97 94 94 95 99 96 90 100 99 94 97 97 96 96 98 100
23 24 24 19 14 15 21 26 32 35 38 41 43 43 44 44 45 49 60 78 84 88 91 94 97 98 98 98 98 96 97 98 96 94 95 95 93 97 97 97 96 100 99
23 24 24 14 14 17 23 28 34 37 40 42 44 45 44 43 43 47 67 77 82 85 88 92 94 97 98 99 100 98 95 92 92 92 94 92 96 97 98 98 97 100 100

GFSGL_850_rhum_060.txt.gz
RH
35 30 29 28 28 27 28 32 34 34 50 76 80 90 94 99 100 100 95 80 60 53 55 62 50 46 56 77 68 49 46 39 29 26 26 25 25 26 24 24 28 35 31
37 34 32 32 36 46 47 47 56 59 70 98 100 100 100 100 99 92 78 58 59 71 65 59 71 87 85 86 81 61 30 29 30 31 30 34 36 32 31 37 43 45 45
44 40 41 47 63 79 71 72 86 99 100 100 99 100 100 99 91 77 72 76 70 65 76 87 82 90 95 92 80 52 26 27 31 38 43 45 47 47 62 61 66 57 39
55 52 59 85 97 99 99 98 100 100 100 100 100 100 95 83 77 73 63 66 78 86 84 93 94 93 93 58 24 26 26 27 31 40 52 58 76 77 76 77 72 58 53
70 64 98 99 100 100 100 100 100 100 100 100 99 91 74 70 77 83 88 85 83 99 100 98 85 40 23 19 20 23 25 20 27 43 68 86 89 87 88 83 73 73 78
80 94 96 100 100 100 100 100 100 100 93 90 87 88 89 83 90 82 76 100 100 100 94 33 21 20 19 18 19 22 21 26 41 80 99 99 92 92 86 73 87 91 96
92 96 99 100 100 98 98 97 96 96 98 94 81 74 81 92 100 99 100 99 90 38 25 22 21 21 19 18 16 14 20 40 81 96 96 94 91 75 86 93 97 97 100
89 90 90 89 90 87 85 85 71 66 70 80 90 98 100 100 100 100 70 33 27 24 23 23 21 17 16 17 20 48 78 74 80 83 78 70 77 97 99 100 98 86 86
89 88 90 94 95 95 94 92 98 100 100 100 100 99 100 96 51 32 31 28 29 26 23 18 18 17 19 24 94 100 95 72 60 51 54 68 75 74 75 82 80 92 88
99 99 99 99 98 100 100 99 99 100 100 100 99 89 35 33 35 29 22 26 23 17 16 20 26 32 61 100 99 98 69 45 53 51 60 63 69 72 77 83 88 95 99
85 96 100 100 99 100 99 99 99 99 95 59 36 37 37 34 28 28 30 20 15 17 26 30 36 42 94 86 82 62 50 92 87 75 73 72 72 73 75 78 82 89 95
99 99 99 100 99 99 100 98 58 34 37 38 35 28 26 26 26 22 18 18 28 26 31 39 37 31 33 37 39 48 94 86 78 78 77 76 78 79 78 82 84 85 88
99 99 99 99 92 45 34 34 35 39 37 28 23 22 21 20 19 20 24 28 30 38 37 30 31 34 37 40 54 73 77 80 81 80 78 78 84 85 83 83 80 83 81
99 99 72 36 33 33 33 38 38 30 23 22 22 20 20 21 23 28 32 34 30 33 32 38 39 41 46 64 76 80 81 83 85 85 82 84 86 86 84 87 85 88 85
74 40 33 31 31 34 38 36 28 23 22 20 19 19 21 22 26 28 42 43 52 42 45 40 42 48 70 75 75 78 80 82 84 85 86 90 91 87 82 85 90 90 96
41 32 29 28 31 39 37 25 22 21 20 19 18 17 18 24 33 38 47 44 42 41 39 41 46 69 78 80 81 79 82 85 88 87 91 96 94 90 84 83 91 92 92
38 28 26 29 38 37 25 22 22 21 20 19 20 22 27 32 34 39 43 42 44 40 41 49 66 79 80 83 86 87 86 87 88 92 95 96 95 96 99 87 89 92 89
34 26 27 37 38 25 22 22 21 20 18 18 22 27 30 36 38 42 45 44 43 44 51 61 79 82 83 84 88 88 86 86 88 93 96 99 100 100 95 92 94 98 95
29 26 33 40 27 22 22 21 20 15 16 20 25 33 37 41 44 46 46 44 40 47 55 77 83 84 86 88 91 90 90 89 92 100 99 95 100 100 94 93 96 96 100
25 27 39 30 23 22 21 20 14 16 20 25 30 35 41 42 44 45 47 44 47 56 73 82 85 88 90 92 93 94 90 88 92 96 96 97 100 96 94 99 97 100 97
24 37 34 24 22 22 21 14 16 19 25 30 34 38 44 46 46 46 45 44 56 70 83 84 88 91 93 94 94 93 90 86 94 99 93 100 100 89 96 98 99 98 97
32 38 26 22 22 22 15 14 17 24 29 32 36 40 42 43 44 44 44 52 62 82 87 88 90 94 96 97 97 94 91 90 95 98 93 100 98 90 94 99 97 97 96
40 29 23 22 23 18 14 15 21 26 29 33 37 38 40 42 43 45 48 51 73 83 90 93 91 91 94 96 98 96 94 93 99 98 100 95 99 96 100 97 98 97 97
34 25 22 23 23 14 14 17 22 27 31 34 37 38 39 41 42 44 46 56 76 82 88 93 95 94 93 96 98 97 96 98 98 97 94 99 99 94 97 96 94 96 100
28 23 23 24 19 13 14 19 24 30 34 36 37 39 41 42 42 42 45 59 73 78 85 90 93 94 96 97 99 99 99 98 98 98 97 96 95 96 97 98 97 100 100
26 23 24 24 15 13 15 21 26 31 34 36 37 40 41 42 42 40 44 60 72 78 84 89 93 97 98 99 98 100 97 96 95 95 93 95 94 96 98 98 98 96 95

GFSGL_850_rhum_063.txt.gz
RH
46 44 40 34 31 30 29 28 28 28 30 42 48 54 87 99 100 100 100 100 100 99 81 59 48 51 55 52 57 81 91 89 94 86 54 29 23 22 19 19 18 22 24
51 46 40 35 32 31 31 29 34 41 47 62 89 100 99 100 100 100 100 100 94 71 53 48 54 69 75 84 96 98 93 94 74 38 28 22 21 21 26 20 27 33 37
66 58 52 46 40 38 46 57 62 87 100 100 98 100 100 100 100 100 97 83 61 51 54 67 80 92 99 100 99 99 90 45 32 38 32 20 22 21 38 43 42 36 29
72 66 62 58 56 60 97 98 99 100 99 100 100 100 100 100 97 87 70 59 56 70 83 87 97 98 99 99 85 36 25 26 24 26 33 39 56 55 58 57 69 52 48
83 88 90 96 98 98 99 99 99 100 100 100 100 100 99 91 75 66 69 74 76 86 99 100 100 100 84 24 19 20 21 20 22 44 61 78 76 93 96 86 87 95 92
90 88 92 98 99 100 99 99 100 100 100 100 99 90 78 74 80 78 83 93 100 100 100 100 90 24 22 22 25 26 27 27 65 76 77 90 94 98 97 97 100 100 100
88 90 95 98 98 98 99 100 98 99 100 96 93 85 87 93 99 98 99 100 100 98 52 25 26 27 27 25 20 18 26 43 57 80 95 97 96 69 86 93 92 96 96
86 88 89 92 92 99 100 99 100 99 99 100 100 98 99 99 99 100 100 88 37 30 31 30 25 21 18 17 27 38 37 45 58 67 66 56 73 96 100 100 86 87 84
94 92 94 97 96 98 100 97 96 96 96 97 99 99 100 100 96 47 32 33 36 30 23 19 18 18 21 40 82 68 48 43 42 41 51 65 68 68 73 79 79 90 88
99 98 99 99 99 100 99 100 99 99 99 99 99 99 88 46 29 23 24 28 20 17 19 21 22 22 25 91 89 59 47 39 45 54 59 60 66 68 74 82 86 90 93
95 99 98 99 99 100 100 100 100 100 96 67 37 35 28 26 37 36 25 17 17 21 23 27 27 27 33 30 38 35 39 82 65 66 64 65 68 71 74 78 84 91 96
98 98 99 100 100 100 100 84 40 36 36 34 28 25 26 26 24 21 23 28 28 25 32 32 30 28 29 30 33 46 67 69 72 71 71 72 72 74 76 81 82 85 91
100 99 99 98 75 40 33 34 37 34 27 23 22 22 21 21 25 28 31 31 33 32 30 28 26 29 32 39 58 69 71 74 77 78 77 76 82 84 81 79 77 79 77
96 98 60 32 31 33 37 37 30 23 22 21 20 20 21 25 29 37 30 29 27 30 30 32 33 36 47 68 75 78 79 80 81 83 80 80 82 82 80 83 79 81 76
62 33 30 29 31 35 36 28 23 22 20 20 19 20 22 23 34 31 35 40 38 38 35 36 39 48 71 75 76 78 80 82 82 83 83 85 84 84 81 82 85 86 88
32 28 27 29 36 37 27 23 21 20 19 18 16 15 19 26 32 31 34 37 38 36 35 38 48 71 76 76 76 77 82 83 85 86 89 92 90 88 84 82 94 92 90
30 25 26 33 40 30 23 22 22 21 20 17 17 20 23 28 33 36 38 41 40 38 39 44 64 75 76 79 82 83 82 86 87 88 93 94 94 96 100 91 87 89 89
29 26 28 39 34 24 22 21 21 18 15 17 20 24 30 35 39 41 40 42 42 40 46 58 77 77 79 81 84 86 84 84 87 90 91 94 97 100 100 92 92 96 99
28 25 33 39 25 22 21 21 17 13 15 20 25 30 34 38 43 44 41 40 37 44 54 77 82 83 84 86 88 88 87 87 89 92 97 97 94 100 99 92 92 94 99
26 27 39 31 23 21 21 19 12 14 19 24 28 32 35 38 40 42 42 39 40 50 71 80 83 87 89 90 90 89 88 88 86 90 95 92 94 100 99 94 94 98 97
25 30 38 26 22 22 22 13 13 16 21 24 29 33 37 38 39 38 38 38 46 60 78 81 86 90 92 92 92 92 91 88 91 93 95 89 100 100 91 97 97 96 100
25 35 34 24 22 22 17 12 14 18 23 25 30 34 38 39 39 38 40 44 49 71 78 82 88 94 96 95 96 96 94 93 96 97 94 94 99 95 93 100 100 100 100
27 38 28 22 22 22 13 12 15 20 25 28 31 34 35 37 39 40 42 44 53 73 81 85 88 91 95 97 100 100 99 97 97 98 98 97 92 87 92 100 99 99 100
34 36 25 22 22 20 12 12 16 21 26 30 32 34 36 39 40 40 40 44 53 70 78 82 88 93 96 99 100 100 100 97 95 96 97 95 91 99 100 99 97 99 99
38 32 23 22 22 18 12 12 16 22 27 31 32 33 36 39 42 42 42 44 50 66 76 84 90 94 98 100 100 100 99 95 94 95 100 97 95 98 96 97 97 97 99
38 29 23 22 23 16 12 13 17 23 28 31 32 34 37 40 42 42 42 42 48 64 76 84 91 96 100 100 100 99 97 92 93 92 97 99 95 93 97 97 96 99 95

GFSGL_850_rhum_066.txt.gz
RH
56 50 46 43 39 34 32 31 31 31 30 31 32 37 52 86 98 100 100 100 100 100 100 100 100 95 82 67 48 52 65 72 91 100 100 99 96 61 32 27 23 23 22
64 60 56 52 46 42 38 34 32 32 33 41 46 64 86 99 98 98 100 100 100 100 100 96 92 70 50 51 62 78 92 99 100 100 99 62 30 26 21 19 17 23 27
68 67 64 59 57 55 50 45 40 43 55 78 98 98 98 99 99 100 100 100 100 99 87 74 51 52 66 83 95 100 100 100 97 59 40 33 26 27 40 62 48 34 50
76 77 77 72 69 70 69 72 89 99 99 98 98 98 99 98 100 100 100 100 94 70 54 57 70 85 98 99 99 100 94 44 39 47 55 73 76 75 77 84 83 80 77
83 84 86 95 94 96 98 99 98 98 99 100 100 100 100 100 100 98 86 76 67 58 72 87 97 100 100 99 84 26 22 22 25 38 85 91 92 85 86 88 86 85 89
88 85 92 97 100 100 98 99 100 99 99 99 98 97 86 82 87 81 76 78 84 87 98 99 100 99 40 23 21 22 20 32 70 97 99 96 88 84 85 85 95 100 100
87 86 90 93 95 98 99 99 99 98 99 99 100 97 95 94 97 98 99 100 100 100 100 89 36 24 25 24 19 17 23 34 46 87 96 91 88 87 93 87 100 100 100
85 85 86 87 91 96 98 97 98 99 100 98 98 99 99 98 99 99 100 99 96 58 26 26 26 22 19 17 20 36 37 55 64 60 77 86 92 95 100 100 100 100 99
90 90 91 94 96 98 95 97 99 97 98 98 98 98 99 99 99 94 49 29 28 26 21 17 15 18 24 24 66 61 76 54 40 33 42 55 62 65 70 74 77 100 95
87 89 92 92 92 89 92 96 100 100 100 99 99 99 71 33 30 25 22 22 19 17 17 19 24 27 32 66 54 58 36 39 50 58 64 62 62 64 68 74 81 87 95
91 90 93 96 97 99 99 99 100 100 97 71 37 30 28 58 50 24 20 18 20 21 24 30 31 30 26 28 30 41 42 75 76 62 62 63 65 67 73 79 84 88 88
99 98 98 99 99 100 96 69 46 37 31 26 26 27 28 27 24 24 22 24 21 28 33 32 31 25 27 31 34 41 55 63 63 64 64 67 68 69 72 76 79 82 84
98 99 100 99 75 39 36 36 34 28 24 24 23 22 22 23 26 30 32 27 26 27 29 30 30 29 30 37 54 65 66 67 68 68 69 68 68 71 72 73 74 78 78
99 96 59 32 32 36 36 30 24 22 21 20 20 20 22 22 25 34 35 41 33 40 34 32 31 33 42 62 69 70 72 74 74 73 74 73 77 79 78 80 79 77 75
69 32 30 30 34 35 29 22 22 20 19 18 17 16 18 27 43 33 35 51 54 38 34 33 35 44 64 70 72 74 76 78 79 79 79 81 85 86 84 85 82 80 87
29 27 27 32 35 30 23 21 19 19 16 13 12 15 21 25 30 32 33 34 35 34 33 34 39 59 70 72 74 78 80 81 82 83 83 85 87 88 87 86 90 91 91
26 24 27 34 36 24 21 20 20 18 14 14 17 20 23 26 29 33 34 36 35 34 35 38 53 70 73 77 80 81 81 83 85 85 85 88 90 89 94 93 90 100 100
27 25 29 37 30 22 20 20 20 16 14 16 19 24 27 30 32 33 34 36 36 33 38 48 71 74 78 82 85 86 86 87 89 89 88 90 93 100 100 100 97 98 99
26 24 30 37 25 21 20 20 15 12 14 18 21 24 29 32 36 37 36 37 35 36 45 66 76 79 83 86 88 90 92 92 92 91 90 92 95 98 100 100 100 94 99
29 25 32 34 24 20 20 19 12 12 16 20 23 25 27 30 34 35 35 35 34 40 54 75 79 84 87 88 89 91 92 94 92 92 93 93 94 96 99 100 100 100 96
29 25 35 32 23 20 20 16 11 13 18 21 24 26 28 29 31 32 34 35 37 44 63 74 80 85 88 89 90 91 93 92 95 98 97 96 96 97 97 94 98 96 96
31 26 36 30 22 20 21 13 11 14 18 22 24 27 29 30 31 34 36 39 42 46 65 72 77 83 88 90 92 93 95 94 96 98 98 99 98 98 96 94 91 98 98
28 27 36 28 21 21 21 12 11 13 17 22 25 28 30 31 32 35 37 39 41 46 61 71 74 79 86 91 95 97 97 96 98 99 99 99 98 97 94 94 100 98 97
28 30 37 26 21 21 20 11 11 13 17 21 25 27 29 31 34 36 37 39 40 44 53 67 74 80 87 93 96 99 98 97 95 97 99 96 96 97 98 100 100 99 96
28 33 36 26 21 21 20 12 11 13 16 22 27 29 29 30 33 37 40 40 40 41 48 63 72 81 89 94 97 99 98 95 95 97 99 100 99 98 92 93 98 98 93
29 36 35 25 21 22 20 12 11 13 18 24 27 29 30 31 34 37 40 40 38 39 44 60 73 83 91 95 99 97 96 94 97 97 97 96 96 96 98 99 97 96 96

GFSGL_850_rhum_069.txt.gz
RH
62 58 55 51 48 45 41 39 36 36 35 34 33 34 36 39 54 96 99 99 100 100 100 100 100 100 98 100 98 99 95 92 81 79 86 88 97 98 99 98 58 23 22
71 70 63 62 61 56 52 47 44 42 40 39 40 41 48 66 95 99 99 98 98 99 100 100 100 100 100 98 90 78 76 78 89 100 99 99 100 99 63 35 30 20 22
74 79 69 66 62 60 57 55 52 52 54 62 75 86 96 99 99 100 99 100 100 100 100 100 100 96 85 60 69 89 94 99 99 99 99 81 34 25 24 24 26 33 46
79 82 80 76 72 70 69 73 79 86 93 98 98 98 98 98 99 98 100 100 99 99 98 89 79 73 75 84 98 100 99 100 94 63 28 41 40 39 61 63 80 80 49
82 84 86 86 89 90 92 96 95 97 93 96 99 99 99 99 100 100 100 100 98 89 78 76 85 90 98 100 99 98 73 27 21 26 30 67 77 79 83 83 82 78 52
85 81 86 95 95 96 95 97 92 95 98 98 99 98 97 96 95 90 83 80 78 84 95 100 100 100 100 98 72 20 16 15 20 40 57 52 80 86 83 80 81 61 69
82 82 89 95 94 92 94 95 94 96 98 95 92 91 93 96 97 95 98 100 100 99 99 99 95 55 28 20 17 14 15 20 28 40 50 80 91 83 79 62 68 90 76
88 88 89 92 92 90 93 94 90 91 92 92 96 98 100 99 100 97 98 99 99 98 93 73 30 20 16 14 16 31 40 42 57 60 62 54 59 70 77 80 74 78 73
92 92 94 96 91 89 88 89 92 93 98 100 100 100 96 96 100 98 86 43 28 24 20 19 18 18 18 17 30 54 45 65 63 36 28 38 50 56 60 64 65 83 92
94 95 91 88 87 87 92 98 94 95 95 97 94 65 31 25 23 20 19 30 46 36 27 22 20 23 20 19 22 31 46 39 38 55 60 59 62 63 67 70 76 85 94
94 91 89 87 88 89 92 99 98 100 87 41 31 34 43 29 20 16 16 18 21 22 26 29 27 22 20 19 19 23 30 38 67 71 64 67 71 77 81 86 90 90 88
94 94 94 94 93 94 92 78 48 33 27 24 22 21 19 19 19 19 17 18 17 21 25 25 26 22 22 24 27 31 43 59 63 66 67 69 75 72 72 74 78 81 82
99 93 96 96 66 38 36 34 27 24 24 21 19 20 20 21 23 23 25 23 22 24 26 28 28 27 29 31 40 57 64 65 67 68 71 72 72 70 73 74 74 76 74
100 96 68 34 33 35 33 27 22 21 20 20 20 22 23 26 36 56 60 68 57 53 40 32 29 31 36 52 65 66 67 69 70 70 70 70 71 72 74 77 75 75 77
90 43 31 32 34 32 25 23 20 18 18 18 15 14 18 37 31 22 26 31 35 35 32 31 34 40 56 73 72 71 71 71 72 74 75 75 75 77 80 82 82 86 100
34 28 28 32 34 28 22 19 18 18 14 11 12 14 15 19 22 26 29 31 32 31 32 35 42 54 71 71 70 71 72 74 76 76 78 78 79 83 88 85 86 100 100
26 25 27 33 32 23 22 21 18 15 10 10 13 15 19 22 24 28 30 31 30 31 32 37 41 63 73 72 72 72 75 80 82 82 81 81 83 85 92 92 92 100 100
26 25 27 33 31 22 19 19 18 13 11 12 15 18 20 22 25 28 30 30 32 31 31 37 51 72 75 76 77 80 83 86 88 89 87 86 89 92 96 98 98 100 100
24 23 25 32 30 21 19 19 16 11 11 14 16 17 19 23 25 27 29 29 31 32 32 40 62 75 79 82 85 87 88 89 91 91 90 90 92 96 97 96 98 98 100
27 24 25 33 29 21 18 19 15 10 11 13 16 18 21 22 25 28 28 28 29 30 35 45 69 76 82 85 89 91 91 92 94 95 95 95 96 100 100 99 98 97 91
34 25 25 34 30 21 19 19 13 10 10 13 16 18 21 23 25 26 28 30 30 32 39 48 67 74 80 84 88 91 92 92 95 96 97 96 98 99 98 97 96 94 96
45 30 25 32 32 22 20 20 14 10 10 13 16 18 20 22 24 26 29 32 34 37 41 45 60 70 75 80 85 90 93 94 96 99 97 97 99 98 98 98 96 90 96
53 40 25 30 33 23 20 20 15 10 10 12 16 19 21 23 25 28 30 31 32 35 38 43 50 62 71 77 85 94 98 97 98 100 98 97 96 97 95 92 89 99 97
58 47 28 30 34 24 20 20 17 11 10 12 16 19 22 25 27 28 30 32 33 35 37 40 44 55 67 78 88 96 100 99 99 98 100 99 95 92 98 94 96 99 98
58 52 29 31 35 24 21 21 18 12 10 11 15 19 23 25 27 29 31 33 35 35 35 37 41 50 66 78 88 97 99 98 97 98 98 99 99 97 99 96 96 95 96
57 54 31 32 35 26 22 22 20 13 10 11 15 19 23 26 28 29 32 34 35 35 35 36 39 52 69 81 94 98 98 98 98 98 98 96 94 96 95 96 95 97 94

GFSGL_850_rhum_072.txt.gz
RH
66 63 60 62 61 58 53 48 44 46 42 43 42 42 41 45 50 58 79 98 98 98 98 99 100 100 100 100 100 100 100 99 99 97 90 90 92 96 98 100 100 98 75
77 78 73 71 71 63 56 52 49 45 45 49 53 50 52 54 63 73 93 98 99 98 99 100 99 100 100 100 100 99 93 87 88 93 90 97 100 99 100 98 60 27 18
74 76 77 71 66 64 62 61 61 58 57 57 59 66 73 86 98 98 98 97 96 99 99 100 100 100 99 98 89 83 86 94 98 100 100 100 87 39 28 23 29 31 32
78 79 80 78 76 78 80 80 79 76 78 76 83 92 95 95 93 90 90 99 99 100 100 100 99 93 81 84 92 99 100 100 99 87 50 19 23 37 42 39 43 44 32
79 83 84 84 85 87 91 92 96 96 97 98 99 98 95 98 98 100 99 99 99 97 94 87 82 84 98 99 97 99 82 60 47 18 19 29 40 48 62 73 66 33 25
81 82 86 92 92 94 93 95 91 90 92 90 87 92 94 92 88 87 85 87 84 83 88 99 100 100 100 98 97 83 27 20 18 17 20 29 55 73 80 67 41 34 46
82 85 90 90 88 87 84 91 91 90 87 85 86 92 91 91 95 93 93 94 96 98 99 98 99 99 96 69 26 20 16 22 24 27 36 44 55 53 39 31 47 52 53
84 86 84 90 92 89 89 90 88 88 86 85 89 92 88 92 97 97 99 99 99 99 90 72 39 20 19 21 18 23 42 46 52 43 33 31 24 29 43 56 58 58 54
87 88 90 92 89 89 92 92 90 85 85 84 88 90 89 97 95 81 43 24 21 19 17 17 17 19 20 19 35 43 50 47 44 30 24 39 49 54 56 56 59 65 58
92 92 88 88 90 91 91 91 90 89 86 87 58 31 25 21 18 17 17 21 22 20 19 20 22 23 21 20 20 26 32 35 28 38 62 56 56 57 60 63 64 66 73
94 87 85 89 91 91 97 98 95 73 35 28 25 26 21 18 18 17 17 18 20 21 29 33 28 22 22 21 21 24 26 29 41 57 54 56 60 64 66 66 68 74 77
89 87 89 92 92 93 82 60 36 28 23 22 21 20 17 17 16 15 14 16 17 19 22 25 30 29 24 26 27 31 40 55 57 57 60 65 67 68 65 66 72 75 80
96 97 94 95 77 46 34 28 24 23 22 19 19 17 15 14 16 20 24 22 24 25 30 31 29 26 26 26 33 50 60 62 63 64 68 68 70 69 68 70 73 74 76
98 100 90 45 34 35 31 26 22 20 18 16 16 13 14 18 24 31 32 34 30 31 28 27 26 27 30 42 58 65 65 67 68 67 67 66 68 70 70 73 76 76 72
99 82 35 31 34 32 24 20 18 17 16 12 10 10 12 14 18 20 23 26 26 27 26 27 28 33 42 60 67 67 67 69 70 70 69 70 70 71 74 78 84 81 81
87 35 28 30 32 28 21 18 18 16 12 8 8 11 12 15 19 21 22 25 26 26 27 28 31 34 51 67 69 69 72 72 74 74 74 75 76 78 77 78 83 87 87
43 26 27 30 30 23 19 19 18 14 10 8 11 12 14 16 17 19 23 25 26 27 29 30 32 40 63 70 71 73 75 80 82 82 80 81 82 83 86 84 86 93 90
28 26 26 28 30 23 20 17 16 13 8 8 11 12 14 16 17 19 20 22 25 26 28 30 35 49 69 71 72 77 80 82 84 85 86 88 90 93 92 92 93 94 95
26 24 24 28 32 26 19 17 17 14 9 9 11 13 15 17 18 20 22 22 22 25 26 27 35 54 70 73 77 81 84 85 88 91 94 95 95 99 96 95 95 96 100
29 25 24 26 32 28 20 17 17 14 9 9 11 14 15 16 18 18 20 23 24 25 26 29 38 55 69 73 77 82 85 87 90 92 93 96 99 100 99 99 97 97 94
35 27 23 24 29 31 22 18 18 16 10 10 11 13 16 16 18 20 22 24 27 30 32 36 40 48 64 71 75 79 84 88 95 98 98 98 99 99 99 98 98 96 95
47 37 28 23 24 31 26 19 18 18 11 10 10 12 14 17 18 20 22 24 27 30 33 34 37 42 52 66 74 77 82 88 95 99 97 98 100 100 99 98 98 94 92
63 50 41 28 24 30 31 21 19 19 13 10 10 11 14 16 18 20 22 24 26 29 33 35 36 38 44 54 67 76 84 91 98 99 98 99 99 98 99 95 89 91 94
86 66 54 43 27 27 33 25 19 19 17 11 10 10 13 16 19 22 24 26 27 30 34 35 36 37 39 46 59 73 88 98 100 97 100 100 97 94 95 91 96 100 100
99 90 65 54 37 27 32 29 21 20 19 14 11 10 13 17 20 23 25 26 29 31 33 34 35 36 38 43 58 76 89 97 98 97 98 98 99 100 96 98 99 100 97
100 99 78 57 54 29 31 32 23 21 21 17 11 10 13 18 21 24 26 29 31 33 38 42 44 44 44 51 69 83 94 97 99 99 100 98 96 97 99 97 98 98 94

GFSGL_850_rhum_075.txt.gz
RH
64 63 61 58 58 55 50 48 47 47 51 52 50 47 42 39 41 45 50 56 73 98 98 95 91 91 91 98 100 99 100 100 99 99 100 98 100 99 99 95 95 100 100
64 67 69 66 63 63 62 57 54 51 49 50 48 47 44 44 48 56 63 76 88 91 94 96 95 99 99 100 100 100 98 99 100 100 94 94 94 96 98 98 99 93 48
66 69 72 75 69 65 62 59 59 59 59 58 56 55 59 64 69 76 92 91 89 88 90 94 100 100 100 100 100 95 88 88 90 99 99 100 99 99 82 45 30 32 33
71 75 78 79 77 75 73 71 69 69 70 71 76 80 84 87 90 91 88 86 81 84 94 99 99 98 95 85 85 93 100 100 99 99 94 78 53 34 29 28 34 43 49
76 78 80 82 84 86 86 85 83 86 86 89 89 95 98 94 97 93 96 93 92 94 95 93 90 88 89 93 99 99 99 100 98 84 31 21 26 39 46 52 43 48 32
79 79 83 90 92 93 94 97 92 89 87 85 84 90 90 82 82 84 85 84 84 83 82 87 94 98 98 100 100 99 97 43 26 24 24 21 40 50 56 49 41 29 46
81 82 84 87 91 94 93 89 86 81 76 80 86 87 85 91 95 95 96 94 95 99 97 96 97 100 99 84 43 22 22 20 20 27 30 38 41 42 38 29 38 49 51
83 84 83 88 91 90 86 83 79 78 84 91 90 86 84 93 93 92 99 96 94 94 82 62 39 23 19 20 26 26 34 46 44 48 40 37 33 31 36 48 53 54 52
85 83 85 92 89 85 82 82 79 84 87 88 88 87 84 74 66 42 22 18 17 17 17 18 19 23 31 25 26 35 42 42 47 56 38 40 46 56 61 61 60 58 52
88 88 90 86 82 82 84 80 82 87 88 72 33 22 19 16 15 14 14 15 14 14 16 21 25 24 21 24 21 22 25 30 33 30 51 60 57 58 61 64 65 64 68
91 90 83 84 84 84 86 89 90 64 28 24 22 19 17 16 15 13 12 12 14 16 19 21 24 22 23 21 19 21 24 28 32 52 60 60 62 66 67 68 66 66 69
90 82 83 85 86 87 85 56 35 27 23 18 16 15 14 13 12 13 13 15 17 20 22 26 28 26 24 23 24 28 35 49 59 61 62 64 65 65 66 66 65 67 70
84 83 84 89 86 67 44 30 26 23 20 16 16 14 13 14 16 18 20 19 20 21 26 24 25 24 24 26 33 49 64 66 66 67 66 64 65 66 65 63 62 64 65
89 87 90 86 51 36 32 27 22 19 17 16 13 12 13 14 17 19 19 20 22 24 24 24 25 25 29 38 55 66 67 67 67 67 66 67 68 68 66 65 64 66 67
97 98 86 42 34 32 28 23 20 18 16 14 11 11 12 12 14 15 18 20 22 23 23 24 25 28 31 44 61 65 67 68 68 72 73 74 74 74 70 72 72 73 76
94 92 49 31 33 33 25 20 18 16 14 9 8 11 11 12 14 15 15 20 22 23 22 23 25 25 29 50 63 65 67 69 72 76 78 80 80 80 76 78 84 84 84
89 64 30 29 32 29 23 19 18 16 13 8 9 11 11 12 14 15 17 18 19 20 23 25 24 26 32 56 63 65 68 73 78 81 84 87 89 89 94 90 90 93 89
87 50 29 28 31 30 24 22 19 18 13 9 9 10 12 13 14 16 17 18 19 18 20 22 24 27 38 60 66 68 74 78 82 85 87 91 92 92 90 90 92 94 91
72 35 28 28 32 32 26 20 17 17 14 8 8 10 12 13 14 16 17 19 20 20 20 21 23 30 44 64 70 72 77 81 85 88 90 92 95 98 93 94 94 95 99
64 32 27 26 28 32 30 22 18 17 16 9 8 10 11 12 14 16 18 19 21 23 24 25 29 35 42 57 68 71 74 78 81 87 92 93 94 96 95 96 96 97 96
65 35 27 26 26 28 32 25 19 17 17 12 8 9 10 12 15 16 18 20 22 23 25 28 32 36 41 46 57 67 71 73 78 87 93 94 96 95 96 98 96 98 99
76 47 32 26 24 25 29 31 22 18 17 16 10 9 10 11 13 16 18 20 22 22 25 28 31 34 37 42 47 54 63 69 75 88 93 94 95 94 97 98 96 97 95
87 67 45 38 30 26 26 32 28 20 18 18 14 10 10 10 13 15 18 21 22 23 26 28 31 33 37 39 42 46 54 64 76 90 95 96 96 96 99 97 95 92 91
100 90 64 51 44 35 26 27 32 26 20 18 18 12 10 10 12 15 18 21 21 23 27 30 32 33 34 36 38 41 48 62 79 90 100 100 99 98 98 99 100 100 96
100 100 99 89 56 50 38 27 31 31 22 19 20 16 11 10 12 15 18 20 22 24 28 31 34 38 40 40 40 42 53 69 83 94 98 96 94 96 99 100 100 99 97
100 100 100 99 98 86 54 33 30 32 27 21 21 20 14 10 12 15 18 20 22 25 33 43 53 59 61 58 55 55 63 76 89 98 100 100 100 99 100 100 98 98 98

GFSGL_850_rhum_078.txt.gz
RH
62 62 60 59 58 58 56 53 52 52 54 56 60 63 62 62 59 55 52 51 54 60 72 77 93 94 92 86 91 98 100 100 100 100 100 100 100 100 98 100 100 99 100
65 66 67 66 65 64 64 63 60 58 56 55 53 50 49 48 48 50 53 57 65 70 79 89 95 88 89 87 93 98 99 99 100 100 100 100 100 99 100 100 100 99 99
67 70 72 74 74 71 67 64 63 62 60 58 56 56 54 54 58 64 70 75 82 84 86 85 84 84 96 100 99 99 96 94 92 93 96 100 99 100 100 99 94 53 36
70 74 76 77 76 75 73 71 70 68 67 65 62 62 67 73 77 79 86 88 85 84 82 81 82 92 98 96 92 90 91 95 96 98 100 100 100 92 56 42 41 38 39
76 77 79 81 81 80 78 78 78 79 79 80 81 81 81 90 87 91 93 91 87 86 88 89 89 86 86 88 92 93 95 98 99 99 98 88 39 40 36 35 47 48 36
78 79 81 84 86 89 88 88 91 91 86 83 84 84 86 81 80 84 84 82 81 82 83 86 92 96 95 99 97 96 98 92 89 52 23 23 32 28 36 46 44 32 36
79 80 82 85 89 91 93 91 88 86 83 81 81 80 76 77 82 82 83 85 87 91 90 92 92 98 98 93 76 45 20 15 20 21 24 30 36 42 40 32 28 41 47
80 82 85 86 90 90 88 86 82 80 82 81 76 74 75 80 83 81 83 81 76 73 68 53 30 21 17 15 16 18 24 32 37 43 45 40 36 33 28 30 46 52 55
84 86 84 87 92 90 85 82 83 84 82 76 79 80 65 49 38 18 17 16 17 16 16 17 17 17 17 13 13 14 20 30 35 32 30 29 34 52 62 55 55 57 57
85 88 87 91 91 87 84 83 83 84 80 62 25 20 17 15 14 14 13 14 14 13 14 16 17 16 16 17 17 18 21 28 30 35 35 55 63 63 63 60 60 65 68
91 92 90 87 87 86 86 84 83 73 29 21 20 17 16 14 11 9 10 11 13 14 15 18 21 21 21 21 19 20 26 28 35 38 53 64 61 62 63 66 69 69 67
92 93 85 85 86 88 88 87 44 26 22 19 17 15 14 12 11 13 14 14 16 18 20 22 22 20 20 23 24 28 34 43 56 61 61 62 64 66 67 67 68 67 68
94 88 84 84 87 89 76 37 24 20 18 16 14 13 12 12 15 16 17 17 18 19 20 20 20 22 22 26 30 39 54 63 63 63 64 65 66 66 66 66 65 66 69
93 84 86 86 88 70 37 26 22 19 16 14 13 11 11 12 15 17 16 16 16 17 18 20 21 22 24 28 38 50 61 64 63 64 66 66 65 66 66 67 67 68 68
89 84 88 87 60 34 28 24 21 19 17 14 12 10 10 12 13 13 13 14 16 18 18 19 21 23 27 33 46 62 65 66 65 66 66 69 70 70 72 75 77 78 77
96 92 90 77 36 32 28 22 18 17 16 13 8 8 10 11 12 12 13 14 15 17 17 19 22 23 24 31 50 64 66 66 67 71 75 77 80 80 81 86 90 92 89
96 93 89 47 31 30 27 21 19 17 16 12 8 10 10 11 11 12 13 14 16 15 16 19 20 22 24 29 50 63 64 68 73 77 80 83 84 85 87 88 91 92 89
97 97 83 34 29 31 30 24 20 18 18 14 9 9 10 11 12 12 13 13 16 16 16 17 20 20 23 29 49 63 66 70 75 80 83 85 88 89 89 90 91 92 90
95 92 72 33 29 31 32 28 24 22 19 17 10 8 9 11 12 12 13 14 15 17 19 20 20 20 25 31 44 59 64 66 73 78 82 87 92 95 92 93 93 94 96
94 89 62 32 28 28 31 31 26 21 18 16 13 9 10 10 11 12 14 15 16 18 20 21 24 28 31 35 38 46 55 63 68 73 77 87 95 95 94 94 94 95 94
88 87 60 33 27 26 28 31 31 25 19 17 17 11 9 9 10 11 13 15 16 18 20 21 23 26 29 32 35 39 43 48 59 67 72 81 93 93 95 96 96 96 98
87 88 77 40 27 26 26 27 33 31 22 18 18 16 11 9 9 10 12 15 17 18 20 22 24 26 30 32 33 34 37 40 44 56 67 77 89 95 96 96 98 98 96
99 99 90 76 43 30 28 26 27 31 28 21 19 18 15 11 10 10 11 14 16 18 20 22 25 27 31 32 33 34 33 34 41 48 60 74 87 94 96 96 97 97 98
94 100 100 91 67 42 34 29 26 26 31 28 21 18 18 14 11 10 10 13 15 18 20 23 27 28 30 32 34 36 36 36 39 44 59 76 92 96 98 99 97 97 98
100 100 100 100 96 77 54 41 35 28 29 31 25 20 19 18 15 10 10 12 15 17 19 24 28 34 41 47 52 55 53 48 49 55 70 88 97 98 97 95 94 96 96
100 100 100 100 99 99 98 96 72 39 29 32 37 26 21 20 19 12 10 12 15 17 19 23 31 45 56 61 66 67 68 69 66 69 84 97 99 98 100 98 95 98 98

GFSGL_850_rhum_084.txt.gz
RH
56 56 57 56 56 56 55 54 55 56 54 54 61 80 98 99 93 93 92 100 98 91 70 62 57 63 71 76 85 81 89 86 85 86 79 92 95 98 97 98 100 99 98
58 60 60 60 60 61 61 60 60 60 59 60 61 65 70 77 80 81 79 71 64 58 55 58 64 70 78 86 90 89 92 89 88 94 99 100 100 100 98 98 99 100 100
59 60 60 60 62 63 65 64 65 64 65 64 63 64 63 61 60 58 57 58 60 61 64 74 73 86 90 88 93 99 100 96 93 94 94 93 94 96 98 95 96 99 100
61 61 61 63 65 67 69 71 70 67 66 66 67 68 68 66 65 66 69 70 71 76 80 81 90 91 84 86 90 89 88 87 93 96 97 98 100 100 99 99 96 79 45
63 63 65 69 72 75 77 79 79 78 77 75 74 74 72 74 78 80 83 86 89 88 84 87 86 82 80 83 87 89 90 94 97 98 100 99 96 89 69 48 37 32 30
65 68 70 71 75 80 84 86 86 85 84 83 83 85 86 85 85 88 92 93 90 87 82 80 79 79 85 87 91 92 92 93 92 89 80 67 43 33 32 31 28 28 24
69 71 74 74 74 80 90 95 94 92 95 92 88 85 84 86 89 87 84 83 82 82 79 77 74 72 61 43 28 18 16 16 16 17 18 20 23 27 32 32 30 23 20
73 75 76 76 78 85 99 100 100 98 93 90 87 84 82 86 86 84 82 70 47 28 16 12 13 14 14 15 14 15 15 16 17 18 20 24 25 25 27 27 27 25 40
78 78 78 80 83 90 99 100 99 96 92 89 89 88 87 80 51 23 14 11 10 10 10 11 11 12 11 11 11 12 14 16 19 19 21 23 28 34 30 40 49 52 48
81 81 83 84 87 93 99 98 97 98 96 95 90 83 40 15 14 12 9 9 9 9 9 11 11 11 12 14 14 13 13 14 17 19 22 24 29 46 56 57 58 58 61
85 85 86 88 90 95 96 92 96 99 96 88 46 20 14 12 9 7 8 9 9 9 10 11 12 12 12 13 12 12 14 15 19 22 28 37 47 54 55 57 60 62 62
89 87 90 92 94 94 94 93 97 94 77 28 20 16 13 11 9 9 9 8 8 10 10 10 10 10 12 13 13 13 14 18 27 37 48 54 56 58 59 61 62 61 62
88 89 92 96 96 94 92 92 92 73 26 23 19 14 12 12 12 12 10 9 9 9 10 9 10 11 12 14 15 16 21 28 39 50 55 55 57 58 60 60 60 60 61
91 91 93 97 97 96 94 94 84 33 26 20 15 13 12 11 12 11 11 12 10 9 10 10 11 12 13 14 17 21 27 35 45 52 55 56 56 59 61 63 63 64 63
90 91 96 100 96 92 92 87 44 31 24 18 15 14 12 11 10 10 10 10 9 9 9 11 12 13 13 14 16 20 28 38 50 56 56 56 60 67 70 74 76 77 77
87 89 96 100 92 91 91 70 32 26 21 19 17 13 11 9 9 9 8 8 9 9 10 11 12 11 12 13 15 17 20 31 50 58 57 58 64 72 76 79 84 85 80
89 90 98 99 90 90 85 48 26 23 21 17 15 12 8 8 9 9 8 8 8 9 10 11 12 13 13 14 14 16 19 26 41 56 57 59 65 72 78 82 90 91 86
94 97 100 97 89 90 74 37 29 25 22 18 16 14 11 8 9 9 9 9 10 10 11 11 11 12 14 16 18 18 20 24 30 42 52 59 63 70 74 79 91 91 88
93 99 100 96 92 91 64 35 32 29 23 20 19 16 14 11 9 9 9 9 10 11 11 11 12 13 14 15 17 19 22 26 31 35 38 42 51 62 67 74 85 92 94
87 93 100 100 98 97 70 36 33 32 28 24 20 18 19 16 11 8 9 9 9 10 12 11 12 13 14 14 17 19 21 23 27 30 33 36 40 45 52 66 76 85 88
86 94 98 100 99 96 83 41 30 31 31 29 24 24 23 18 16 13 9 8 8 9 10 11 12 13 14 15 17 19 22 24 28 31 33 36 39 40 42 49 63 72 80
88 92 100 99 99 95 92 70 41 32 30 30 30 32 28 22 17 16 15 10 9 9 9 10 11 12 14 15 17 19 22 26 29 32 33 34 36 37 39 43 49 59 72
92 91 98 99 97 96 97 93 73 43 30 28 28 31 35 30 22 18 17 16 12 10 10 9 10 11 14 16 17 19 23 29 36 40 43 45 45 45 47 48 52 59 73
100 100 100 96 100 100 99 96 90 78 50 32 28 27 28 31 30 25 19 18 17 14 12 10 10 10 13 16 18 19 25 35 46 56 63 65 67 71 74 69 66 71 84
100 100 100 99 99 100 100 100 100 100 97 72 43 31 28 27 27 30 26 20 20 18 24 43 24 10 14 16 17 20 25 38 52 61 67 75 75 76 79 81 80 87 95
100 100 100 100 100 100 100 100 100 100 100 100 99 64 54 69 34 30 31 23 28 51 76 84 18 12 15 17 20 21 22 34 53 63 74 78 77 80 86 89 93 93 91

GFSGL_850_rhum_087.txt.gz
RH
44 47 48 50 51 51 50 50 51 50 49 49 50 56 90 98 99 95 99 93 86 91 93 85 70 68 61 67 74 78 83 78 93 99 90 88 83 82 84 92 100 99 99
53 53 54 56 57 58 59 60 59 59 60 61 61 64 73 93 99 100 94 91 94 99 99 79 59 58 62 69 73 78 84 92 93 93 97 100 100 99 99 99 100 99 100
57 56 56 56 56 58 61 62 62 62 63 65 67 66 68 72 72 75 73 69 65 60 57 56 58 64 68 74 78 84 97 97 96 92 93 93 91 91 93 95 97 96 96
58 61 58 57 56 57 61 65 66 66 66 66 68 67 67 68 66 64 63 62 61 61 62 66 70 72 78 80 88 88 85 84 84 85 90 94 97 96 94 95 96 92 81
60 58 61 62 63 64 67 68 72 76 74 72 70 70 70 70 68 69 69 69 73 75 80 80 80 82 83 83 82 80 81 82 83 85 95 98 95 93 82 63 45 31 22
63 62 64 67 69 70 72 76 79 81 82 81 80 78 79 79 78 82 84 88 91 91 84 83 83 81 84 85 80 76 77 65 61 59 62 60 45 35 26 22 20 20 20
66 68 70 72 75 74 73 80 86 88 90 90 89 89 89 87 89 92 89 92 90 83 81 80 78 77 64 38 16 11 12 13 13 16 17 19 20 22 21 22 21 19 18
71 72 74 75 75 76 80 94 99 99 98 97 92 88 87 86 90 87 84 83 82 78 58 29 18 11 10 9 9 9 10 11 14 14 15 17 18 17 16 18 21 22 30
74 75 78 81 79 80 88 99 100 100 99 97 90 87 86 87 90 86 69 34 16 10 9 10 9 8 8 8 8 9 10 12 14 13 13 14 16 15 21 34 48 48 48
75 77 80 80 80 84 92 100 100 100 100 98 92 93 91 66 22 14 12 10 9 8 8 9 8 9 8 9 9 11 11 13 14 15 17 19 20 28 41 48 50 52 54
78 81 84 83 84 92 97 100 100 100 100 100 96 82 30 14 12 10 8 8 8 8 9 10 10 10 8 10 11 12 12 12 15 18 23 30 39 46 49 50 50 52 56
82 86 88 89 90 94 99 100 100 100 100 98 67 27 17 13 10 8 8 7 7 9 10 11 11 8 9 10 12 11 12 12 19 26 35 44 48 49 52 53 54 56 56
86 88 88 89 93 97 100 100 100 100 100 69 26 21 15 13 12 10 9 8 8 9 11 10 8 9 10 12 12 12 13 18 25 36 45 48 49 51 53 54 56 57 58
90 90 90 92 96 98 99 100 100 96 77 28 24 18 15 13 12 12 12 11 10 10 10 10 10 11 12 13 13 15 17 21 27 36 44 48 49 50 53 57 59 62 63
92 92 93 94 98 100 100 98 94 86 37 28 22 19 15 12 12 12 11 11 11 10 10 11 12 13 13 13 13 14 17 20 24 34 44 49 51 52 58 63 64 66 69
92 91 91 93 98 100 100 98 94 60 37 28 21 16 14 12 11 10 10 9 10 10 10 11 12 12 11 11 12 13 14 16 19 29 40 46 52 57 60 64 66 69 72
90 92 93 94 100 100 96 94 85 41 30 23 19 16 12 12 9 10 10 10 9 9 10 11 10 11 11 12 13 14 15 17 19 23 32 42 51 56 60 66 70 74 77
91 97 97 93 98 100 93 91 82 38 24 20 18 16 14 11 8 9 10 9 10 10 10 10 10 10 11 12 13 14 16 18 20 23 28 34 38 42 49 57 64 70 76
87 98 96 95 98 100 93 93 79 41 28 26 24 19 16 14 11 9 9 8 10 10 9 9 10 10 12 13 14 14 16 17 19 22 24 28 32 35 35 40 45 59 70
88 86 94 99 100 99 91 93 79 41 34 31 26 20 21 19 16 13 10 9 8 9 9 9 10 11 11 13 14 15 16 17 21 23 25 28 32 34 33 36 38 40 53
89 93 91 95 100 100 94 93 86 49 34 32 29 25 25 24 22 20 18 13 9 8 8 9 10 10 12 12 14 16 16 18 21 25 28 30 32 33 36 37 37 39 43
97 94 96 95 100 99 99 96 95 76 41 31 30 31 33 32 27 24 20 17 16 12 10 9 9 10 11 13 14 16 16 17 21 27 31 35 38 41 43 45 46 47 48
100 100 99 100 99 100 99 99 96 94 85 51 33 29 31 32 31 29 27 21 18 17 14 11 10 10 10 11 13 16 16 17 20 25 33 43 52 59 66 70 73 74 70
100 100 100 100 99 99 100 99 99 99 99 96 80 54 35 30 30 29 31 32 25 19 18 16 14 12 12 14 13 14 16 18 21 23 34 46 57 66 74 78 80 82 84
100 100 100 100 100 100 100 100 100 100 100 100 99 98 78 51 34 30 28 29 31 27 20 19 17 26 58 71 23 14 18 20 24 23 31 45 57 66 76 82 84 88 93
100 100 100 100 100 100 100 100 100 100 100 100 100 100 100 100 92 58 43 40 30 31 31 25 22 59 93 72 14 15 19 29 31 24 28 44 57 67 79 86 92 97 95

GFSGL_850_rhum_090.txt.gz
RH
41 42 41 40 38 39 39 40 41 41 41 40 38 40 42 44 68 90 91 95 98 99 99 96 93 91 87 76 72 70 77 83 90 91 99 96 86 84 84 85 81 89 99
49 48 48 51 51 52 52 50 50 52 52 54 54 55 57 68 96 98 99 100 100 99 92 96 97 87 66 58 63 71 78 84 88 92 96 95 91 94 94 97 98 95 95
57 58 58 56 57 57 58 57 56 56 57 59 61 63 66 73 86 96 99 99 99 100 100 99 80 59 56 63 72 79 81 84 94 96 94 92 88 87 87 88 88 90 93
58 56 57 56 55 54 57 60 60 61 61 61 63 65 67 69 71 72 76 78 77 74 66 63 60 63 69 75 80 80 81 82 84 84 83 83 88 91 93 89 88 89 86
59 59 58 58 59 59 59 61 65 67 69 70 69 71 70 68 71 70 70 70 71 69 68 69 76 79 79 80 76 74 76 80 81 83 83 84 90 92 91 79 65 47 32
60 62 61 63 64 64 68 66 70 74 77 80 80 76 77 76 76 76 76 79 80 82 83 83 82 81 81 78 74 73 76 76 69 66 60 64 54 41 28 23 20 20 42
64 65 66 67 69 70 70 72 74 81 86 84 84 85 85 85 84 86 91 90 92 95 90 84 80 77 74 65 43 27 16 12 10 11 14 16 16 17 17 18 18 18 19
67 68 69 71 72 72 73 73 81 91 98 98 94 92 91 89 90 97 93 93 92 86 81 78 71 41 15 10 11 9 9 9 9 11 12 12 12 14 13 14 17 19 23
71 72 72 74 75 76 75 79 93 100 99 100 99 93 89 87 92 89 86 84 84 75 42 15 10 9 9 8 8 8 8 10 9 9 9 9 9 10 13 21 36 42 53
72 73 75 76 78 79 81 87 100 99 100 100 100 97 93 92 94 90 73 36 16 10 10 9 8 8 9 7 8 9 9 9 10 10 11 12 13 15 26 38 44 46 48
75 76 77 79 82 84 89 96 100 99 99 100 100 100 97 82 34 16 13 12 11 9 9 9 10 8 7 7 8 9 10 11 11 12 17 21 27 37 42 44 46 49 52
78 79 80 84 87 88 90 98 100 100 100 100 100 97 57 22 15 10 8 9 10 9 10 10 10 8 7 8 8 10 10 10 13 19 26 33 41 44 45 47 49 50 51
78 80 84 89 90 91 93 100 100 100 100 100 100 72 30 17 13 9 9 9 9 10 10 11 10 8 8 8 9 10 11 13 19 26 34 41 44 44 45 45 48 50 53
80 83 88 90 90 92 96 99 100 100 100 100 91 36 22 17 14 12 11 10 10 9 9 9 9 10 10 11 11 12 13 17 22 27 35 41 43 44 45 47 50 53 55
84 88 91 93 94 96 99 100 99 100 100 99 58 25 20 14 12 14 14 13 13 12 11 11 11 11 12 12 12 13 14 17 20 25 31 40 45 46 47 50 53 55 60
86 89 91 93 93 97 100 100 100 100 100 85 33 31 21 17 15 12 12 12 11 11 10 10 12 12 12 11 11 13 14 14 16 19 26 35 42 46 50 52 52 55 62
86 88 92 94 95 97 100 100 100 98 92 45 36 27 18 16 14 12 12 12 12 12 10 11 13 12 11 11 11 12 13 14 16 18 21 26 33 37 41 43 46 51 59
90 89 92 94 95 98 100 100 100 96 86 43 30 20 18 15 12 11 11 11 12 10 10 11 12 12 11 11 12 13 13 14 15 17 19 23 27 30 31 30 31 36 47
92 94 97 100 100 100 100 100 100 96 89 49 30 25 20 18 15 13 11 10 10 11 11 12 12 11 12 12 12 13 14 15 16 17 19 22 24 27 29 30 32 34 37
92 89 94 100 99 99 100 100 100 99 94 63 33 26 24 23 20 16 12 10 9 9 10 11 11 12 12 12 13 13 15 16 16 17 20 23 26 29 31 32 34 36 38
98 98 98 99 100 99 99 100 100 98 95 75 38 29 28 25 21 20 18 17 15 12 9 9 10 11 11 12 12 13 14 17 18 18 20 23 28 31 34 37 38 40 42
100 100 100 98 100 100 100 99 99 98 95 91 56 34 34 36 30 25 22 21 19 17 16 13 11 10 10 11 12 12 13 16 18 19 20 23 28 34 40 46 51 56 61
99 100 100 100 100 100 100 99 99 99 99 97 93 65 38 36 34 32 30 28 27 25 21 18 17 13 11 11 11 11 12 14 19 20 20 24 28 36 46 56 65 71 76
100 100 100 100 100 100 100 100 100 100 99 99 99 98 92 67 43 33 30 30 32 34 32 24 18 17 15 13 12 11 15 22 19 19 22 26 27 34 48 60 67 75 84
100 100 100 100 100 100 100 100 100 99 100 99 99 99 100 100 99 80 59 36 28 29 32 33 28 21 19 27 15 26 65 93 20 19 23 32 29 32 46 59 67 78 90
98 99 99 100 99 100 100 99 99 100 99 99 99 99 99 99 99 100 100 99 67 35 33 37 50 88 54 55 22 66 96 52 16 20 30 42 33 30 41 55 70 87 93

GFSGL_850_rhum_093.txt.gz
RH
40 40 40 38 38 38 37 38 37 37 38 39 39 39 41 41 45 48 59 67 95 99 99 99 79 100 99 88 88 84 82 83 100 100 97 94 94 83 80 82 82 82 84
40 42 45 44 43 44 46 45 46 47 50 51 52 51 52 57 56 62 75 99 100 99 98 99 96 100 93 91 79 64 66 77 86 85 87 96 94 91 91 90 92 93 95
47 48 47 50 53 55 54 55 54 56 55 57 59 61 64 67 73 78 91 96 97 100 100 100 100 100 98 79 62 69 74 81 84 87 98 97 98 94 92 86 85 87 88
53 56 56 55 54 54 53 53 53 53 55 56 59 62 66 68 73 79 92 99 100 100 99 100 100 89 66 64 69 74 78 82 87 87 86 85 87 87 90 88 85 83 81
59 57 55 55 55 55 55 56 57 57 60 62 63 66 66 70 70 71 73 76 80 82 80 74 69 67 67 72 77 79 77 80 82 77 79 84 86 87 84 76 83 70 44
58 57 57 58 57 58 60 60 62 64 65 68 72 72 73 73 72 74 76 76 75 74 73 72 72 73 78 79 80 77 76 78 76 76 74 78 73 61 49 34 21 18 32
60 59 60 61 62 62 63 65 66 66 68 72 77 78 77 79 80 79 80 81 82 83 86 86 85 82 84 83 79 77 68 51 31 20 22 27 23 14 12 13 14 13 13
63 63 64 64 65 66 69 69 69 69 73 79 88 88 88 88 87 84 91 96 98 97 95 91 86 81 79 69 29 11 9 8 8 9 10 11 11 12 11 11 11 12 14
65 65 67 70 70 72 72 75 73 74 79 97 99 100 97 92 91 93 99 100 99 98 92 87 81 50 17 9 8 7 7 7 8 8 9 9 8 8 8 12 19 25 35
68 69 70 72 73 74 76 77 79 85 91 98 98 100 99 93 91 94 93 92 90 89 80 32 12 9 9 8 6 7 8 8 9 10 10 9 9 12 14 21 28 32 34
72 72 74 75 76 77 80 82 83 87 98 100 100 99 99 97 96 96 93 74 42 17 13 11 10 8 9 7 6 8 10 10 10 11 12 13 16 21 29 32 34 35 38
75 76 76 77 79 80 84 87 88 95 98 99 99 99 100 100 88 44 19 16 14 14 13 12 12 11 8 6 7 8 9 9 12 14 16 20 26 31 34 36 38 41 42
78 77 77 79 79 83 88 87 89 97 100 100 100 100 100 77 32 16 12 10 11 11 12 12 11 10 7 7 8 9 9 11 14 17 22 27 32 34 37 37 38 40 44
76 77 79 80 82 87 88 88 91 98 100 100 100 100 96 61 25 14 10 10 10 9 12 12 10 8 8 10 10 10 10 14 16 19 22 24 30 35 36 37 39 42 44
77 80 81 84 87 90 92 92 97 99 100 100 99 99 91 36 19 17 15 15 14 12 11 11 10 10 11 11 11 12 13 14 14 17 18 23 30 33 34 36 39 45 49
80 82 83 87 90 91 93 97 99 99 99 99 99 99 77 28 23 18 18 19 18 16 14 11 12 12 12 12 12 12 13 13 14 14 17 20 25 28 30 33 38 43 48
87 85 84 88 92 94 95 100 99 100 99 99 99 100 45 30 25 21 19 15 15 16 12 12 11 12 13 12 11 11 12 12 13 14 16 18 20 22 25 26 31 34 38
92 92 91 94 98 96 97 100 100 100 99 99 99 85 35 33 23 20 17 16 16 14 11 11 10 12 13 12 12 12 12 13 14 15 16 17 19 21 23 25 28 28 28
96 93 95 97 99 100 100 100 100 99 99 99 98 80 36 30 22 20 19 16 13 11 11 11 12 12 12 12 12 12 12 13 15 16 17 17 19 21 23 27 29 32 34
100 100 100 95 98 100 99 99 100 99 99 99 98 89 43 32 24 20 17 14 11 8 8 10 11 12 12 12 13 13 13 13 14 16 17 18 20 21 24 27 30 33 35
99 100 100 99 100 100 100 99 99 99 99 99 99 99 80 38 26 23 20 18 15 14 11 10 10 10 10 11 12 12 12 13 14 16 18 19 20 21 24 28 31 36 40
100 100 100 100 100 100 100 100 99 99 99 99 99 99 100 81 40 30 26 22 19 18 18 18 18 15 11 10 11 11 12 12 13 14 18 19 22 22 25 28 32 39 47
100 100 100 100 100 100 100 100 100 100 99 99 99 99 99 99 74 40 34 31 28 26 24 24 24 22 19 16 13 11 11 11 12 15 18 26 27 21 26 29 32 40 53
100 100 100 100 100 100 100 100 100 100 100 100 100 99 99 98 99 91 61 38 33 32 32 32 32 32 28 21 18 16 13 12 12 14 21 65 50 21 27 32 31 39 54
98 100 100 100 100 100 100 99 100 100 100 100 100 99 99 99 99 98 99 99 91 65 50 36 30 30 33 32 24 20 25 14 13 17 60 96 36 21 28 37 33 37 53
85 94 98 99 99 100 100 100 99 99 99 99 100 99 99 99 99 99 99 99 99 99 99 96 75 43 32 34 34 32 64 49 52 31 96 82 20 21 32 42 36 38 52

GFSGL_850_rhum_096.txt.gz
RH
44 44 44 40 44 48 50 47 42 38 36 34 37 39 40 41 44 43 43 48 64 81 99 100 77 98 97 100 98 97 90 90 100 100 100 100 99 98 87 85 88 82 83
54 49 46 48 42 38 38 38 37 38 39 44 46 48 50 51 51 52 56 84 99 98 98 96 97 98 96 100 98 94 87 68 70 90 99 100 100 99 92 87 91 89 92
56 52 49 46 47 41 42 42 43 45 50 50 52 53 54 56 60 65 72 85 100 98 99 99 100 99 99 99 89 89 59 62 69 75 90 95 100 100 96 90 90 91 90
47 45 46 49 48 47 51 50 52 51 49 49 52 53 55 58 62 65 71 86 100 100 99 100 99 98 97 99 90 63 66 72 77 80 85 97 97 93 88 84 88 86 82
53 54 54 54 54 54 54 53 53 54 54 56 55 56 57 60 65 70 74 75 85 99 98 98 99 100 96 75 67 69 74 79 81 79 79 80 82 83 83 82 84 80 65
60 58 58 57 57 57 57 57 57 58 59 60 62 63 65 65 68 72 76 78 78 80 80 81 80 74 74 73 76 81 80 76 75 74 75 78 75 63 66 61 59 40 19
60 57 58 58 58 59 60 61 62 63 65 65 66 68 72 73 74 76 76 79 81 81 81 82 84 82 87 88 87 83 79 79 80 74 67 44 31 24 22 17 14 12 12
61 61 61 61 62 63 64 65 67 68 67 68 70 71 76 83 83 81 83 87 92 94 95 94 93 90 88 87 85 82 72 53 31 21 12 11 12 11 10 10 10 10 10
65 64 64 65 66 67 68 70 70 71 72 72 76 82 93 97 94 92 94 99 100 100 100 100 95 89 85 79 49 16 10 10 10 8 9 9 9 8 8 8 8 12 15
67 67 67 68 68 70 71 73 74 75 77 77 84 96 98 100 99 96 100 100 100 100 100 95 90 80 39 13 10 9 9 9 9 8 7 6 6 6 7 8 14 22 27
70 72 72 72 73 73 74 75 77 80 81 84 91 98 99 100 98 99 100 100 98 97 94 72 33 14 10 9 8 9 8 11 11 10 8 8 10 11 15 21 27 30 33
73 77 77 76 77 76 76 77 80 84 83 87 95 99 100 100 100 100 100 97 74 40 20 16 15 11 10 10 8 7 9 10 10 9 10 13 14 19 25 30 32 32 34
78 80 79 79 77 77 78 80 84 86 88 95 99 100 100 99 100 92 63 24 18 17 16 15 12 13 13 9 7 8 9 9 10 11 12 15 19 26 30 33 34 33 34
77 78 78 77 77 78 81 85 88 90 92 99 100 99 99 99 98 58 24 16 11 12 13 12 14 14 12 9 8 8 10 10 12 13 14 17 22 27 30 31 32 33 33
74 75 75 77 78 81 86 90 93 94 100 100 99 99 99 99 97 50 24 17 15 16 13 13 13 12 10 9 11 12 11 12 13 14 14 16 20 23 27 28 27 28 30
81 81 82 82 83 83 88 92 95 98 100 100 100 100 99 99 86 36 26 22 21 25 18 14 13 12 11 12 12 12 12 13 12 13 14 15 17 19 21 21 20 22 25
87 86 88 86 86 86 87 91 95 100 100 100 100 99 99 99 79 34 27 22 22 20 14 14 14 11 12 13 12 11 11 11 12 13 13 14 16 17 19 19 20 21 22
89 92 94 93 94 94 98 100 100 100 100 100 100 100 99 98 66 35 29 24 20 18 12 11 11 11 11 11 13 11 10 10 11 13 14 15 15 17 18 19 21 22 24
98 99 99 97 98 98 98 99 100 100 100 99 98 99 99 99 73 38 34 23 18 15 11 10 10 10 10 11 12 12 11 11 11 13 14 16 16 17 18 19 21 24 26
99 100 100 100 100 100 100 100 100 100 100 100 99 97 99 100 77 39 32 23 18 14 11 9 9 10 11 12 12 12 12 12 12 12 13 16 17 18 19 20 22 25 28
100 100 100 100 100 100 100 100 99 99 99 100 99 99 99 100 93 52 35 25 20 18 16 14 12 10 10 10 12 12 12 12 12 12 13 14 17 19 20 21 23 26 29
100 100 100 100 100 100 100 100 100 99 99 99 98 99 99 99 96 94 75 43 28 25 23 21 19 17 16 16 13 12 11 11 11 12 13 14 16 19 20 24 25 26 30
100 100 100 100 100 100 100 100 100 100 100 100 100 99 99 98 99 98 97 94 76 39 31 30 27 24 22 21 22 20 17 12 11 11 12 13 14 17 24 35 24 25 32
98 100 100 100 100 100 100 100 100 100 100 100 100 100 100 100 99 99 99 99 99 95 62 42 36 34 33 32 30 29 26 20 17 14 12 13 14 17 39 72 45 24 33
49 79 94 99 100 100 100 99 99 99 99 99 99 100 100 99 99 99 99 99 98 98 99 99 88 56 38 34 33 32 33 34 22 19 15 20 14 16 63 95 45 25 32
29 30 34 49 74 94 100 100 100 99 99 99 99 99 99 99 99 99 99 100 99 99 98 99 99 99 99 95 65 41 35 38 34 23 46 70 18 38 82 96 39 44 33

GFSGL_850_rhum_099.txt.gz
RH
40 36 38 48 54 58 65 65 65 65 67 62 52 42 38 35 35 34 34 34 36 39 54 84 98 87 100 98 98 89 91 94 100 100 99 98 99 98 100 79 87 85 85
44 43 44 46 46 44 43 39 38 40 41 40 40 43 43 44 45 46 49 48 47 47 64 79 95 97 82 88 95 100 95 100 99 100 100 99 99 99 100 98 94 88 91
52 52 54 52 50 48 44 48 46 44 43 44 47 50 53 54 55 54 57 63 66 79 81 97 92 97 96 95 99 99 99 94 86 74 91 98 100 100 100 100 99 96 91
64 66 64 59 54 50 48 44 46 51 51 52 50 49 51 52 54 58 59 65 74 95 99 98 96 96 98 99 99 99 99 84 66 72 85 99 100 100 100 99 94 90 87
62 60 56 53 51 46 45 50 54 54 54 53 53 54 55 56 54 57 63 63 72 90 99 98 98 99 98 98 98 99 83 68 74 78 86 88 98 99 95 90 91 86 77
58 57 56 55 52 51 54 55 55 55 56 58 60 61 61 60 62 64 66 70 76 80 88 99 99 98 99 100 96 78 74 74 74 83 81 80 81 83 83 82 80 67 51
60 59 58 57 56 57 58 58 60 61 61 62 62 61 62 62 62 66 72 75 79 82 84 84 87 86 80 77 78 81 84 83 81 79 77 76 73 66 55 54 51 38 15
61 60 59 60 60 61 62 63 64 65 66 66 66 66 66 66 63 68 77 81 84 91 91 91 88 90 89 92 92 94 92 86 84 78 73 59 35 34 22 19 15 12 10
64 63 63 63 64 65 67 68 69 70 69 69 71 71 71 71 70 75 86 92 100 100 100 100 100 98 97 93 90 89 86 74 50 23 18 11 13 15 14 11 9 8 8
66 67 67 68 69 70 71 73 74 74 73 75 76 76 78 80 89 88 96 100 100 99 100 100 100 99 97 89 86 53 18 12 11 10 10 8 8 9 9 7 8 9 15
70 70 71 72 72 74 74 76 78 77 77 80 81 83 85 91 99 100 98 100 100 100 100 99 99 96 74 34 17 11 12 10 11 11 10 8 8 8 9 9 14 21 26
75 76 77 78 77 77 77 78 80 80 81 84 85 91 96 98 100 100 100 99 99 100 98 88 60 30 19 14 12 9 9 12 14 12 10 11 12 13 16 22 25 27 29
78 79 80 80 78 78 77 78 80 83 85 87 91 97 100 100 100 99 99 100 95 54 34 25 23 20 19 16 11 10 9 10 11 11 12 14 15 20 25 26 28 28 29
79 80 80 78 77 78 78 79 83 87 89 91 93 100 100 100 100 99 98 67 30 19 16 17 18 18 17 17 13 11 10 10 11 13 16 15 16 21 24 24 26 28 29
78 78 78 78 78 81 82 82 85 89 93 94 97 100 100 100 99 99 99 48 31 20 17 16 18 14 14 16 13 13 10 12 13 16 15 14 17 19 21 22 23 23 23
80 80 81 81 84 87 86 86 87 90 96 99 100 100 100 100 99 100 85 39 28 26 21 16 14 14 16 15 15 14 14 15 16 18 15 14 16 18 20 18 18 18 18
86 90 89 88 90 92 92 94 98 100 100 100 100 100 100 98 99 99 65 33 27 24 20 21 20 18 16 16 14 14 14 14 18 16 14 14 14 15 16 17 17 17 19
93 93 93 95 98 99 99 100 100 99 99 99 100 100 100 100 97 99 76 40 31 33 22 15 15 16 15 13 12 13 13 13 12 12 13 14 14 15 15 16 17 18 20
99 99 100 100 100 100 100 100 100 100 99 99 99 100 100 99 99 99 92 43 32 27 22 17 14 15 14 14 12 12 13 13 12 12 12 13 14 16 16 17 18 20 22
99 100 100 100 100 100 100 100 100 100 100 100 100 99 99 100 99 98 97 56 39 33 23 19 16 14 12 12 13 14 14 14 12 12 12 12 13 15 17 18 19 20 22
100 99 100 100 100 100 100 100 100 100 100 100 99 99 99 99 99 100 99 94 53 37 31 24 21 18 15 12 11 13 14 13 13 12 12 12 13 14 15 17 20 21 24
99 99 100 100 100 100 100 100 100 100 99 99 99 100 99 98 98 99 98 99 96 74 47 35 28 25 22 19 17 14 13 12 11 11 11 11 12 14 14 15 18 21 27
97 98 99 99 99 99 99 99 99 99 99 99 100 99 100 100 99 99 99 99 99 99 100 98 72 40 30 26 24 22 20 18 16 14 13 12 13 13 14 14 16 21 33
28 47 78 95 99 99 99 99 99 99 99 99 99 99 99 99 99 100 100 100 99 99 99 99 100 95 59 37 35 34 30 26 26 24 22 18 14 16 32 14 16 20 46
27 26 27 28 34 55 87 99 100 100 98 98 98 98 98 98 98 98 99 100 100 100 99 99 99 98 99 98 72 42 35 37 38 36 35 30 22 20 42 24 22 20 61
33 33 32 32 31 30 32 33 40 60 90 100 100 100 100 98 97 96 97 97 97 98 99 99 98 99 99 98 98 99 98 74 43 41 45 44 34 24 19 23 66 36 58

GFSGL_850_rhum_102.txt.gz
RH
74 71 66 64 61 63 61 60 60 63 64 68 73 76 77 76 61 46 38 38 39 40 40 39 44 72 83 92 88 96 94 93 99 97 100 99 99 100 99 98 98 87 94
49 48 50 56 58 61 69 62 50 48 44 40 46 44 41 42 42 45 45 46 47 49 51 50 51 70 84 87 91 92 99 99 98 99 100 100 100 99 99 99 100 96 97
43 43 43 47 53 48 48 45 48 45 44 44 44 47 51 51 50 50 52 53 53 54 61 65 72 82 92 92 89 99 98 99 99 100 100 100 99 99 98 98 97 100 99
50 50 50 50 51 50 50 51 52 51 46 43 44 47 49 48 49 49 50 50 56 53 62 98 99 99 100 100 100 100 99 99 100 99 93 96 100 100 100 99 99 100 99
58 60 59 58 60 58 56 54 52 51 48 48 50 52 54 55 56 56 57 58 58 68 63 82 99 98 99 98 98 98 100 98 98 94 78 98 100 100 100 100 100 100 93
65 65 66 64 58 54 55 56 56 53 52 53 54 56 58 59 58 58 58 61 65 67 72 84 97 99 98 97 97 97 97 100 84 80 88 90 92 96 100 99 97 92 83
62 62 60 58 58 60 59 58 56 57 57 58 60 61 62 62 62 61 60 60 67 72 76 86 91 98 100 100 98 97 93 82 81 87 89 86 86 88 90 87 83 80 73
63 63 63 62 62 60 60 60 61 61 63 65 67 67 67 68 68 66 64 62 72 81 89 94 98 98 97 96 95 96 99 97 93 87 84 81 78 76 77 69 66 53 41
65 65 64 63 63 62 63 64 66 68 70 71 72 72 74 76 76 74 68 66 83 98 100 100 100 100 100 100 100 100 97 97 93 88 84 81 65 39 35 26 22 17 16
65 66 66 66 66 67 69 70 70 72 74 74 74 75 76 78 82 78 74 76 94 99 99 100 99 99 100 100 98 98 90 83 64 39 26 16 13 12 14 13 13 11 11
71 71 71 71 72 74 74 74 76 77 77 78 77 78 79 82 88 91 87 97 100 99 100 100 100 99 100 99 96 84 48 25 18 14 13 14 11 11 10 8 9 11 16
74 74 75 76 76 78 77 77 78 78 78 77 79 81 86 96 98 100 100 100 100 99 100 100 100 100 88 62 27 20 17 16 16 17 14 12 11 10 11 11 15 24 25
79 79 80 81 80 80 80 80 79 79 77 78 82 85 95 100 98 98 99 100 99 99 98 84 64 42 26 24 18 17 15 13 17 18 15 15 15 16 16 20 26 28 28
83 84 85 85 85 84 81 81 81 80 81 83 87 89 93 99 99 99 99 100 99 97 50 26 26 27 24 23 22 18 15 14 17 18 19 19 19 19 23 26 28 28 29
85 86 86 86 84 83 83 85 84 84 85 87 88 94 99 98 99 100 100 100 99 48 33 22 18 18 21 19 20 22 14 14 14 17 19 18 19 22 24 26 26 27 27
82 82 83 84 84 86 88 89 89 93 94 94 92 96 100 99 99 99 99 100 90 42 31 19 18 17 18 19 20 21 17 16 15 18 17 18 18 19 23 24 23 22 21
86 86 88 90 92 93 94 95 96 98 98 96 96 100 100 99 99 99 99 99 64 42 31 25 25 24 19 18 18 18 17 19 20 19 19 20 19 19 25 21 19 18 18
88 95 94 93 95 98 100 100 100 99 99 99 100 99 99 100 99 98 100 100 78 49 32 31 21 22 21 21 19 16 15 17 18 17 18 19 17 18 20 17 17 18 19
83 88 98 99 99 100 100 100 100 99 99 99 99 100 99 100 100 100 100 100 95 93 48 28 24 23 22 20 18 15 14 15 16 16 16 16 16 18 17 16 18 19 22
86 97 100 99 100 100 100 100 100 100 99 100 100 100 99 98 95 99 100 98 97 95 51 34 28 23 20 19 18 16 16 14 14 15 14 14 14 16 16 16 18 20 20
97 99 100 100 100 100 100 100 100 100 100 99 99 100 100 98 97 97 98 98 98 97 86 67 42 35 27 24 21 17 15 15 16 16 16 15 14 14 13 14 17 20 21
97 99 100 100 100 100 100 100 100 100 100 99 99 100 100 99 99 99 99 99 98 98 97 96 91 59 37 31 28 26 21 15 13 15 15 15 15 14 14 15 16 18 20
39 52 75 95 99 99 100 100 100 99 99 99 100 100 100 100 100 99 100 100 100 99 99 98 100 100 99 84 48 32 28 23 20 18 18 17 16 16 15 15 16 17 17
26 26 25 26 35 68 92 100 100 100 100 100 99 100 100 100 99 99 100 100 99 100 100 99 98 98 99 98 98 85 47 33 31 26 26 26 25 22 19 18 18 18 65
31 31 31 30 29 27 28 32 39 60 89 99 100 100 100 100 99 98 97 98 98 98 98 99 99 99 98 98 98 98 99 95 54 41 40 38 33 33 31 25 22 22 89
34 36 36 37 38 39 37 36 37 36 40 44 70 95 99 100 100 99 100 100 100 100 99 98 98 98 98 98 98 98 98 98 98 96 67 46 46 45 43 39 31 34 92

GFSGL_850_rhum_105.txt.gz
RH
60 62 73 81 82 68 68 68 68 64 64 64 67 68 66 73 77 74 67 52 43 42 42 45 47 48 45 56 98 98 100 100 100 98 100 96 100 100 99 100 97 100 99
54 63 74 78 69 64 65 66 67 67 70 70 58 52 49 46 43 42 42 45 49 52 51 51 57 60 61 93 92 97 100 100 100 100 98 100 100 100 100 100 100 98 100
52 63 74 78 78 77 72 67 74 76 62 50 46 46 44 44 46 48 49 49 49 49 52 55 60 64 76 95 100 99 96 100 98 99 100 100 100 100 100 99 99 97 100
50 51 51 53 55 58 65 69 62 51 50 51 51 50 49 49 49 50 52 53 54 55 56 57 62 76 93 98 100 98 99 100 100 99 100 100 99 100 100 100 99 98 99
49 50 52 52 54 57 54 53 54 54 53 52 52 52 53 53 54 55 56 57 57 58 60 63 66 74 92 96 98 100 100 100 100 100 100 99 100 96 94 98 100 98 99
58 61 62 61 60 60 63 61 56 52 53 54 56 57 58 59 58 58 58 59 60 58 58 64 73 80 99 98 96 94 98 99 95 96 98 97 85 100 100 99 100 99 99
64 66 69 69 69 66 58 56 57 56 57 59 60 61 62 63 62 61 62 64 65 62 60 66 78 89 100 99 98 99 98 98 98 99 98 88 90 92 99 100 100 99 98
68 65 62 61 60 59 59 59 60 61 62 63 65 66 67 66 66 66 68 68 69 65 63 75 98 100 100 100 100 100 95 89 94 98 97 95 96 94 98 98 96 97 92
63 63 63 64 64 62 62 63 64 65 67 69 70 70 70 70 71 70 70 73 74 70 72 95 99 99 99 99 99 100 100 100 100 99 99 92 90 88 83 81 73 72 64
64 65 66 65 64 65 66 67 70 71 72 72 73 74 73 73 73 74 75 78 80 78 90 100 100 99 100 99 100 100 100 99 98 94 94 92 85 83 63 46 46 38 28
70 69 69 70 70 70 70 72 73 74 74 76 75 75 74 76 78 81 86 87 95 95 98 100 100 100 100 100 100 100 96 80 55 36 23 23 26 27 26 24 19 18 17
74 73 73 74 74 75 76 77 78 79 78 77 75 74 76 80 86 98 99 99 99 99 98 99 99 99 99 99 97 68 53 42 30 24 21 16 16 21 15 13 13 13 12
78 78 78 79 81 81 81 82 82 81 78 75 74 74 77 85 90 97 96 98 100 98 96 99 97 97 88 66 43 30 26 21 20 21 22 19 17 18 16 14 16 18 24
84 82 83 84 84 85 87 86 84 81 81 78 78 79 82 85 90 94 98 98 99 98 97 98 65 38 33 32 32 28 23 19 23 27 30 30 22 19 20 21 26 28 32
85 87 88 88 89 90 88 86 83 85 86 85 87 86 86 86 94 100 100 100 100 99 100 72 35 25 20 22 25 28 26 27 22 25 26 25 22 24 26 27 30 31 31
81 82 84 85 85 86 86 85 86 91 92 94 95 94 90 90 97 100 100 100 100 99 99 63 34 28 21 20 24 29 28 27 21 20 25 24 24 25 27 29 30 31 27
82 86 86 88 88 88 90 91 92 96 96 97 98 98 94 90 98 100 100 100 99 100 95 68 42 54 29 25 22 24 23 24 26 28 26 24 23 24 30 28 30 29 23
76 79 84 90 94 94 95 96 97 100 99 99 100 98 99 97 99 99 100 100 98 98 94 68 38 42 33 29 31 28 25 25 24 26 26 24 26 28 29 24 26 24 20
79 80 81 84 94 98 100 100 99 100 99 98 100 100 100 96 97 99 100 100 100 95 96 90 66 47 35 36 30 27 25 24 22 21 22 22 25 28 27 22 22 22 19
84 83 84 88 95 99 98 99 99 100 100 100 99 100 100 99 96 95 96 100 100 100 97 94 94 80 38 35 31 27 25 25 23 19 18 19 20 21 21 19 19 20 21
90 93 98 99 100 100 100 100 100 100 100 99 99 100 100 98 98 99 97 98 98 98 98 98 96 93 75 59 43 35 29 25 20 19 18 18 19 19 18 16 16 18 20
72 79 90 99 100 100 100 100 99 100 100 100 100 100 100 100 99 99 100 100 100 100 100 98 96 93 96 97 81 53 39 31 25 20 16 16 19 20 20 20 18 17 19
25 26 26 31 53 90 100 100 99 99 100 100 100 100 100 100 100 100 100 100 100 100 100 100 99 96 94 93 97 99 86 46 30 31 29 25 20 20 22 22 19 18 17
26 27 27 27 27 28 30 41 73 99 100 100 100 100 100 100 100 100 99 99 98 98 98 98 99 99 99 98 98 98 97 97 92 64 41 34 30 28 26 25 22 20 20
31 31 31 32 32 32 32 32 31 31 33 38 46 84 99 100 100 100 100 100 100 99 99 98 97 97 98 98 98 97 97 98 98 99 99 73 47 40 37 34 34 33 27
54 49 44 40 40 39 40 40 40 40 40 42 44 43 46 50 77 89 98 100 100 100 100 100 100 100 99 98 97 97 97 97 98 98 98 98 98 82 59 50 45 41 36

GFSGL_850_rhum_108.txt.gz
RH
52 53 60 60 66 73 76 77 75 73 71 64 63 62 66 71 71 71 69 59 50 46 44 44 46 50 52 54 55 63 73 99 96 100 100 100 100 100 100 99 100 99 97
53 55 56 66 75 76 79 74 70 68 65 66 67 65 56 49 44 44 44 44 46 47 48 49 50 53 59 64 66 98 100 99 100 98 98 93 100 100 100 100 100 100 98
57 55 56 75 80 80 73 69 71 70 70 75 73 50 46 47 48 48 48 48 48 48 50 51 51 53 54 58 68 92 98 100 98 100 100 100 100 100 100 99 100 100 99
55 55 60 72 80 80 82 80 76 75 80 62 50 50 51 50 49 50 52 54 54 54 54 53 54 57 61 65 82 96 100 99 100 100 100 100 100 100 99 99 100 99 99
53 53 56 58 64 68 66 69 71 59 53 53 53 51 50 51 53 55 56 57 57 57 58 58 58 59 62 70 85 94 95 100 100 100 100 100 100 100 98 99 100 100 100
55 53 52 54 56 60 62 58 56 56 57 54 52 53 55 56 57 58 60 60 61 62 64 64 62 62 64 77 99 99 97 94 99 100 100 99 99 100 100 100 100 100 100
60 62 63 64 63 62 63 64 64 58 55 54 56 58 61 63 64 65 65 67 67 66 66 66 63 62 65 85 100 99 98 98 94 97 98 97 98 95 98 100 100 100 99
65 65 68 72 72 71 69 62 59 58 58 61 62 65 67 68 68 69 69 71 70 69 70 70 66 65 89 98 97 98 97 99 100 100 100 99 100 100 100 100 100 100 100
65 67 67 67 67 66 65 63 62 63 64 68 69 69 70 72 73 73 70 70 70 72 73 73 70 82 100 95 93 97 99 98 98 98 99 100 100 100 97 96 100 99 99
66 67 67 69 70 68 65 66 67 68 70 71 71 72 72 72 71 70 71 73 76 75 80 80 89 98 100 98 93 98 100 100 100 100 99 100 100 98 92 89 99 94 90
73 73 71 69 69 70 69 69 69 71 73 73 73 71 68 69 72 76 79 79 89 92 95 91 95 99 99 100 96 99 99 98 90 79 68 62 70 85 81 77 65 66 52
76 77 77 77 75 73 74 74 74 74 74 74 73 68 66 66 70 81 89 98 98 97 98 98 92 94 97 99 97 98 93 82 76 58 38 28 25 26 30 32 31 27 23
78 77 78 76 77 79 78 77 76 76 78 76 68 63 61 63 70 78 87 89 92 94 96 97 95 94 94 94 86 66 41 32 27 25 27 27 27 24 23 22 19 16 16
84 83 82 83 83 81 81 80 82 83 82 78 78 77 75 73 74 80 87 96 97 96 94 98 98 93 59 45 42 35 33 30 24 23 25 37 33 25 21 22 20 21 26
86 84 85 87 87 87 87 88 88 86 82 79 83 84 88 88 90 84 86 96 99 100 100 99 97 83 44 28 32 30 31 33 31 29 31 32 35 32 27 26 26 29 34
82 82 84 87 88 88 86 86 85 84 86 91 90 90 92 95 91 85 80 92 100 99 100 98 95 84 46 32 29 26 28 31 29 31 34 32 32 28 30 33 32 33 36
76 79 83 86 87 88 88 88 89 92 93 95 95 97 99 99 97 93 88 98 100 100 100 99 93 86 46 54 44 29 26 25 31 33 27 32 30 34 39 34 34 34 33
79 79 78 80 85 91 95 97 97 95 95 96 99 99 99 100 100 99 92 98 99 100 100 99 94 87 51 46 41 35 31 30 27 25 24 29 29 35 36 29 30 35 34
80 81 81 80 81 83 88 95 99 100 91 88 97 99 100 100 100 99 99 99 100 100 100 99 94 93 90 63 49 40 41 36 34 30 24 22 23 26 27 30 32 30 31
87 86 86 85 88 93 92 98 95 98 97 100 100 100 100 99 99 100 100 99 100 100 100 100 100 98 97 96 76 42 38 32 28 27 26 23 20 21 22 24 26 27 25
79 82 88 93 96 99 99 100 100 100 100 100 100 100 99 99 99 100 100 99 99 100 100 100 100 100 98 98 94 72 65 51 38 27 24 22 23 20 20 20 20 20 21
24 24 28 42 58 90 100 100 100 99 99 99 99 100 100 99 99 99 100 100 100 99 99 99 99 99 99 98 98 96 96 92 63 45 42 35 29 22 22 23 23 22 20
26 27 27 28 28 28 30 58 94 99 99 98 99 99 99 99 98 99 98 98 98 98 98 98 98 99 100 99 98 98 98 96 99 100 87 53 39 33 28 23 24 27 25
31 30 30 31 32 32 32 32 31 32 36 55 84 97 98 100 100 100 100 100 100 100 100 98 97 97 98 98 98 98 98 98 98 98 100 100 96 66 41 34 29 23 24
55 55 53 49 45 43 42 42 42 42 41 42 41 40 40 44 52 55 56 72 97 100 100 100 100 99 98 97 97 97 97 98 97 97 97 98 97 99 99 69 46 40 36
55 54 54 54 53 51 50 49 49 49 48 48 48 49 51 52 50 51 52 54 55 59 66 93 87 91 96 99 100 100 98 97 97 97 97 97 97 97 97 97 97 85 58

GFSGL_850_rhum_111.txt.gz
RH
61 64 63 65 66 69 72 78 75 76 76 73 68 66 66 66 64 60 57 54 49 45 43 44 47 48 47 48 53 58 64 82 99 99 100 91 99 92 95 98 100 100 100
54 56 59 61 66 72 80 81 79 78 77 70 67 66 66 54 43 42 43 42 44 46 47 47 46 48 50 51 53 54 60 97 100 98 99 99 98 98 91 99 100 100 99
57 57 60 60 70 79 87 87 80 77 71 67 66 72 55 45 46 46 45 45 46 47 49 50 50 49 50 53 55 58 64 92 98 100 100 97 99 100 100 100 99 100 100
61 59 56 62 77 84 84 76 75 75 72 73 79 59 49 50 49 46 45 49 50 52 52 53 53 54 55 55 55 58 67 81 95 97 99 99 99 100 100 100 99 100 100
60 63 59 65 76 79 80 82 82 80 77 74 54 52 53 50 47 48 51 56 57 57 57 57 59 59 60 59 59 62 70 86 98 98 100 100 100 100 99 99 100 100 100
58 57 58 59 62 66 67 66 70 70 59 54 56 54 52 51 52 55 57 60 60 61 62 63 64 64 63 62 59 60 82 97 95 96 100 100 100 100 100 100 100 100 100
57 58 58 58 57 59 60 61 59 60 61 59 57 57 55 55 57 60 63 65 67 67 66 64 66 68 66 62 62 80 98 100 99 97 97 96 100 100 100 100 100 100 100
64 61 61 61 62 65 65 66 66 65 62 60 59 57 60 64 65 66 68 69 68 67 66 66 66 68 71 66 77 87 94 98 98 98 98 99 98 100 100 100 100 100 100
76 76 75 74 72 72 72 71 66 62 60 62 64 68 68 69 70 68 66 67 68 70 70 69 69 71 74 72 87 92 92 93 98 99 98 97 98 99 100 99 99 99 100
74 74 73 73 72 70 69 67 66 65 68 69 71 71 72 68 65 65 66 71 74 75 77 78 82 82 99 99 100 95 96 98 97 98 99 99 100 99 100 100 100 100 100
73 74 74 74 74 72 70 68 67 68 70 73 74 74 68 66 64 65 69 74 79 84 91 95 96 93 96 98 98 97 96 96 98 95 88 82 83 94 100 99 100 100 100
74 72 72 74 73 71 70 72 72 74 76 75 74 73 69 64 62 63 67 72 78 82 90 95 97 99 93 93 96 97 97 93 81 78 74 55 34 31 39 54 70 82 82
79 79 79 78 77 77 77 77 76 76 76 79 80 76 76 71 69 62 63 68 76 80 82 85 90 98 93 92 91 88 67 52 38 31 31 29 30 28 27 27 28 32 34
84 84 83 81 82 81 82 82 84 85 85 83 83 80 78 78 81 79 75 79 82 88 95 97 92 96 97 74 49 51 45 35 32 28 30 30 30 29 26 22 20 22 23
96 98 97 97 97 94 94 92 89 88 90 91 87 82 85 89 89 88 84 77 76 81 90 98 100 100 100 80 43 30 39 30 31 32 31 33 36 39 32 27 26 29 29
90 91 93 96 100 97 95 98 95 96 96 92 88 90 94 92 91 93 93 77 78 93 96 100 100 100 100 85 50 36 33 24 26 30 34 32 30 34 38 36 34 33 37
77 80 84 88 90 94 96 96 95 98 96 94 94 95 95 93 95 99 100 98 96 98 99 99 100 100 100 92 56 57 43 32 28 25 29 29 30 29 34 31 33 38 41
77 78 80 81 83 84 86 90 96 99 99 99 99 99 99 100 99 99 100 100 96 100 100 99 100 100 100 94 67 54 46 38 33 28 25 25 29 28 31 26 26 30 32
79 79 79 80 82 82 82 82 86 90 93 98 100 97 100 100 100 100 100 99 100 100 100 99 98 100 100 97 94 69 56 43 40 36 30 27 25 23 26 27 27 27 29
85 85 85 83 83 86 87 88 92 98 99 98 99 100 100 100 99 100 100 100 100 100 100 99 100 99 100 100 99 97 84 53 39 37 35 34 32 29 24 23 25 28 31
27 34 45 60 75 87 100 100 100 99 99 99 99 99 99 99 99 100 100 100 100 99 98 97 96 100 100 100 99 97 96 72 55 57 53 44 34 26 26 24 21 21 24
25 25 26 26 26 28 34 64 97 100 100 100 100 99 99 99 99 99 99 99 99 99 99 97 95 95 95 100 100 97 97 96 83 88 98 94 69 47 37 28 26 24 22
26 29 30 31 32 32 33 32 32 36 65 92 98 99 99 99 99 98 98 98 98 98 98 97 96 96 98 97 98 98 97 98 99 98 100 100 100 97 69 45 37 28 23
39 48 51 49 46 42 40 39 38 39 39 39 42 46 58 67 77 82 88 96 100 99 97 99 100 100 99 98 98 98 97 97 97 97 98 98 98 100 100 100 83 47 38
58 55 54 55 55 53 51 49 48 48 48 47 48 49 49 50 51 49 49 50 48 50 56 70 83 92 96 97 99 99 97 96 98 97 98 98 97 98 98 97 99 100 89
49 48 45 46 51 53 53 52 51 51 52 53 53 54 55 56 56 55 55 56 56 55 56 58 58 61 62 71 80 91 92 95 97 98 98 98 96 96 97 97 97 96 96

GFSGL_850_rhum_114.txt.gz
RH
88 79 76 72 86 83 82 91 81 84 85 81 99 83 71 65 61 62 68 74 78 74 61 45 44 45 46 46 47 49 54 66 91 92 95 87 97 98 92 99 96 100 100
70 79 80 78 81 86 83 80 80 83 83 82 72 66 66 65 66 64 57 49 46 47 48 48 46 47 48 46 47 50 52 55 63 98 95 98 93 90 97 100 100 99 99
68 70 72 73 76 78 78 81 84 83 80 80 69 67 68 68 55 47 46 46 47 46 46 46 45 48 48 48 50 53 54 56 73 78 91 92 98 94 100 100 100 100 100
62 63 61 60 65 69 86 87 87 83 79 72 71 73 76 53 48 49 48 45 45 46 47 49 49 50 52 55 56 57 60 61 64 78 99 99 94 94 99 99 99 100 99
60 61 61 61 65 72 93 97 89 87 82 79 80 79 57 51 51 49 47 49 51 52 53 54 54 56 60 60 61 60 62 63 66 76 98 99 100 99 100 100 100 100 100
65 61 63 70 76 91 90 85 85 84 82 82 76 58 53 53 50 50 53 55 58 60 60 60 61 63 64 64 64 61 58 57 59 88 100 99 99 100 100 100 100 100 100
75 81 85 89 90 90 91 90 85 80 75 66 57 56 55 53 55 59 61 63 64 64 64 63 62 62 66 68 65 63 64 67 85 99 98 98 99 100 100 100 100 100 100
67 63 65 70 74 72 72 72 69 64 60 59 60 57 58 59 62 65 67 68 66 64 64 63 65 66 69 65 64 67 75 82 86 98 99 97 98 98 100 100 100 100 100
70 71 71 68 68 68 66 65 65 66 65 62 60 60 62 64 66 68 66 64 63 64 65 68 68 68 70 66 69 78 86 86 89 93 98 94 93 97 99 100 99 100 99
75 75 76 78 78 77 75 74 72 69 65 64 65 67 70 71 69 64 63 62 64 69 73 76 78 82 81 79 95 97 96 92 90 95 95 96 99 99 100 100 100 100 100
73 77 79 79 78 77 75 73 71 69 69 71 74 75 76 71 65 62 61 62 66 70 75 82 91 96 96 92 95 97 98 95 94 95 93 89 86 90 99 100 100 100 100
74 72 73 72 73 75 75 73 70 71 72 72 73 73 73 67 63 62 61 64 66 73 80 83 84 90 93 94 93 92 91 92 91 79 78 79 71 52 40 54 87 98 100
86 85 85 84 80 77 75 74 74 75 76 78 78 78 79 74 72 72 71 69 74 78 78 83 93 82 85 93 90 87 84 79 61 46 38 35 34 34 31 27 30 43 65
89 89 89 89 89 88 87 86 86 84 84 84 85 86 85 79 79 79 82 83 83 78 76 81 85 96 99 100 90 63 51 55 44 34 32 28 27 27 27 24 25 28 30
98 96 97 96 95 95 96 96 96 95 95 94 92 91 89 85 85 88 93 91 86 84 80 81 88 99 99 99 100 74 42 36 41 31 32 31 30 31 31 28 27 28 29
87 91 96 98 100 100 98 100 100 98 100 100 100 98 95 94 94 94 92 94 94 95 70 84 98 98 99 100 100 86 53 35 33 27 28 33 32 32 34 34 32 32 33
81 84 85 88 92 96 99 100 99 100 100 99 98 96 96 97 98 99 97 98 100 100 88 95 99 99 100 99 100 96 56 57 44 31 28 27 32 33 34 32 34 34 34
82 84 85 86 87 88 90 91 92 94 97 98 100 99 100 100 100 100 100 100 100 100 99 99 99 98 98 99 100 98 66 59 47 38 35 29 29 32 32 31 32 32 34
91 83 88 86 87 88 90 92 92 90 87 88 92 96 100 100 100 100 100 99 100 98 97 99 99 99 99 99 100 100 92 68 57 46 43 39 33 32 30 31 31 34 34
50 75 77 78 83 86 90 96 98 98 95 98 99 100 100 100 100 98 100 100 100 100 97 99 99 99 99 99 98 100 100 100 80 62 44 41 39 39 36 31 28 27 30
53 24 23 25 25 30 51 80 98 100 100 100 100 100 99 99 99 100 100 99 100 100 99 99 99 99 99 98 100 100 100 100 100 96 69 51 53 51 42 37 34 30 26
30 29 25 24 25 27 28 30 33 64 98 100 100 100 99 99 100 100 100 99 98 98 98 98 99 99 99 98 98 99 100 100 100 100 98 91 99 100 93 66 48 36 30
69 60 44 38 33 32 32 33 35 36 37 48 82 99 98 98 98 98 98 98 99 98 99 98 98 98 98 97 98 98 99 99 99 98 98 99 100 100 100 100 92 67 51
45 57 62 57 55 55 53 51 48 46 44 43 42 43 46 55 72 82 86 91 89 94 99 98 97 96 96 97 98 98 99 99 99 98 98 98 97 98 98 98 100 100 99
58 60 54 49 50 48 50 52 53 53 52 52 50 50 52 53 55 54 52 49 49 50 54 54 59 66 74 88 94 98 97 98 95 97 97 97 97 98 97 97 97 97 97
68 71 68 65 56 57 73 59 53 53 54 56 56 57 58 60 60 59 58 57 56 56 57 57 57 58 58 60 62 64 74 88 92 95 98 99 97 95 96 97 96 97 97

GFSGL_850_rhum_117.txt.gz
RH
100 95 89 80 87 71 81 84 96 86 82 91 94 92 78 74 90 90 80 68 66 68 74 75 75 62 44 45 45 46 52 72 98 92 69 68 70 92 91 93 91 100 99
88 97 92 89 88 91 100 98 78 81 78 67 80 93 96 91 92 86 70 69 71 68 61 50 42 43 47 49 50 51 50 57 71 80 81 71 83 94 92 87 99 99 98
84 84 78 76 92 85 82 80 91 83 87 89 98 100 98 90 90 73 70 63 52 43 43 44 45 47 48 48 49 51 52 54 59 64 77 76 84 91 91 86 93 100 100
72 80 75 82 85 88 83 93 96 98 98 100 100 91 89 80 74 71 53 45 45 46 45 45 48 51 52 52 54 56 55 56 58 63 69 76 91 99 100 94 95 99 100
64 66 69 83 80 79 95 95 96 100 100 82 78 74 73 72 69 53 47 49 48 47 49 52 53 54 57 58 59 61 59 58 59 59 67 94 96 97 99 100 100 100 99
77 70 67 72 82 82 89 97 99 96 89 86 76 75 75 76 57 50 51 49 49 52 53 55 57 58 59 60 59 61 62 63 63 68 68 91 98 100 97 100 100 100 100
86 81 84 78 79 91 99 100 100 96 88 81 79 80 79 61 54 53 53 55 56 58 60 61 62 61 60 61 62 60 60 61 63 66 74 87 98 94 98 100 100 100 100
100 99 98 90 84 90 98 98 93 90 89 87 83 73 60 57 56 58 61 62 64 65 64 63 63 64 64 66 68 67 66 68 72 76 81 85 89 97 99 100 100 100 99
74 82 94 98 100 99 97 96 94 91 84 76 66 62 60 58 60 64 66 68 65 62 61 65 68 72 72 70 69 70 69 72 73 81 82 86 94 95 96 99 99 100 99
79 76 75 76 76 75 78 78 75 71 66 65 65 64 62 62 66 68 68 62 60 61 65 68 70 72 76 80 80 81 82 80 82 84 86 88 93 93 98 100 99 100 100
80 80 82 81 79 77 75 72 71 70 70 69 67 65 65 68 69 69 63 60 61 64 66 69 74 77 78 81 85 83 84 89 88 90 89 89 87 84 86 95 99 100 100
78 78 81 83 83 83 83 81 79 76 73 71 72 71 72 72 71 65 63 64 63 64 68 74 79 84 85 82 82 80 81 84 90 91 85 76 76 76 68 52 53 88 100
88 87 84 82 81 82 82 82 80 77 76 75 74 74 75 76 74 70 69 69 71 72 73 74 73 75 81 84 83 86 83 78 76 74 56 43 38 35 35 37 34 32 49
86 87 92 92 89 86 85 84 86 86 88 91 84 84 86 84 82 76 73 71 71 72 74 71 71 75 81 92 95 98 88 69 55 57 47 33 29 26 24 24 26 27 29
96 97 95 96 98 96 97 96 94 93 92 93 93 92 92 88 86 81 78 79 82 80 80 76 76 80 89 99 99 99 97 78 48 37 42 30 27 26 27 29 30 29 27
78 81 88 94 98 99 97 98 99 100 100 100 100 100 100 99 96 93 92 94 94 94 94 94 84 89 93 100 99 98 99 90 60 38 35 26 22 25 31 33 36 37 33
79 75 78 81 84 88 93 98 99 100 98 100 100 100 100 100 100 100 100 100 100 100 97 100 98 99 100 100 99 98 100 100 66 57 49 32 26 25 31 36 33 35 36
97 99 85 78 77 77 83 91 97 100 100 100 100 100 100 100 100 100 100 100 100 100 99 99 99 98 97 98 99 99 99 100 81 63 54 41 34 30 29 31 32 31 35
80 89 85 78 87 83 80 83 90 94 93 92 90 88 95 100 100 100 100 100 100 100 100 100 100 98 98 99 99 98 99 100 96 74 62 51 45 42 33 30 30 31 34
54 34 32 35 41 54 73 83 86 97 100 100 98 98 99 100 100 100 100 100 100 100 100 100 100 100 100 100 99 99 99 99 98 100 93 71 56 48 42 41 38 31 29
38 51 49 32 23 24 25 26 34 59 92 100 100 100 100 100 100 100 99 99 99 99 99 99 100 100 100 100 100 99 100 100 100 99 99 97 93 65 52 49 46 39 36
41 52 60 61 56 50 40 31 30 30 32 37 80 100 100 100 100 98 98 98 99 99 98 98 98 98 99 98 98 99 99 98 99 98 97 98 99 99 90 95 95 87 63
75 58 45 44 48 50 49 46 43 40 37 38 39 41 72 97 99 98 98 98 98 98 97 98 98 98 97 97 97 97 97 97 98 98 97 97 97 97 98 99 100 99 100
44 50 56 66 68 60 54 48 48 51 52 49 47 46 48 48 54 64 74 82 89 93 96 96 97 96 94 96 95 94 95 98 98 97 97 97 96 96 97 97 97 97 97
54 60 59 54 61 74 75 74 84 78 58 58 56 54 55 54 54 54 54 53 52 52 53 52 56 58 59 62 79 84 95 100 97 97 97 98 97 97 97 97 96 97 97
59 64 77 68 47 36 35 44 56 62 76 63 62 83 83 64 61 61 59 57 56 56 57 60 61 61 60 59 61 63 71 75 80 96 100 100 97 96 97 99 99 98 97

GFSGL_850_rhum_120.txt.gz
RH
92 92 92 81 74 78 98 92 99 91 91 92 89 88 86 84 86 82 56 67 90 93 88 83 77 77 76 65 43 45 46 51 66 60 68 64 73 72 74 82 92 96 96
98 92 97 88 79 97 98 98 94 90 93 86 91 92 93 88 88 83 68 65 83 85 74 77 79 74 49 43 43 44 47 52 59 60 60 57 57 58 65 82 88 88 95
100 98 94 83 73 88 90 85 92 90 96 100 100 94 88 79 82 77 90 98 93 81 82 82 58 44 44 44 47 48 50 54 56 61 66 65 62 63 72 77 99 96 92
91 87 87 82 88 96 96 96 99 98 99 98 98 94 84 78 89 88 94 98 81 76 61 48 44 44 44 46 49 52 54 57 61 60 63 66 60 66 71 86 96 100 91
90 88 85 85 89 96 98 100 93 99 96 98 85 78 84 96 100 98 94 82 76 64 51 50 46 48 50 52 56 59 60 60 59 62 62 63 64 69 82 95 94 99 98
83 99 96 95 92 97 100 95 94 88 85 90 96 100 99 95 94 88 79 77 57 51 50 47 49 53 56 58 61 62 60 59 62 64 63 65 73 79 87 93 95 97 99
83 91 99 100 99 98 99 99 98 99 100 100 100 97 88 93 82 82 75 53 52 50 50 51 54 57 58 60 59 58 59 60 62 64 70 76 76 81 86 89 94 100 99
100 100 100 100 100 100 100 99 98 99 99 100 99 89 86 82 84 72 57 55 53 53 56 60 62 62 61 62 64 65 65 66 65 71 79 83 81 82 84 82 89 98 99
98 98 100 100 100 100 100 100 99 100 100 99 95 92 88 83 69 59 57 55 56 61 64 63 62 62 63 66 68 69 70 72 72 79 86 84 83 84 85 86 89 98 98
81 80 84 93 99 98 99 100 100 100 100 98 94 86 75 65 60 59 60 62 66 66 62 60 58 62 64 63 64 72 78 81 80 82 86 86 82 83 86 88 95 97 100
78 81 83 82 80 80 81 84 84 84 82 80 74 70 65 64 63 65 66 68 66 62 59 58 63 67 68 71 75 77 80 82 83 85 86 86 85 83 81 79 82 93 100
74 74 74 77 81 84 84 82 80 78 78 76 74 73 71 68 68 70 72 71 65 62 61 63 66 71 73 75 83 84 84 85 84 83 83 83 81 73 70 72 70 58 60
83 80 79 78 80 80 82 82 82 83 82 82 80 77 75 76 75 77 78 72 69 68 68 69 72 77 76 77 82 85 86 88 84 74 71 68 57 42 34 31 31 37 39
89 90 92 92 86 84 86 86 86 86 85 85 86 85 85 86 85 84 82 79 75 72 72 73 75 78 75 73 76 88 96 100 90 72 54 48 48 29 26 23 21 22 24
84 92 96 95 94 92 97 97 97 96 92 92 97 94 94 93 90 94 92 87 82 78 80 82 82 80 76 74 80 90 98 99 99 82 53 36 37 26 25 24 26 27 28
82 70 72 84 95 99 100 100 99 100 100 100 99 99 100 100 100 100 100 98 98 99 98 91 87 87 84 79 87 92 100 99 100 92 64 38 36 30 23 24 29 32 32
83 87 90 78 72 74 82 89 96 100 100 100 100 100 100 100 100 100 100 100 100 100 99 99 100 95 93 91 94 98 100 98 100 98 69 54 51 37 31 26 30 33 32
75 77 85 92 92 82 78 79 85 91 95 96 99 100 100 100 100 99 99 100 99 99 100 100 100 100 99 98 98 98 97 100 100 100 89 63 60 48 40 32 30 30 32
70 68 56 56 67 75 77 81 85 86 90 95 98 98 97 96 98 100 99 99 100 100 100 99 100 99 99 100 100 98 98 98 98 99 96 73 65 60 47 43 37 33 33
53 56 64 56 42 29 24 23 29 51 74 78 79 95 99 99 98 99 100 100 100 99 99 99 99 99 100 100 99 99 98 99 98 98 98 100 98 81 64 49 46 42 44
32 29 30 34 39 40 38 35 31 29 30 27 30 68 92 99 99 100 100 100 100 100 99 99 99 99 99 99 98 99 98 99 99 98 99 100 100 99 95 80 58 54 53
61 60 68 61 54 49 49 50 48 44 40 37 36 33 46 93 98 97 97 97 98 98 98 98 98 98 98 98 97 98 98 99 99 99 98 97 96 97 97 97 96 80 91
66 60 66 53 59 68 62 57 53 50 50 52 53 49 48 44 55 91 98 97 96 97 97 97 97 97 97 97 97 97 97 97 97 97 98 97 96 97 97 96 96 97 98
32 37 42 51 63 58 57 67 70 70 77 75 58 57 56 55 55 57 55 71 88 98 100 98 98 98 98 98 98 99 98 94 92 97 98 96 97 98 98 98 97 97 97
33 49 57 58 57 70 66 44 32 34 48 57 69 68 66 90 81 63 66 64 62 65 67 64 62 63 66 69 66 64 95 100 100 100 100 100 99 99 99 98 98 98 97
39 48 61 76 89 60 42 34 33 40 52 62 64 67 80 78 76 93 93 77 68 67 68 68 68 66 65 64 64 66 71 83 89 96 88 91 97 100 100 100 100 100 100

GFSGL_850_rhum_123.txt.gz
RH
81 100 88 99 95 93 83 78 83 72 70 81 90 86 88 88 89 82 77 75 63 63 65 65 70 69 79 85 79 70 46 45 42 53 55 59 57 49 49 57 64 80 90
91 97 99 80 92 91 99 96 84 76 79 84 82 94 96 92 91 76 74 72 72 75 76 67 69 78 80 77 63 49 49 46 45 45 48 50 51 53 56 56 58 78 87
100 99 93 81 76 79 92 91 97 92 99 99 100 99 96 90 82 82 82 82 72 76 65 73 75 82 77 60 50 50 51 49 49 50 52 56 54 56 57 58 59 62 83
100 100 95 87 76 90 94 93 100 93 95 100 100 99 95 90 90 94 96 83 90 86 75 79 78 81 60 50 48 49 49 51 54 58 62 58 59 61 59 55 57 72 87
99 99 98 97 89 94 100 95 98 97 96 99 95 99 100 100 100 100 86 97 87 95 98 82 80 57 52 50 51 51 52 55 60 63 63 63 62 61 59 60 69 83 88
100 99 100 100 100 100 100 100 100 100 100 100 92 97 97 100 100 99 83 87 97 100 80 81 59 53 51 53 53 55 56 60 60 60 61 62 60 61 62 69 78 88 90
100 100 100 100 99 99 100 100 99 100 100 100 100 100 100 100 99 100 99 100 99 83 79 57 53 53 54 53 55 59 60 60 60 61 62 64 64 67 68 74 82 89 88
99 99 100 100 100 98 98 98 99 99 100 99 99 100 99 99 100 100 100 93 87 70 56 54 54 54 56 59 60 59 59 60 62 63 65 65 68 75 77 83 84 84 88
99 100 100 100 100 99 99 99 99 99 99 100 100 100 98 100 97 97 96 85 63 57 56 57 59 60 61 59 59 60 63 65 67 68 69 70 76 82 84 84 85 91 90
74 74 79 94 99 97 99 100 100 100 99 98 99 100 100 100 97 98 87 73 66 60 61 62 64 62 58 57 58 57 58 66 72 78 79 80 83 83 81 84 87 91 99
74 72 74 77 78 78 82 85 89 93 96 98 98 95 92 85 76 70 66 65 64 64 65 65 62 58 58 59 59 60 65 69 73 77 83 86 87 87 86 84 80 78 87
80 78 76 75 75 76 80 82 82 82 80 81 82 88 87 87 80 76 75 72 73 72 70 66 63 60 62 65 65 65 68 76 80 82 83 85 90 86 78 72 72 72 69
86 86 85 84 84 84 82 80 80 82 84 85 86 84 82 81 79 80 78 78 79 78 74 71 69 69 69 70 70 69 70 77 83 87 83 77 75 59 45 36 32 31 33
78 79 85 89 91 93 93 93 92 90 88 88 87 87 88 89 86 84 84 86 87 84 78 76 76 75 74 76 74 69 73 86 98 99 89 67 53 49 39 28 25 25 21
72 73 73 78 87 96 98 98 98 98 100 100 100 99 99 99 99 99 99 98 97 96 94 94 89 83 78 78 78 74 82 95 98 98 99 79 50 38 33 26 24 24 24
62 70 75 82 80 75 78 89 99 99 99 99 99 100 100 99 100 100 100 100 100 100 100 100 100 97 96 93 94 85 88 94 99 98 100 96 66 39 37 31 23 24 25
63 67 73 78 88 90 84 77 70 74 90 97 100 100 100 98 100 100 100 99 99 99 99 100 100 100 100 100 100 99 91 99 100 100 100 99 66 52 51 37 28 24 23
72 72 71 68 68 73 82 83 82 81 75 69 80 89 98 100 99 99 99 99 98 99 99 99 99 99 99 99 99 100 100 100 99 98 99 100 98 64 61 47 35 29 26
69 66 60 56 57 51 38 29 26 32 47 68 78 84 92 94 94 95 99 100 99 98 99 99 99 99 99 99 99 99 100 100 100 100 98 100 99 72 65 57 45 37 34
55 45 36 34 35 35 36 35 32 27 23 23 27 37 46 74 80 84 97 98 99 99 98 98 99 99 99 99 99 99 100 100 100 100 99 99 100 100 94 81 62 44 44
59 53 51 60 69 68 66 61 57 54 51 47 43 37 34 45 50 87 90 95 98 98 98 98 98 98 98 99 99 98 99 99 99 100 99 99 99 96 97 96 94 78 61
70 70 68 69 57 51 59 61 57 53 51 49 48 48 47 41 40 47 74 97 98 96 96 96 97 98 98 98 98 98 98 98 98 98 98 98 97 97 96 95 96 96 96
67 47 35 42 46 55 66 62 62 68 65 59 64 71 59 54 52 50 48 54 85 100 96 96 96 96 96 96 97 97 97 97 97 97 97 97 97 96 96 96 97 97 96
48 44 36 50 58 62 59 64 70 45 32 31 40 52 64 70 70 85 73 58 57 61 77 93 96 96 96 96 96 97 97 96 96 97 97 96 96 98 97 96 97 96 96
46 39 38 51 62 64 74 76 49 37 34 36 45 57 64 65 80 74 80 95 81 66 68 69 70 71 69 73 76 78 81 78 98 100 99 98 100 100 99 97 96 96 96
64 56 50 48 57 70 85 65 46 39 39 47 52 62 67 68 67 70 88 92 94 96 83 70 70 71 72 68 66 68 74 78 88 100 100 99 100 98 100 100 100 100 100